<?xml version="1.0" encoding="UTF-8" standalone="no" ?>
<gpx xmlns="http://www.topografix.com/GPX/1/1" xmlns:xsi="http://www.w3.org/2001/XMLSchema-instance" xsi:schemaLocation="http://www.topografix.com/GPX/1/1 http://www.topografix.com/GPX/1/1/gpx.xsd" version="1.1" creator="VisuGPX - https://www.visugpx.com">
  <metadata>
    <name>Champagnat Cyclisme sur route</name>
  </metadata>
  <trk>
    <name><![CDATA[Champagnat Cyclisme sur route_1]]></name>
    <trkseg>
      <trkpt lat="46.4828" lon="5.36843">
        <ele>277.2</ele>
        <time>2022-07-05T05:13:15Z</time>
      </trkpt>
      <trkpt lat="46.48272" lon="5.3683">
        <ele>276.6</ele>
        <time>2022-07-05T05:13:16Z</time>
      </trkpt>
      <trkpt lat="46.48262" lon="5.36819">
        <ele>276.4</ele>
        <time>2022-07-05T05:13:17Z</time>
      </trkpt>
      <trkpt lat="46.48252" lon="5.36808">
        <ele>274.8</ele>
        <time>2022-07-05T05:13:18Z</time>
      </trkpt>
      <trkpt lat="46.48231" lon="5.3679">
        <ele>272.8</ele>
        <time>2022-07-05T05:13:20Z</time>
      </trkpt>
      <trkpt lat="46.48221" lon="5.36782">
        <ele>272.2</ele>
        <time>2022-07-05T05:13:21Z</time>
      </trkpt>
      <trkpt lat="46.4821" lon="5.36773">
        <ele>271.4</ele>
        <time>2022-07-05T05:13:22Z</time>
      </trkpt>
      <trkpt lat="46.48189" lon="5.36756">
        <ele>269.8</ele>
        <time>2022-07-05T05:13:24Z</time>
      </trkpt>
      <trkpt lat="46.48167" lon="5.36739">
        <ele>268.4</ele>
        <time>2022-07-05T05:13:26Z</time>
      </trkpt>
      <trkpt lat="46.48146" lon="5.36723">
        <ele>267.2</ele>
        <time>2022-07-05T05:13:28Z</time>
      </trkpt>
      <trkpt lat="46.48128" lon="5.3671">
        <ele>266</ele>
        <time>2022-07-05T05:13:30Z</time>
      </trkpt>
      <trkpt lat="46.4812" lon="5.36705">
        <ele>265</ele>
        <time>2022-07-05T05:13:31Z</time>
      </trkpt>
      <trkpt lat="46.48115" lon="5.36699">
        <ele>264</ele>
        <time>2022-07-05T05:13:32Z</time>
      </trkpt>
      <trkpt lat="46.48112" lon="5.36692">
        <ele>263.6</ele>
        <time>2022-07-05T05:13:33Z</time>
      </trkpt>
      <trkpt lat="46.48112" lon="5.36683">
        <ele>262.8</ele>
        <time>2022-07-05T05:13:34Z</time>
      </trkpt>
      <trkpt lat="46.48115" lon="5.36675">
        <ele>262.4</ele>
        <time>2022-07-05T05:13:35Z</time>
      </trkpt>
      <trkpt lat="46.4812" lon="5.36668">
        <ele>261.6</ele>
        <time>2022-07-05T05:13:36Z</time>
      </trkpt>
      <trkpt lat="46.48133" lon="5.36656">
        <ele>260.4</ele>
        <time>2022-07-05T05:13:38Z</time>
      </trkpt>
      <trkpt lat="46.48154" lon="5.36637">
        <ele>259.2</ele>
        <time>2022-07-05T05:13:41Z</time>
      </trkpt>
      <trkpt lat="46.48161" lon="5.36631">
        <ele>259</ele>
        <time>2022-07-05T05:13:42Z</time>
      </trkpt>
      <trkpt lat="46.4818" lon="5.36613">
        <ele>258.4</ele>
        <time>2022-07-05T05:13:45Z</time>
      </trkpt>
      <trkpt lat="46.48187" lon="5.36608">
        <ele>258.2</ele>
        <time>2022-07-05T05:13:46Z</time>
      </trkpt>
      <trkpt lat="46.48202" lon="5.36601">
        <ele>258</ele>
        <time>2022-07-05T05:13:48Z</time>
      </trkpt>
      <trkpt lat="46.48208" lon="5.36599">
        <ele>258</ele>
        <time>2022-07-05T05:13:49Z</time>
      </trkpt>
      <trkpt lat="46.48219" lon="5.36588">
        <ele>257.8</ele>
        <time>2022-07-05T05:13:51Z</time>
      </trkpt>
      <trkpt lat="46.48229" lon="5.3656">
        <ele>257.6</ele>
        <time>2022-07-05T05:13:54Z</time>
      </trkpt>
      <trkpt lat="46.48246" lon="5.3654">
        <ele>257</ele>
        <time>2022-07-05T05:13:57Z</time>
      </trkpt>
      <trkpt lat="46.48252" lon="5.36533">
        <ele>257</ele>
        <time>2022-07-05T05:13:58Z</time>
      </trkpt>
      <trkpt lat="46.48277" lon="5.36506">
        <ele>255.6</ele>
        <time>2022-07-05T05:14:02Z</time>
      </trkpt>
      <trkpt lat="46.48301" lon="5.36479">
        <ele>255</ele>
        <time>2022-07-05T05:14:06Z</time>
      </trkpt>
      <trkpt lat="46.48327" lon="5.36451">
        <ele>254.6</ele>
        <time>2022-07-05T05:14:10Z</time>
      </trkpt>
      <trkpt lat="46.48348" lon="5.36428">
        <ele>253.4</ele>
        <time>2022-07-05T05:14:13Z</time>
      </trkpt>
      <trkpt lat="46.48379" lon="5.36393">
        <ele>252.4</ele>
        <time>2022-07-05T05:14:18Z</time>
      </trkpt>
      <trkpt lat="46.48386" lon="5.36386">
        <ele>252.4</ele>
        <time>2022-07-05T05:14:19Z</time>
      </trkpt>
      <trkpt lat="46.48412" lon="5.36362">
        <ele>251.4</ele>
        <time>2022-07-05T05:14:23Z</time>
      </trkpt>
      <trkpt lat="46.4842" lon="5.36357">
        <ele>251.2</ele>
        <time>2022-07-05T05:14:24Z</time>
      </trkpt>
      <trkpt lat="46.48455" lon="5.36346">
        <ele>250.6</ele>
        <time>2022-07-05T05:14:29Z</time>
      </trkpt>
      <trkpt lat="46.48512" lon="5.36337">
        <ele>250.4</ele>
        <time>2022-07-05T05:14:37Z</time>
      </trkpt>
      <trkpt lat="46.48519" lon="5.36336">
        <ele>250.2</ele>
        <time>2022-07-05T05:14:38Z</time>
      </trkpt>
      <trkpt lat="46.48576" lon="5.36327">
        <ele>249.8</ele>
        <time>2022-07-05T05:14:46Z</time>
      </trkpt>
      <trkpt lat="46.48599" lon="5.36323">
        <ele>249.2</ele>
        <time>2022-07-05T05:14:49Z</time>
      </trkpt>
      <trkpt lat="46.48607" lon="5.36322">
        <ele>249</ele>
        <time>2022-07-05T05:14:50Z</time>
      </trkpt>
      <trkpt lat="46.48615" lon="5.36319">
        <ele>248.8</ele>
        <time>2022-07-05T05:14:51Z</time>
      </trkpt>
      <trkpt lat="46.48623" lon="5.36313">
        <ele>248.4</ele>
        <time>2022-07-05T05:14:52Z</time>
      </trkpt>
      <trkpt lat="46.4863" lon="5.36303">
        <ele>248.2</ele>
        <time>2022-07-05T05:14:53Z</time>
      </trkpt>
      <trkpt lat="46.48632" lon="5.36294">
        <ele>248</ele>
        <time>2022-07-05T05:14:54Z</time>
      </trkpt>
      <trkpt lat="46.48635" lon="5.36281">
        <ele>247.6</ele>
        <time>2022-07-05T05:14:55Z</time>
      </trkpt>
      <trkpt lat="46.48639" lon="5.36256">
        <ele>246.4</ele>
        <time>2022-07-05T05:14:57Z</time>
      </trkpt>
      <trkpt lat="46.4864" lon="5.36243">
        <ele>246.2</ele>
        <time>2022-07-05T05:14:58Z</time>
      </trkpt>
      <trkpt lat="46.48643" lon="5.36217">
        <ele>245.2</ele>
        <time>2022-07-05T05:15:00Z</time>
      </trkpt>
      <trkpt lat="46.48646" lon="5.36179">
        <ele>244.2</ele>
        <time>2022-07-05T05:15:03Z</time>
      </trkpt>
      <trkpt lat="46.4865" lon="5.36142">
        <ele>243.6</ele>
        <time>2022-07-05T05:15:06Z</time>
      </trkpt>
      <trkpt lat="46.48656" lon="5.36106">
        <ele>243</ele>
        <time>2022-07-05T05:15:09Z</time>
      </trkpt>
      <trkpt lat="46.48663" lon="5.36073">
        <ele>242.6</ele>
        <time>2022-07-05T05:15:12Z</time>
      </trkpt>
      <trkpt lat="46.48674" lon="5.36025">
        <ele>242.4</ele>
        <time>2022-07-05T05:15:17Z</time>
      </trkpt>
      <trkpt lat="46.4868" lon="5.35995">
        <ele>243.2</ele>
        <time>2022-07-05T05:15:21Z</time>
      </trkpt>
      <trkpt lat="46.48681" lon="5.35988">
        <ele>243.6</ele>
        <time>2022-07-05T05:15:22Z</time>
      </trkpt>
      <trkpt lat="46.48684" lon="5.3597">
        <ele>243.8</ele>
        <time>2022-07-05T05:15:24Z</time>
      </trkpt>
      <trkpt lat="46.48687" lon="5.35942">
        <ele>244</ele>
        <time>2022-07-05T05:15:27Z</time>
      </trkpt>
      <trkpt lat="46.4869" lon="5.35922">
        <ele>244.2</ele>
        <time>2022-07-05T05:15:29Z</time>
      </trkpt>
      <trkpt lat="46.48699" lon="5.35894">
        <ele>244.2</ele>
        <time>2022-07-05T05:15:32Z</time>
      </trkpt>
      <trkpt lat="46.48725" lon="5.35827">
        <ele>243.4</ele>
        <time>2022-07-05T05:15:39Z</time>
      </trkpt>
      <trkpt lat="46.4873" lon="5.35818">
        <ele>243.2</ele>
        <time>2022-07-05T05:15:40Z</time>
      </trkpt>
      <trkpt lat="46.48738" lon="5.35799">
        <ele>243</ele>
        <time>2022-07-05T05:15:42Z</time>
      </trkpt>
      <trkpt lat="46.48753" lon="5.35763">
        <ele>242</ele>
        <time>2022-07-05T05:15:46Z</time>
      </trkpt>
      <trkpt lat="46.48784" lon="5.35692">
        <ele>241</ele>
        <time>2022-07-05T05:15:54Z</time>
      </trkpt>
      <trkpt lat="46.48795" lon="5.35666">
        <ele>241</ele>
        <time>2022-07-05T05:15:57Z</time>
      </trkpt>
      <trkpt lat="46.48825" lon="5.35596">
        <ele>241.4</ele>
        <time>2022-07-05T05:16:06Z</time>
      </trkpt>
      <trkpt lat="46.4884" lon="5.35568">
        <ele>241.6</ele>
        <time>2022-07-05T05:16:10Z</time>
      </trkpt>
      <trkpt lat="46.48846" lon="5.35563">
        <ele>241.6</ele>
        <time>2022-07-05T05:16:11Z</time>
      </trkpt>
      <trkpt lat="46.48852" lon="5.3556">
        <ele>241.6</ele>
        <time>2022-07-05T05:16:12Z</time>
      </trkpt>
      <trkpt lat="46.48872" lon="5.35559">
        <ele>241.4</ele>
        <time>2022-07-05T05:16:15Z</time>
      </trkpt>
      <trkpt lat="46.48905" lon="5.35558">
        <ele>240.8</ele>
        <time>2022-07-05T05:16:20Z</time>
      </trkpt>
      <trkpt lat="46.48914" lon="5.35557">
        <ele>240.6</ele>
        <time>2022-07-05T05:16:21Z</time>
      </trkpt>
      <trkpt lat="46.4896" lon="5.35556">
        <ele>239.6</ele>
        <time>2022-07-05T05:16:27Z</time>
      </trkpt>
      <trkpt lat="46.48991" lon="5.35554">
        <ele>238.4</ele>
        <time>2022-07-05T05:16:31Z</time>
      </trkpt>
      <trkpt lat="46.49021" lon="5.35553">
        <ele>238</ele>
        <time>2022-07-05T05:16:35Z</time>
      </trkpt>
      <trkpt lat="46.49054" lon="5.35551">
        <ele>237.8</ele>
        <time>2022-07-05T05:16:40Z</time>
      </trkpt>
      <trkpt lat="46.49092" lon="5.35548">
        <ele>238.6</ele>
        <time>2022-07-05T05:16:46Z</time>
      </trkpt>
      <trkpt lat="46.49102" lon="5.35547">
        <ele>239</ele>
        <time>2022-07-05T05:16:48Z</time>
      </trkpt>
      <trkpt lat="46.49116" lon="5.35545">
        <ele>239.4</ele>
        <time>2022-07-05T05:16:51Z</time>
      </trkpt>
      <trkpt lat="46.49139" lon="5.35543">
        <ele>240</ele>
        <time>2022-07-05T05:16:55Z</time>
      </trkpt>
      <trkpt lat="46.49145" lon="5.35543">
        <ele>240.2</ele>
        <time>2022-07-05T05:16:56Z</time>
      </trkpt>
      <trkpt lat="46.49168" lon="5.35543">
        <ele>240.6</ele>
        <time>2022-07-05T05:17:00Z</time>
      </trkpt>
      <trkpt lat="46.49179" lon="5.35542">
        <ele>240.8</ele>
        <time>2022-07-05T05:17:02Z</time>
      </trkpt>
      <trkpt lat="46.49185" lon="5.35543">
        <ele>241</ele>
        <time>2022-07-05T05:17:03Z</time>
      </trkpt>
      <trkpt lat="46.49201" lon="5.3554">
        <ele>241.6</ele>
        <time>2022-07-05T05:17:06Z</time>
      </trkpt>
      <trkpt lat="46.49206" lon="5.35539">
        <ele>241.8</ele>
        <time>2022-07-05T05:17:07Z</time>
      </trkpt>
      <trkpt lat="46.49257" lon="5.35534">
        <ele>242.4</ele>
        <time>2022-07-05T05:17:15Z</time>
      </trkpt>
      <trkpt lat="46.49298" lon="5.35531">
        <ele>242.4</ele>
        <time>2022-07-05T05:17:21Z</time>
      </trkpt>
      <trkpt lat="46.4934" lon="5.35531">
        <ele>242.2</ele>
        <time>2022-07-05T05:17:27Z</time>
      </trkpt>
      <trkpt lat="46.49362" lon="5.35531">
        <ele>242</ele>
        <time>2022-07-05T05:17:30Z</time>
      </trkpt>
      <trkpt lat="46.49391" lon="5.35535">
        <ele>241.6</ele>
        <time>2022-07-05T05:17:34Z</time>
      </trkpt>
      <trkpt lat="46.49439" lon="5.35552">
        <ele>240.4</ele>
        <time>2022-07-05T05:17:41Z</time>
      </trkpt>
      <trkpt lat="46.49454" lon="5.35558">
        <ele>240.2</ele>
        <time>2022-07-05T05:17:43Z</time>
      </trkpt>
      <trkpt lat="46.49508" lon="5.35581">
        <ele>239.6</ele>
        <time>2022-07-05T05:17:51Z</time>
      </trkpt>
      <trkpt lat="46.49537" lon="5.35594">
        <ele>239.4</ele>
        <time>2022-07-05T05:17:55Z</time>
      </trkpt>
      <trkpt lat="46.49566" lon="5.35605">
        <ele>238.8</ele>
        <time>2022-07-05T05:17:59Z</time>
      </trkpt>
      <trkpt lat="46.49598" lon="5.35615">
        <ele>238.2</ele>
        <time>2022-07-05T05:18:03Z</time>
      </trkpt>
      <trkpt lat="46.49649" lon="5.35632">
        <ele>237.2</ele>
        <time>2022-07-05T05:18:10Z</time>
      </trkpt>
      <trkpt lat="46.49689" lon="5.35644">
        <ele>236.6</ele>
        <time>2022-07-05T05:18:16Z</time>
      </trkpt>
      <trkpt lat="46.49693" lon="5.35645">
        <ele>236.4</ele>
        <time>2022-07-05T05:18:17Z</time>
      </trkpt>
      <trkpt lat="46.49699" lon="5.3564">
        <ele>235.8</ele>
        <time>2022-07-05T05:18:19Z</time>
      </trkpt>
      <trkpt lat="46.49705" lon="5.3562">
        <ele>235.4</ele>
        <time>2022-07-05T05:18:22Z</time>
      </trkpt>
      <trkpt lat="46.49707" lon="5.35612">
        <ele>235.2</ele>
        <time>2022-07-05T05:18:23Z</time>
      </trkpt>
      <trkpt lat="46.49709" lon="5.35591">
        <ele>235</ele>
        <time>2022-07-05T05:18:25Z</time>
      </trkpt>
      <trkpt lat="46.49712" lon="5.35563">
        <ele>234.8</ele>
        <time>2022-07-05T05:18:28Z</time>
      </trkpt>
      <trkpt lat="46.49721" lon="5.35477">
        <ele>234.4</ele>
        <time>2022-07-05T05:18:36Z</time>
      </trkpt>
      <trkpt lat="46.49722" lon="5.35466">
        <ele>234.4</ele>
        <time>2022-07-05T05:18:37Z</time>
      </trkpt>
      <trkpt lat="46.49732" lon="5.35388">
        <ele>233.8</ele>
        <time>2022-07-05T05:18:44Z</time>
      </trkpt>
      <trkpt lat="46.49734" lon="5.35343">
        <ele>233</ele>
        <time>2022-07-05T05:18:48Z</time>
      </trkpt>
      <trkpt lat="46.49733" lon="5.35333">
        <ele>233</ele>
        <time>2022-07-05T05:18:49Z</time>
      </trkpt>
      <trkpt lat="46.49726" lon="5.35284">
        <ele>233</ele>
        <time>2022-07-05T05:18:54Z</time>
      </trkpt>
      <trkpt lat="46.49717" lon="5.35239">
        <ele>233.2</ele>
        <time>2022-07-05T05:18:59Z</time>
      </trkpt>
      <trkpt lat="46.49701" lon="5.35163">
        <ele>234</ele>
        <time>2022-07-05T05:19:08Z</time>
      </trkpt>
      <trkpt lat="46.49686" lon="5.35087">
        <ele>233.4</ele>
        <time>2022-07-05T05:19:16Z</time>
      </trkpt>
      <trkpt lat="46.49672" lon="5.35018">
        <ele>233.4</ele>
        <time>2022-07-05T05:19:24Z</time>
      </trkpt>
      <trkpt lat="46.4966" lon="5.34956">
        <ele>234.4</ele>
        <time>2022-07-05T05:19:32Z</time>
      </trkpt>
      <trkpt lat="46.49655" lon="5.34927">
        <ele>234.8</ele>
        <time>2022-07-05T05:19:36Z</time>
      </trkpt>
      <trkpt lat="46.49651" lon="5.34911">
        <ele>235.2</ele>
        <time>2022-07-05T05:19:38Z</time>
      </trkpt>
      <trkpt lat="46.49636" lon="5.34836">
        <ele>235.6</ele>
        <time>2022-07-05T05:19:47Z</time>
      </trkpt>
      <trkpt lat="46.49629" lon="5.34778">
        <ele>235.2</ele>
        <time>2022-07-05T05:19:53Z</time>
      </trkpt>
      <trkpt lat="46.4963" lon="5.34718">
        <ele>234</ele>
        <time>2022-07-05T05:19:58Z</time>
      </trkpt>
      <trkpt lat="46.49631" lon="5.34706">
        <ele>233.6</ele>
        <time>2022-07-05T05:19:59Z</time>
      </trkpt>
      <trkpt lat="46.49633" lon="5.34693">
        <ele>233.4</ele>
        <time>2022-07-05T05:20:00Z</time>
      </trkpt>
      <trkpt lat="46.49636" lon="5.3465">
        <ele>232.4</ele>
        <time>2022-07-05T05:20:03Z</time>
      </trkpt>
      <trkpt lat="46.49639" lon="5.34623">
        <ele>231.6</ele>
        <time>2022-07-05T05:20:05Z</time>
      </trkpt>
      <trkpt lat="46.49641" lon="5.34608">
        <ele>231.2</ele>
        <time>2022-07-05T05:20:06Z</time>
      </trkpt>
      <trkpt lat="46.49646" lon="5.34566">
        <ele>230</ele>
        <time>2022-07-05T05:20:09Z</time>
      </trkpt>
      <trkpt lat="46.49652" lon="5.34531">
        <ele>228.4</ele>
        <time>2022-07-05T05:20:12Z</time>
      </trkpt>
      <trkpt lat="46.49666" lon="5.34477">
        <ele>228.2</ele>
        <time>2022-07-05T05:20:17Z</time>
      </trkpt>
      <trkpt lat="46.49682" lon="5.34424">
        <ele>229</ele>
        <time>2022-07-05T05:20:23Z</time>
      </trkpt>
      <trkpt lat="46.49688" lon="5.344">
        <ele>229.6</ele>
        <time>2022-07-05T05:20:26Z</time>
      </trkpt>
      <trkpt lat="46.49695" lon="5.34377">
        <ele>230.2</ele>
        <time>2022-07-05T05:20:29Z</time>
      </trkpt>
      <trkpt lat="46.49703" lon="5.3435">
        <ele>230.8</ele>
        <time>2022-07-05T05:20:33Z</time>
      </trkpt>
      <trkpt lat="46.49705" lon="5.34343">
        <ele>231</ele>
        <time>2022-07-05T05:20:34Z</time>
      </trkpt>
      <trkpt lat="46.49716" lon="5.34318">
        <ele>232</ele>
        <time>2022-07-05T05:20:38Z</time>
      </trkpt>
      <trkpt lat="46.49725" lon="5.34295">
        <ele>232.4</ele>
        <time>2022-07-05T05:20:41Z</time>
      </trkpt>
      <trkpt lat="46.49748" lon="5.34252">
        <ele>232.8</ele>
        <time>2022-07-05T05:20:47Z</time>
      </trkpt>
      <trkpt lat="46.49753" lon="5.34244">
        <ele>232.8</ele>
        <time>2022-07-05T05:20:48Z</time>
      </trkpt>
      <trkpt lat="46.49781" lon="5.34197">
        <ele>233</ele>
        <time>2022-07-05T05:20:55Z</time>
      </trkpt>
      <trkpt lat="46.49793" lon="5.34178">
        <ele>233</ele>
        <time>2022-07-05T05:20:58Z</time>
      </trkpt>
      <trkpt lat="46.49816" lon="5.34138">
        <ele>233</ele>
        <time>2022-07-05T05:21:04Z</time>
      </trkpt>
      <trkpt lat="46.49841" lon="5.34097">
        <ele>233</ele>
        <time>2022-07-05T05:21:10Z</time>
      </trkpt>
      <trkpt lat="46.49853" lon="5.34076">
        <ele>233</ele>
        <time>2022-07-05T05:21:13Z</time>
      </trkpt>
      <trkpt lat="46.49864" lon="5.34062">
        <ele>233</ele>
        <time>2022-07-05T05:21:15Z</time>
      </trkpt>
      <trkpt lat="46.49875" lon="5.34049">
        <ele>233</ele>
        <time>2022-07-05T05:21:17Z</time>
      </trkpt>
      <trkpt lat="46.49915" lon="5.34004">
        <ele>232.8</ele>
        <time>2022-07-05T05:21:25Z</time>
      </trkpt>
      <trkpt lat="46.49941" lon="5.33974">
        <ele>233.8</ele>
        <time>2022-07-05T05:21:31Z</time>
      </trkpt>
      <trkpt lat="46.49946" lon="5.33969">
        <ele>234</ele>
        <time>2022-07-05T05:21:32Z</time>
      </trkpt>
      <trkpt lat="46.4997" lon="5.33946">
        <ele>234.4</ele>
        <time>2022-07-05T05:21:37Z</time>
      </trkpt>
      <trkpt lat="46.49985" lon="5.33931">
        <ele>235</ele>
        <time>2022-07-05T05:21:40Z</time>
      </trkpt>
      <trkpt lat="46.49995" lon="5.33921">
        <ele>235.4</ele>
        <time>2022-07-05T05:21:42Z</time>
      </trkpt>
      <trkpt lat="46.50022" lon="5.33886">
        <ele>235.6</ele>
        <time>2022-07-05T05:21:48Z</time>
      </trkpt>
      <trkpt lat="46.50031" lon="5.33875">
        <ele>235.6</ele>
        <time>2022-07-05T05:21:50Z</time>
      </trkpt>
      <trkpt lat="46.50055" lon="5.33852">
        <ele>235.4</ele>
        <time>2022-07-05T05:21:54Z</time>
      </trkpt>
      <trkpt lat="46.50093" lon="5.33811">
        <ele>234.4</ele>
        <time>2022-07-05T05:22:00Z</time>
      </trkpt>
      <trkpt lat="46.50104" lon="5.33799">
        <ele>234</ele>
        <time>2022-07-05T05:22:02Z</time>
      </trkpt>
      <trkpt lat="46.50146" lon="5.33755">
        <ele>233.2</ele>
        <time>2022-07-05T05:22:09Z</time>
      </trkpt>
      <trkpt lat="46.50179" lon="5.33721">
        <ele>233</ele>
        <time>2022-07-05T05:22:15Z</time>
      </trkpt>
      <trkpt lat="46.50217" lon="5.33682">
        <ele>233.2</ele>
        <time>2022-07-05T05:22:22Z</time>
      </trkpt>
      <trkpt lat="46.50248" lon="5.33646">
        <ele>233.2</ele>
        <time>2022-07-05T05:22:28Z</time>
      </trkpt>
      <trkpt lat="46.50288" lon="5.33604">
        <ele>233</ele>
        <time>2022-07-05T05:22:35Z</time>
      </trkpt>
      <trkpt lat="46.50299" lon="5.33592">
        <ele>232.8</ele>
        <time>2022-07-05T05:22:37Z</time>
      </trkpt>
      <trkpt lat="46.50326" lon="5.3356">
        <ele>232.4</ele>
        <time>2022-07-05T05:22:42Z</time>
      </trkpt>
      <trkpt lat="46.50357" lon="5.33528">
        <ele>231.8</ele>
        <time>2022-07-05T05:22:47Z</time>
      </trkpt>
      <trkpt lat="46.50379" lon="5.33504">
        <ele>231.6</ele>
        <time>2022-07-05T05:22:51Z</time>
      </trkpt>
      <trkpt lat="46.50397" lon="5.33486">
        <ele>231.4</ele>
        <time>2022-07-05T05:22:54Z</time>
      </trkpt>
      <trkpt lat="46.50415" lon="5.33465">
        <ele>231</ele>
        <time>2022-07-05T05:22:57Z</time>
      </trkpt>
      <trkpt lat="46.50426" lon="5.33455">
        <ele>231</ele>
        <time>2022-07-05T05:22:59Z</time>
      </trkpt>
      <trkpt lat="46.50437" lon="5.33438">
        <ele>230.6</ele>
        <time>2022-07-05T05:23:01Z</time>
      </trkpt>
      <trkpt lat="46.50443" lon="5.33429">
        <ele>230.6</ele>
        <time>2022-07-05T05:23:02Z</time>
      </trkpt>
      <trkpt lat="46.50447" lon="5.33424">
        <ele>230.4</ele>
        <time>2022-07-05T05:23:03Z</time>
      </trkpt>
      <trkpt lat="46.50456" lon="5.33403">
        <ele>230.2</ele>
        <time>2022-07-05T05:23:05Z</time>
      </trkpt>
      <trkpt lat="46.50461" lon="5.33383">
        <ele>229.8</ele>
        <time>2022-07-05T05:23:07Z</time>
      </trkpt>
      <trkpt lat="46.50464" lon="5.3337">
        <ele>229.6</ele>
        <time>2022-07-05T05:23:08Z</time>
      </trkpt>
      <trkpt lat="46.50465" lon="5.33361">
        <ele>229.4</ele>
        <time>2022-07-05T05:23:09Z</time>
      </trkpt>
      <trkpt lat="46.50466" lon="5.33347">
        <ele>229.4</ele>
        <time>2022-07-05T05:23:10Z</time>
      </trkpt>
      <trkpt lat="46.50466" lon="5.33337">
        <ele>229.4</ele>
        <time>2022-07-05T05:23:11Z</time>
      </trkpt>
      <trkpt lat="46.50467" lon="5.33326">
        <ele>229.2</ele>
        <time>2022-07-05T05:23:12Z</time>
      </trkpt>
      <trkpt lat="46.50468" lon="5.33303">
        <ele>229.2</ele>
        <time>2022-07-05T05:23:14Z</time>
      </trkpt>
      <trkpt lat="46.50468" lon="5.33261">
        <ele>229.2</ele>
        <time>2022-07-05T05:23:18Z</time>
      </trkpt>
      <trkpt lat="46.50468" lon="5.33202">
        <ele>229.6</ele>
        <time>2022-07-05T05:23:24Z</time>
      </trkpt>
      <trkpt lat="46.50468" lon="5.33184">
        <ele>229.6</ele>
        <time>2022-07-05T05:23:26Z</time>
      </trkpt>
      <trkpt lat="46.50468" lon="5.33163">
        <ele>229.6</ele>
        <time>2022-07-05T05:23:28Z</time>
      </trkpt>
      <trkpt lat="46.50469" lon="5.33111">
        <ele>229</ele>
        <time>2022-07-05T05:23:32Z</time>
      </trkpt>
      <trkpt lat="46.50471" lon="5.33058">
        <ele>228.4</ele>
        <time>2022-07-05T05:23:36Z</time>
      </trkpt>
      <trkpt lat="46.50472" lon="5.33043">
        <ele>228.2</ele>
        <time>2022-07-05T05:23:37Z</time>
      </trkpt>
      <trkpt lat="46.50472" lon="5.33014">
        <ele>227.4</ele>
        <time>2022-07-05T05:23:39Z</time>
      </trkpt>
      <trkpt lat="46.50472" lon="5.32981">
        <ele>225.8</ele>
        <time>2022-07-05T05:23:41Z</time>
      </trkpt>
      <trkpt lat="46.50473" lon="5.32951">
        <ele>225</ele>
        <time>2022-07-05T05:23:43Z</time>
      </trkpt>
      <trkpt lat="46.50473" lon="5.32936">
        <ele>224.6</ele>
        <time>2022-07-05T05:23:44Z</time>
      </trkpt>
      <trkpt lat="46.50473" lon="5.32908">
        <ele>223.4</ele>
        <time>2022-07-05T05:23:46Z</time>
      </trkpt>
      <trkpt lat="46.50474" lon="5.32873">
        <ele>222.4</ele>
        <time>2022-07-05T05:23:48Z</time>
      </trkpt>
      <trkpt lat="46.50474" lon="5.32826">
        <ele>221</ele>
        <time>2022-07-05T05:23:51Z</time>
      </trkpt>
      <trkpt lat="46.50475" lon="5.32798">
        <ele>219.8</ele>
        <time>2022-07-05T05:23:53Z</time>
      </trkpt>
      <trkpt lat="46.50476" lon="5.32751">
        <ele>218.6</ele>
        <time>2022-07-05T05:23:56Z</time>
      </trkpt>
      <trkpt lat="46.50477" lon="5.32713">
        <ele>217.6</ele>
        <time>2022-07-05T05:23:59Z</time>
      </trkpt>
      <trkpt lat="46.50477" lon="5.32697">
        <ele>217.4</ele>
        <time>2022-07-05T05:24:00Z</time>
      </trkpt>
      <trkpt lat="46.50478" lon="5.32632">
        <ele>216.6</ele>
        <time>2022-07-05T05:24:05Z</time>
      </trkpt>
      <trkpt lat="46.50477" lon="5.32593">
        <ele>215.8</ele>
        <time>2022-07-05T05:24:08Z</time>
      </trkpt>
      <trkpt lat="46.50476" lon="5.32564">
        <ele>215.4</ele>
        <time>2022-07-05T05:24:10Z</time>
      </trkpt>
      <trkpt lat="46.50471" lon="5.32472">
        <ele>214.6</ele>
        <time>2022-07-05T05:24:17Z</time>
      </trkpt>
      <trkpt lat="46.50468" lon="5.32447">
        <ele>214.4</ele>
        <time>2022-07-05T05:24:19Z</time>
      </trkpt>
      <trkpt lat="46.50453" lon="5.32363">
        <ele>213.4</ele>
        <time>2022-07-05T05:24:26Z</time>
      </trkpt>
      <trkpt lat="46.5045" lon="5.32351">
        <ele>213.4</ele>
        <time>2022-07-05T05:24:27Z</time>
      </trkpt>
      <trkpt lat="46.50435" lon="5.32273">
        <ele>213.2</ele>
        <time>2022-07-05T05:24:34Z</time>
      </trkpt>
      <trkpt lat="46.50434" lon="5.32263">
        <ele>213.2</ele>
        <time>2022-07-05T05:24:35Z</time>
      </trkpt>
      <trkpt lat="46.50433" lon="5.32194">
        <ele>213</ele>
        <time>2022-07-05T05:24:41Z</time>
      </trkpt>
      <trkpt lat="46.50436" lon="5.32111">
        <ele>212.4</ele>
        <time>2022-07-05T05:24:48Z</time>
      </trkpt>
      <trkpt lat="46.50436" lon="5.32087">
        <ele>212.2</ele>
        <time>2022-07-05T05:24:50Z</time>
      </trkpt>
      <trkpt lat="46.50437" lon="5.32051">
        <ele>211.6</ele>
        <time>2022-07-05T05:24:53Z</time>
      </trkpt>
      <trkpt lat="46.50438" lon="5.32014">
        <ele>211.2</ele>
        <time>2022-07-05T05:24:56Z</time>
      </trkpt>
      <trkpt lat="46.5044" lon="5.31934">
        <ele>210.6</ele>
        <time>2022-07-05T05:25:03Z</time>
      </trkpt>
      <trkpt lat="46.50439" lon="5.31877">
        <ele>210.2</ele>
        <time>2022-07-05T05:25:08Z</time>
      </trkpt>
      <trkpt lat="46.50438" lon="5.31864">
        <ele>210</ele>
        <time>2022-07-05T05:25:09Z</time>
      </trkpt>
      <trkpt lat="46.50436" lon="5.31856">
        <ele>210</ele>
        <time>2022-07-05T05:25:10Z</time>
      </trkpt>
      <trkpt lat="46.5042" lon="5.31783">
        <ele>209.8</ele>
        <time>2022-07-05T05:25:17Z</time>
      </trkpt>
      <trkpt lat="46.50401" lon="5.31725">
        <ele>209.6</ele>
        <time>2022-07-05T05:25:23Z</time>
      </trkpt>
      <trkpt lat="46.50371" lon="5.31672">
        <ele>209.4</ele>
        <time>2022-07-05T05:25:29Z</time>
      </trkpt>
      <trkpt lat="46.50359" lon="5.31658">
        <ele>209.2</ele>
        <time>2022-07-05T05:25:31Z</time>
      </trkpt>
      <trkpt lat="46.50352" lon="5.31652">
        <ele>209.2</ele>
        <time>2022-07-05T05:25:32Z</time>
      </trkpt>
      <trkpt lat="46.50338" lon="5.31641">
        <ele>208.8</ele>
        <time>2022-07-05T05:25:34Z</time>
      </trkpt>
      <trkpt lat="46.5029" lon="5.31604">
        <ele>208.4</ele>
        <time>2022-07-05T05:25:41Z</time>
      </trkpt>
      <trkpt lat="46.50265" lon="5.31581">
        <ele>208.4</ele>
        <time>2022-07-05T05:25:45Z</time>
      </trkpt>
      <trkpt lat="46.50242" lon="5.31555">
        <ele>208.2</ele>
        <time>2022-07-05T05:25:49Z</time>
      </trkpt>
      <trkpt lat="46.50232" lon="5.3154">
        <ele>208.2</ele>
        <time>2022-07-05T05:25:51Z</time>
      </trkpt>
      <trkpt lat="46.50214" lon="5.31502">
        <ele>208.6</ele>
        <time>2022-07-05T05:25:56Z</time>
      </trkpt>
      <trkpt lat="46.50204" lon="5.31472">
        <ele>209.2</ele>
        <time>2022-07-05T05:26:00Z</time>
      </trkpt>
      <trkpt lat="46.50197" lon="5.31452">
        <ele>210.2</ele>
        <time>2022-07-05T05:26:03Z</time>
      </trkpt>
      <trkpt lat="46.50194" lon="5.31446">
        <ele>210.6</ele>
        <time>2022-07-05T05:26:04Z</time>
      </trkpt>
      <trkpt lat="46.50183" lon="5.31415">
        <ele>211.8</ele>
        <time>2022-07-05T05:26:09Z</time>
      </trkpt>
      <trkpt lat="46.50177" lon="5.31397">
        <ele>212.4</ele>
        <time>2022-07-05T05:26:12Z</time>
      </trkpt>
      <trkpt lat="46.50174" lon="5.31386">
        <ele>213</ele>
        <time>2022-07-05T05:26:14Z</time>
      </trkpt>
      <trkpt lat="46.50164" lon="5.31354">
        <ele>214</ele>
        <time>2022-07-05T05:26:19Z</time>
      </trkpt>
      <trkpt lat="46.50162" lon="5.31348">
        <ele>214.4</ele>
        <time>2022-07-05T05:26:20Z</time>
      </trkpt>
      <trkpt lat="46.50144" lon="5.31293">
        <ele>215.4</ele>
        <time>2022-07-05T05:26:28Z</time>
      </trkpt>
      <trkpt lat="46.50141" lon="5.31285">
        <ele>215.8</ele>
        <time>2022-07-05T05:26:29Z</time>
      </trkpt>
      <trkpt lat="46.50122" lon="5.31228">
        <ele>216</ele>
        <time>2022-07-05T05:26:36Z</time>
      </trkpt>
      <trkpt lat="46.50102" lon="5.31171">
        <ele>215.2</ele>
        <time>2022-07-05T05:26:42Z</time>
      </trkpt>
      <trkpt lat="46.50085" lon="5.3112">
        <ele>214.4</ele>
        <time>2022-07-05T05:26:47Z</time>
      </trkpt>
      <trkpt lat="46.50081" lon="5.3111">
        <ele>214.2</ele>
        <time>2022-07-05T05:26:48Z</time>
      </trkpt>
      <trkpt lat="46.50063" lon="5.31057">
        <ele>214</ele>
        <time>2022-07-05T05:26:54Z</time>
      </trkpt>
      <trkpt lat="46.50049" lon="5.31016">
        <ele>215</ele>
        <time>2022-07-05T05:27:00Z</time>
      </trkpt>
      <trkpt lat="46.50047" lon="5.3101">
        <ele>215.4</ele>
        <time>2022-07-05T05:27:01Z</time>
      </trkpt>
      <trkpt lat="46.50038" lon="5.30987">
        <ele>216.4</ele>
        <time>2022-07-05T05:27:05Z</time>
      </trkpt>
      <trkpt lat="46.50036" lon="5.30982">
        <ele>216.8</ele>
        <time>2022-07-05T05:27:06Z</time>
      </trkpt>
      <trkpt lat="46.5003" lon="5.30966">
        <ele>217.6</ele>
        <time>2022-07-05T05:27:09Z</time>
      </trkpt>
      <trkpt lat="46.50019" lon="5.30938">
        <ele>218.6</ele>
        <time>2022-07-05T05:27:14Z</time>
      </trkpt>
      <trkpt lat="46.50011" lon="5.30911">
        <ele>219.6</ele>
        <time>2022-07-05T05:27:19Z</time>
      </trkpt>
      <trkpt lat="46.50005" lon="5.30894">
        <ele>220.8</ele>
        <time>2022-07-05T05:27:22Z</time>
      </trkpt>
      <trkpt lat="46.50002" lon="5.30883">
        <ele>221.2</ele>
        <time>2022-07-05T05:27:24Z</time>
      </trkpt>
      <trkpt lat="46.49995" lon="5.30867">
        <ele>222</ele>
        <time>2022-07-05T05:27:27Z</time>
      </trkpt>
      <trkpt lat="46.49985" lon="5.3084">
        <ele>223</ele>
        <time>2022-07-05T05:27:32Z</time>
      </trkpt>
      <trkpt lat="46.49975" lon="5.30809">
        <ele>224</ele>
        <time>2022-07-05T05:27:37Z</time>
      </trkpt>
      <trkpt lat="46.49971" lon="5.30789">
        <ele>224.4</ele>
        <time>2022-07-05T05:27:40Z</time>
      </trkpt>
      <trkpt lat="46.49966" lon="5.30769">
        <ele>225</ele>
        <time>2022-07-05T05:27:43Z</time>
      </trkpt>
      <trkpt lat="46.4996" lon="5.30735">
        <ele>225.4</ele>
        <time>2022-07-05T05:27:48Z</time>
      </trkpt>
      <trkpt lat="46.4995" lon="5.30678">
        <ele>226</ele>
        <time>2022-07-05T05:27:55Z</time>
      </trkpt>
      <trkpt lat="46.49939" lon="5.30619">
        <ele>225.4</ele>
        <time>2022-07-05T05:28:01Z</time>
      </trkpt>
      <trkpt lat="46.49935" lon="5.30572">
        <ele>224.6</ele>
        <time>2022-07-05T05:28:05Z</time>
      </trkpt>
      <trkpt lat="46.49935" lon="5.30561">
        <ele>224.2</ele>
        <time>2022-07-05T05:28:06Z</time>
      </trkpt>
      <trkpt lat="46.49936" lon="5.30549">
        <ele>223.8</ele>
        <time>2022-07-05T05:28:07Z</time>
      </trkpt>
      <trkpt lat="46.49937" lon="5.30536">
        <ele>223</ele>
        <time>2022-07-05T05:28:08Z</time>
      </trkpt>
      <trkpt lat="46.49942" lon="5.30512">
        <ele>222.4</ele>
        <time>2022-07-05T05:28:10Z</time>
      </trkpt>
      <trkpt lat="46.49945" lon="5.30501">
        <ele>222.2</ele>
        <time>2022-07-05T05:28:11Z</time>
      </trkpt>
      <trkpt lat="46.49949" lon="5.30489">
        <ele>221.8</ele>
        <time>2022-07-05T05:28:12Z</time>
      </trkpt>
      <trkpt lat="46.49959" lon="5.30468">
        <ele>221.2</ele>
        <time>2022-07-05T05:28:14Z</time>
      </trkpt>
      <trkpt lat="46.49966" lon="5.30459">
        <ele>220.8</ele>
        <time>2022-07-05T05:28:15Z</time>
      </trkpt>
      <trkpt lat="46.49973" lon="5.30451">
        <ele>220.6</ele>
        <time>2022-07-05T05:28:16Z</time>
      </trkpt>
      <trkpt lat="46.49996" lon="5.30429">
        <ele>219.4</ele>
        <time>2022-07-05T05:28:19Z</time>
      </trkpt>
      <trkpt lat="46.50036" lon="5.30397">
        <ele>218.2</ele>
        <time>2022-07-05T05:28:24Z</time>
      </trkpt>
      <trkpt lat="46.50043" lon="5.3039">
        <ele>217.8</ele>
        <time>2022-07-05T05:28:25Z</time>
      </trkpt>
      <trkpt lat="46.50062" lon="5.30365">
        <ele>217.2</ele>
        <time>2022-07-05T05:28:28Z</time>
      </trkpt>
      <trkpt lat="46.50067" lon="5.30356">
        <ele>217</ele>
        <time>2022-07-05T05:28:29Z</time>
      </trkpt>
      <trkpt lat="46.50079" lon="5.30328">
        <ele>217</ele>
        <time>2022-07-05T05:28:32Z</time>
      </trkpt>
      <trkpt lat="46.50084" lon="5.30309">
        <ele>217</ele>
        <time>2022-07-05T05:28:34Z</time>
      </trkpt>
      <trkpt lat="46.50089" lon="5.30261">
        <ele>217.6</ele>
        <time>2022-07-05T05:28:39Z</time>
      </trkpt>
      <trkpt lat="46.5009" lon="5.30232">
        <ele>218.4</ele>
        <time>2022-07-05T05:28:42Z</time>
      </trkpt>
      <trkpt lat="46.50092" lon="5.30204">
        <ele>218.6</ele>
        <time>2022-07-05T05:28:45Z</time>
      </trkpt>
      <trkpt lat="46.50093" lon="5.30194">
        <ele>218.8</ele>
        <time>2022-07-05T05:28:46Z</time>
      </trkpt>
      <trkpt lat="46.50094" lon="5.30184">
        <ele>219</ele>
        <time>2022-07-05T05:28:47Z</time>
      </trkpt>
      <trkpt lat="46.50094" lon="5.30155">
        <ele>219.4</ele>
        <time>2022-07-05T05:28:50Z</time>
      </trkpt>
      <trkpt lat="46.50094" lon="5.30146">
        <ele>219.6</ele>
        <time>2022-07-05T05:28:51Z</time>
      </trkpt>
      <trkpt lat="46.50094" lon="5.30119">
        <ele>219.8</ele>
        <time>2022-07-05T05:28:54Z</time>
      </trkpt>
      <trkpt lat="46.50095" lon="5.30101">
        <ele>220</ele>
        <time>2022-07-05T05:28:56Z</time>
      </trkpt>
      <trkpt lat="46.50094" lon="5.30056">
        <ele>220.4</ele>
        <time>2022-07-05T05:29:01Z</time>
      </trkpt>
      <trkpt lat="46.50093" lon="5.30047">
        <ele>220.4</ele>
        <time>2022-07-05T05:29:02Z</time>
      </trkpt>
      <trkpt lat="46.50085" lon="5.29981">
        <ele>221</ele>
        <time>2022-07-05T05:29:09Z</time>
      </trkpt>
      <trkpt lat="46.50067" lon="5.29927">
        <ele>220.8</ele>
        <time>2022-07-05T05:29:15Z</time>
      </trkpt>
      <trkpt lat="46.50054" lon="5.29904">
        <ele>220.4</ele>
        <time>2022-07-05T05:29:18Z</time>
      </trkpt>
      <trkpt lat="46.50043" lon="5.2989">
        <ele>220.2</ele>
        <time>2022-07-05T05:29:20Z</time>
      </trkpt>
      <trkpt lat="46.50026" lon="5.29872">
        <ele>219.8</ele>
        <time>2022-07-05T05:29:23Z</time>
      </trkpt>
      <trkpt lat="46.50022" lon="5.29865">
        <ele>219.8</ele>
        <time>2022-07-05T05:29:24Z</time>
      </trkpt>
      <trkpt lat="46.50021" lon="5.29848">
        <ele>219.4</ele>
        <time>2022-07-05T05:29:25Z</time>
      </trkpt>
      <trkpt lat="46.50021" lon="5.29848">
        <ele>219.2</ele>
        <time>2022-07-05T05:29:26Z</time>
      </trkpt>
      <trkpt lat="46.50024" lon="5.29841">
        <ele>219.2</ele>
        <time>2022-07-05T05:29:27Z</time>
      </trkpt>
      <trkpt lat="46.50034" lon="5.29826">
        <ele>219</ele>
        <time>2022-07-05T05:29:29Z</time>
      </trkpt>
      <trkpt lat="46.50051" lon="5.29808">
        <ele>218.8</ele>
        <time>2022-07-05T05:29:32Z</time>
      </trkpt>
      <trkpt lat="46.50063" lon="5.29801">
        <ele>218.8</ele>
        <time>2022-07-05T05:29:34Z</time>
      </trkpt>
      <trkpt lat="46.50093" lon="5.29789">
        <ele>219.2</ele>
        <time>2022-07-05T05:29:39Z</time>
      </trkpt>
      <trkpt lat="46.50131" lon="5.29777">
        <ele>220.4</ele>
        <time>2022-07-05T05:29:46Z</time>
      </trkpt>
      <trkpt lat="46.50151" lon="5.2977">
        <ele>221.6</ele>
        <time>2022-07-05T05:29:50Z</time>
      </trkpt>
      <trkpt lat="46.50177" lon="5.29767">
        <ele>222.6</ele>
        <time>2022-07-05T05:29:55Z</time>
      </trkpt>
      <trkpt lat="46.5021" lon="5.29768">
        <ele>223.8</ele>
        <time>2022-07-05T05:30:01Z</time>
      </trkpt>
      <trkpt lat="46.50221" lon="5.29768">
        <ele>224</ele>
        <time>2022-07-05T05:30:03Z</time>
      </trkpt>
      <trkpt lat="46.50261" lon="5.29762">
        <ele>224.2</ele>
        <time>2022-07-05T05:30:10Z</time>
      </trkpt>
      <trkpt lat="46.5031" lon="5.29743">
        <ele>224.6</ele>
        <time>2022-07-05T05:30:18Z</time>
      </trkpt>
      <trkpt lat="46.50321" lon="5.29738">
        <ele>224.8</ele>
        <time>2022-07-05T05:30:20Z</time>
      </trkpt>
      <trkpt lat="46.50359" lon="5.29724">
        <ele>225.2</ele>
        <time>2022-07-05T05:30:27Z</time>
      </trkpt>
      <trkpt lat="46.50408" lon="5.29696">
        <ele>225.6</ele>
        <time>2022-07-05T05:30:37Z</time>
      </trkpt>
      <trkpt lat="46.5046" lon="5.29659">
        <ele>225.4</ele>
        <time>2022-07-05T05:30:45Z</time>
      </trkpt>
      <trkpt lat="46.50514" lon="5.29622">
        <ele>225.2</ele>
        <time>2022-07-05T05:30:54Z</time>
      </trkpt>
      <trkpt lat="46.50566" lon="5.29583">
        <ele>225</ele>
        <time>2022-07-05T05:31:03Z</time>
      </trkpt>
      <trkpt lat="46.50571" lon="5.29578">
        <ele>225</ele>
        <time>2022-07-05T05:31:04Z</time>
      </trkpt>
      <trkpt lat="46.50624" lon="5.29537">
        <ele>225</ele>
        <time>2022-07-05T05:31:13Z</time>
      </trkpt>
      <trkpt lat="46.50643" lon="5.29526">
        <ele>224.8</ele>
        <time>2022-07-05T05:31:16Z</time>
      </trkpt>
      <trkpt lat="46.50656" lon="5.29524">
        <ele>224.6</ele>
        <time>2022-07-05T05:31:18Z</time>
      </trkpt>
      <trkpt lat="46.50671" lon="5.29526">
        <ele>224.6</ele>
        <time>2022-07-05T05:31:20Z</time>
      </trkpt>
      <trkpt lat="46.50686" lon="5.29531">
        <ele>224.2</ele>
        <time>2022-07-05T05:31:22Z</time>
      </trkpt>
      <trkpt lat="46.50693" lon="5.29535">
        <ele>224.2</ele>
        <time>2022-07-05T05:31:23Z</time>
      </trkpt>
      <trkpt lat="46.50722" lon="5.29549">
        <ele>223.8</ele>
        <time>2022-07-05T05:31:27Z</time>
      </trkpt>
      <trkpt lat="46.50754" lon="5.29561">
        <ele>222.6</ele>
        <time>2022-07-05T05:31:31Z</time>
      </trkpt>
      <trkpt lat="46.50798" lon="5.29566">
        <ele>221.4</ele>
        <time>2022-07-05T05:31:36Z</time>
      </trkpt>
      <trkpt lat="46.50808" lon="5.29566">
        <ele>221.2</ele>
        <time>2022-07-05T05:31:37Z</time>
      </trkpt>
      <trkpt lat="46.50827" lon="5.29567">
        <ele>220.4</ele>
        <time>2022-07-05T05:31:39Z</time>
      </trkpt>
      <trkpt lat="46.50855" lon="5.2957">
        <ele>218.8</ele>
        <time>2022-07-05T05:31:42Z</time>
      </trkpt>
      <trkpt lat="46.50884" lon="5.29572">
        <ele>217.4</ele>
        <time>2022-07-05T05:31:45Z</time>
      </trkpt>
      <trkpt lat="46.50894" lon="5.2957">
        <ele>217.2</ele>
        <time>2022-07-05T05:31:46Z</time>
      </trkpt>
      <trkpt lat="46.50914" lon="5.29563">
        <ele>216.4</ele>
        <time>2022-07-05T05:31:48Z</time>
      </trkpt>
      <trkpt lat="46.50924" lon="5.29557">
        <ele>215.6</ele>
        <time>2022-07-05T05:31:49Z</time>
      </trkpt>
      <trkpt lat="46.50934" lon="5.29551">
        <ele>215.2</ele>
        <time>2022-07-05T05:31:50Z</time>
      </trkpt>
      <trkpt lat="46.50963" lon="5.29529">
        <ele>213.8</ele>
        <time>2022-07-05T05:31:53Z</time>
      </trkpt>
      <trkpt lat="46.50972" lon="5.29521">
        <ele>213</ele>
        <time>2022-07-05T05:31:54Z</time>
      </trkpt>
      <trkpt lat="46.50982" lon="5.29512">
        <ele>212.4</ele>
        <time>2022-07-05T05:31:55Z</time>
      </trkpt>
      <trkpt lat="46.51002" lon="5.29496">
        <ele>211</ele>
        <time>2022-07-05T05:31:57Z</time>
      </trkpt>
      <trkpt lat="46.51022" lon="5.2948">
        <ele>209.6</ele>
        <time>2022-07-05T05:31:59Z</time>
      </trkpt>
      <trkpt lat="46.51022" lon="5.2948">
        <ele>208.6</ele>
        <time>2022-07-05T05:32:00Z</time>
      </trkpt>
      <trkpt lat="46.51042" lon="5.29465">
        <ele>207.6</ele>
        <time>2022-07-05T05:32:01Z</time>
      </trkpt>
      <trkpt lat="46.51062" lon="5.29452">
        <ele>206.2</ele>
        <time>2022-07-05T05:32:03Z</time>
      </trkpt>
      <trkpt lat="46.51092" lon="5.29439">
        <ele>205</ele>
        <time>2022-07-05T05:32:06Z</time>
      </trkpt>
      <trkpt lat="46.51101" lon="5.29436">
        <ele>204</ele>
        <time>2022-07-05T05:32:07Z</time>
      </trkpt>
      <trkpt lat="46.5113" lon="5.29427">
        <ele>203</ele>
        <time>2022-07-05T05:32:10Z</time>
      </trkpt>
      <trkpt lat="46.51156" lon="5.2942">
        <ele>202.6</ele>
        <time>2022-07-05T05:32:13Z</time>
      </trkpt>
      <trkpt lat="46.51199" lon="5.29409">
        <ele>201.8</ele>
        <time>2022-07-05T05:32:18Z</time>
      </trkpt>
      <trkpt lat="46.51224" lon="5.29403">
        <ele>201.4</ele>
        <time>2022-07-05T05:32:21Z</time>
      </trkpt>
      <trkpt lat="46.51287" lon="5.29384">
        <ele>200.8</ele>
        <time>2022-07-05T05:32:29Z</time>
      </trkpt>
      <trkpt lat="46.51337" lon="5.29355">
        <ele>200.4</ele>
        <time>2022-07-05T05:32:36Z</time>
      </trkpt>
      <trkpt lat="46.51357" lon="5.29341">
        <ele>200.4</ele>
        <time>2022-07-05T05:32:39Z</time>
      </trkpt>
      <trkpt lat="46.51368" lon="5.29328">
        <ele>200.4</ele>
        <time>2022-07-05T05:32:41Z</time>
      </trkpt>
      <trkpt lat="46.5139" lon="5.29288">
        <ele>200.4</ele>
        <time>2022-07-05T05:32:47Z</time>
      </trkpt>
      <trkpt lat="46.51399" lon="5.29273">
        <ele>200.4</ele>
        <time>2022-07-05T05:32:48Z</time>
      </trkpt>
      <trkpt lat="46.51418" lon="5.29244">
        <ele>200.6</ele>
        <time>2022-07-05T05:32:52Z</time>
      </trkpt>
      <trkpt lat="46.51444" lon="5.29198">
        <ele>200.8</ele>
        <time>2022-07-05T05:32:58Z</time>
      </trkpt>
      <trkpt lat="46.51456" lon="5.29138">
        <ele>200.8</ele>
        <time>2022-07-05T05:33:04Z</time>
      </trkpt>
      <trkpt lat="46.5147" lon="5.29055">
        <ele>200.2</ele>
        <time>2022-07-05T05:33:12Z</time>
      </trkpt>
      <trkpt lat="46.51478" lon="5.29013">
        <ele>199.8</ele>
        <time>2022-07-05T05:33:16Z</time>
      </trkpt>
      <trkpt lat="46.51482" lon="5.28992">
        <ele>199.6</ele>
        <time>2022-07-05T05:33:18Z</time>
      </trkpt>
      <trkpt lat="46.51491" lon="5.28939">
        <ele>199</ele>
        <time>2022-07-05T05:33:23Z</time>
      </trkpt>
      <trkpt lat="46.515" lon="5.28886">
        <ele>198.4</ele>
        <time>2022-07-05T05:33:28Z</time>
      </trkpt>
      <trkpt lat="46.51507" lon="5.28845">
        <ele>197.8</ele>
        <time>2022-07-05T05:33:32Z</time>
      </trkpt>
      <trkpt lat="46.51511" lon="5.28815">
        <ele>197.8</ele>
        <time>2022-07-05T05:33:35Z</time>
      </trkpt>
      <trkpt lat="46.51511" lon="5.28795">
        <ele>197.8</ele>
        <time>2022-07-05T05:33:37Z</time>
      </trkpt>
      <trkpt lat="46.515" lon="5.28728">
        <ele>198.2</ele>
        <time>2022-07-05T05:33:44Z</time>
      </trkpt>
      <trkpt lat="46.51482" lon="5.28669">
        <ele>198.4</ele>
        <time>2022-07-05T05:33:50Z</time>
      </trkpt>
      <trkpt lat="46.51457" lon="5.28594">
        <ele>197.8</ele>
        <time>2022-07-05T05:33:58Z</time>
      </trkpt>
      <trkpt lat="46.51434" lon="5.28522">
        <ele>197.8</ele>
        <time>2022-07-05T05:34:06Z</time>
      </trkpt>
      <trkpt lat="46.51431" lon="5.28513">
        <ele>197.8</ele>
        <time>2022-07-05T05:34:07Z</time>
      </trkpt>
      <trkpt lat="46.51421" lon="5.28477">
        <ele>198.4</ele>
        <time>2022-07-05T05:34:11Z</time>
      </trkpt>
      <trkpt lat="46.5142" lon="5.28468">
        <ele>198.2</ele>
        <time>2022-07-05T05:34:12Z</time>
      </trkpt>
      <trkpt lat="46.51421" lon="5.28458">
        <ele>198.4</ele>
        <time>2022-07-05T05:34:13Z</time>
      </trkpt>
      <trkpt lat="46.51424" lon="5.28441">
        <ele>198.6</ele>
        <time>2022-07-05T05:34:15Z</time>
      </trkpt>
      <trkpt lat="46.51426" lon="5.28433">
        <ele>198.8</ele>
        <time>2022-07-05T05:34:16Z</time>
      </trkpt>
      <trkpt lat="46.51436" lon="5.28412">
        <ele>198.8</ele>
        <time>2022-07-05T05:34:19Z</time>
      </trkpt>
      <trkpt lat="46.51443" lon="5.284">
        <ele>199.2</ele>
        <time>2022-07-05T05:34:21Z</time>
      </trkpt>
      <trkpt lat="46.51449" lon="5.28388">
        <ele>199.4</ele>
        <time>2022-07-05T05:34:23Z</time>
      </trkpt>
      <trkpt lat="46.51464" lon="5.28359">
        <ele>200.2</ele>
        <time>2022-07-05T05:34:28Z</time>
      </trkpt>
      <trkpt lat="46.51467" lon="5.28354">
        <ele>200.8</ele>
        <time>2022-07-05T05:34:29Z</time>
      </trkpt>
      <trkpt lat="46.51482" lon="5.28326">
        <ele>201.8</ele>
        <time>2022-07-05T05:34:34Z</time>
      </trkpt>
      <trkpt lat="46.51485" lon="5.2832">
        <ele>201.8</ele>
        <time>2022-07-05T05:34:35Z</time>
      </trkpt>
      <trkpt lat="46.51496" lon="5.28297">
        <ele>202.8</ele>
        <time>2022-07-05T05:34:39Z</time>
      </trkpt>
      <trkpt lat="46.51511" lon="5.28267">
        <ele>203.6</ele>
        <time>2022-07-05T05:34:44Z</time>
      </trkpt>
      <trkpt lat="46.51517" lon="5.28256">
        <ele>204</ele>
        <time>2022-07-05T05:34:46Z</time>
      </trkpt>
      <trkpt lat="46.51528" lon="5.28231">
        <ele>204.8</ele>
        <time>2022-07-05T05:34:50Z</time>
      </trkpt>
      <trkpt lat="46.51531" lon="5.28225">
        <ele>204.8</ele>
        <time>2022-07-05T05:34:51Z</time>
      </trkpt>
      <trkpt lat="46.51533" lon="5.28219">
        <ele>205</ele>
        <time>2022-07-05T05:34:52Z</time>
      </trkpt>
      <trkpt lat="46.51545" lon="5.28191">
        <ele>206.4</ele>
        <time>2022-07-05T05:34:57Z</time>
      </trkpt>
      <trkpt lat="46.5155" lon="5.28179">
        <ele>206.8</ele>
        <time>2022-07-05T05:34:59Z</time>
      </trkpt>
      <trkpt lat="46.51556" lon="5.2816">
        <ele>207.4</ele>
        <time>2022-07-05T05:35:02Z</time>
      </trkpt>
      <trkpt lat="46.51564" lon="5.28135">
        <ele>208.4</ele>
        <time>2022-07-05T05:35:06Z</time>
      </trkpt>
      <trkpt lat="46.51567" lon="5.28122">
        <ele>208.8</ele>
        <time>2022-07-05T05:35:08Z</time>
      </trkpt>
      <trkpt lat="46.51572" lon="5.28104">
        <ele>209.4</ele>
        <time>2022-07-05T05:35:11Z</time>
      </trkpt>
      <trkpt lat="46.5158" lon="5.28081">
        <ele>210</ele>
        <time>2022-07-05T05:35:15Z</time>
      </trkpt>
      <trkpt lat="46.51584" lon="5.28068">
        <ele>210.6</ele>
        <time>2022-07-05T05:35:17Z</time>
      </trkpt>
      <trkpt lat="46.51597" lon="5.28032">
        <ele>211.6</ele>
        <time>2022-07-05T05:35:23Z</time>
      </trkpt>
      <trkpt lat="46.51614" lon="5.28002">
        <ele>212.8</ele>
        <time>2022-07-05T05:35:29Z</time>
      </trkpt>
      <trkpt lat="46.51621" lon="5.27994">
        <ele>213.2</ele>
        <time>2022-07-05T05:35:31Z</time>
      </trkpt>
      <trkpt lat="46.51633" lon="5.27981">
        <ele>213.8</ele>
        <time>2022-07-05T05:35:34Z</time>
      </trkpt>
      <trkpt lat="46.51651" lon="5.27962">
        <ele>214</ele>
        <time>2022-07-05T05:35:38Z</time>
      </trkpt>
      <trkpt lat="46.51692" lon="5.2792">
        <ele>214</ele>
        <time>2022-07-05T05:35:46Z</time>
      </trkpt>
      <trkpt lat="46.51737" lon="5.27874">
        <ele>213.2</ele>
        <time>2022-07-05T05:35:54Z</time>
      </trkpt>
      <trkpt lat="46.51756" lon="5.27854">
        <ele>212.6</ele>
        <time>2022-07-05T05:35:57Z</time>
      </trkpt>
      <trkpt lat="46.51783" lon="5.27826">
        <ele>212</ele>
        <time>2022-07-05T05:36:01Z</time>
      </trkpt>
      <trkpt lat="46.51797" lon="5.27812">
        <ele>211.4</ele>
        <time>2022-07-05T05:36:03Z</time>
      </trkpt>
      <trkpt lat="46.51818" lon="5.27791">
        <ele>210.2</ele>
        <time>2022-07-05T05:36:06Z</time>
      </trkpt>
      <trkpt lat="46.51846" lon="5.2776">
        <ele>209</ele>
        <time>2022-07-05T05:36:10Z</time>
      </trkpt>
      <trkpt lat="46.51854" lon="5.27753">
        <ele>208.8</ele>
        <time>2022-07-05T05:36:11Z</time>
      </trkpt>
      <trkpt lat="46.51868" lon="5.27738">
        <ele>208</ele>
        <time>2022-07-05T05:36:13Z</time>
      </trkpt>
      <trkpt lat="46.51892" lon="5.27713">
        <ele>206.8</ele>
        <time>2022-07-05T05:36:16Z</time>
      </trkpt>
      <trkpt lat="46.51913" lon="5.27691">
        <ele>205.8</ele>
        <time>2022-07-05T05:36:19Z</time>
      </trkpt>
      <trkpt lat="46.51935" lon="5.27666">
        <ele>204.4</ele>
        <time>2022-07-05T05:36:22Z</time>
      </trkpt>
      <trkpt lat="46.51956" lon="5.27639">
        <ele>203.2</ele>
        <time>2022-07-05T05:36:25Z</time>
      </trkpt>
      <trkpt lat="46.5197" lon="5.27621">
        <ele>202.2</ele>
        <time>2022-07-05T05:36:27Z</time>
      </trkpt>
      <trkpt lat="46.5199" lon="5.27595">
        <ele>201.4</ele>
        <time>2022-07-05T05:36:30Z</time>
      </trkpt>
      <trkpt lat="46.51996" lon="5.27586">
        <ele>200.8</ele>
        <time>2022-07-05T05:36:31Z</time>
      </trkpt>
      <trkpt lat="46.52027" lon="5.27547">
        <ele>200.4</ele>
        <time>2022-07-05T05:36:36Z</time>
      </trkpt>
      <trkpt lat="46.52048" lon="5.27519">
        <ele>200.4</ele>
        <time>2022-07-05T05:36:40Z</time>
      </trkpt>
      <trkpt lat="46.52058" lon="5.27507">
        <ele>200.4</ele>
        <time>2022-07-05T05:36:42Z</time>
      </trkpt>
      <trkpt lat="46.52081" lon="5.27479">
        <ele>201.2</ele>
        <time>2022-07-05T05:36:47Z</time>
      </trkpt>
      <trkpt lat="46.52101" lon="5.27452">
        <ele>202</ele>
        <time>2022-07-05T05:36:52Z</time>
      </trkpt>
      <trkpt lat="46.52108" lon="5.2744">
        <ele>202.2</ele>
        <time>2022-07-05T05:36:54Z</time>
      </trkpt>
      <trkpt lat="46.52114" lon="5.27429">
        <ele>202.6</ele>
        <time>2022-07-05T05:36:56Z</time>
      </trkpt>
      <trkpt lat="46.52118" lon="5.27417">
        <ele>203.2</ele>
        <time>2022-07-05T05:36:58Z</time>
      </trkpt>
      <trkpt lat="46.5212" lon="5.27411">
        <ele>203.6</ele>
        <time>2022-07-05T05:36:59Z</time>
      </trkpt>
      <trkpt lat="46.52128" lon="5.27385">
        <ele>204.2</ele>
        <time>2022-07-05T05:37:03Z</time>
      </trkpt>
      <trkpt lat="46.52128" lon="5.27379">
        <ele>204.4</ele>
        <time>2022-07-05T05:37:04Z</time>
      </trkpt>
      <trkpt lat="46.52128" lon="5.27352">
        <ele>205.4</ele>
        <time>2022-07-05T05:37:08Z</time>
      </trkpt>
      <trkpt lat="46.52127" lon="5.27347">
        <ele>205.6</ele>
        <time>2022-07-05T05:37:09Z</time>
      </trkpt>
      <trkpt lat="46.52123" lon="5.27334">
        <ele>206</ele>
        <time>2022-07-05T05:37:11Z</time>
      </trkpt>
      <trkpt lat="46.52116" lon="5.27322">
        <ele>206.4</ele>
        <time>2022-07-05T05:37:13Z</time>
      </trkpt>
      <trkpt lat="46.52113" lon="5.27318">
        <ele>206.8</ele>
        <time>2022-07-05T05:37:14Z</time>
      </trkpt>
      <trkpt lat="46.52103" lon="5.27308">
        <ele>207.4</ele>
        <time>2022-07-05T05:37:17Z</time>
      </trkpt>
      <trkpt lat="46.52099" lon="5.27304">
        <ele>207.4</ele>
        <time>2022-07-05T05:37:18Z</time>
      </trkpt>
      <trkpt lat="46.52091" lon="5.27296">
        <ele>207.8</ele>
        <time>2022-07-05T05:37:20Z</time>
      </trkpt>
      <trkpt lat="46.52086" lon="5.27293">
        <ele>208.4</ele>
        <time>2022-07-05T05:37:21Z</time>
      </trkpt>
      <trkpt lat="46.52081" lon="5.2729">
        <ele>208.6</ele>
        <time>2022-07-05T05:37:22Z</time>
      </trkpt>
      <trkpt lat="46.5206" lon="5.27274">
        <ele>209.6</ele>
        <time>2022-07-05T05:37:27Z</time>
      </trkpt>
      <trkpt lat="46.52055" lon="5.27268">
        <ele>209.8</ele>
        <time>2022-07-05T05:37:28Z</time>
      </trkpt>
      <trkpt lat="46.52039" lon="5.27247">
        <ele>210.4</ele>
        <time>2022-07-05T05:37:32Z</time>
      </trkpt>
      <trkpt lat="46.52035" lon="5.27241">
        <ele>210.8</ele>
        <time>2022-07-05T05:37:33Z</time>
      </trkpt>
      <trkpt lat="46.52029" lon="5.27228">
        <ele>211.2</ele>
        <time>2022-07-05T05:37:35Z</time>
      </trkpt>
      <trkpt lat="46.5202" lon="5.272">
        <ele>212</ele>
        <time>2022-07-05T05:37:40Z</time>
      </trkpt>
      <trkpt lat="46.52015" lon="5.27182">
        <ele>212.4</ele>
        <time>2022-07-05T05:37:43Z</time>
      </trkpt>
      <trkpt lat="46.52012" lon="5.2717">
        <ele>213</ele>
        <time>2022-07-05T05:37:45Z</time>
      </trkpt>
      <trkpt lat="46.52004" lon="5.27126">
        <ele>214.2</ele>
        <time>2022-07-05T05:37:52Z</time>
      </trkpt>
      <trkpt lat="46.51999" lon="5.27093">
        <ele>215</ele>
        <time>2022-07-05T05:37:57Z</time>
      </trkpt>
      <trkpt lat="46.51996" lon="5.27061">
        <ele>216.2</ele>
        <time>2022-07-05T05:38:02Z</time>
      </trkpt>
      <trkpt lat="46.51994" lon="5.27041">
        <ele>216.8</ele>
        <time>2022-07-05T05:38:05Z</time>
      </trkpt>
      <trkpt lat="46.51992" lon="5.27015">
        <ele>217.2</ele>
        <time>2022-07-05T05:38:09Z</time>
      </trkpt>
      <trkpt lat="46.51987" lon="5.2697">
        <ele>218.4</ele>
        <time>2022-07-05T05:38:16Z</time>
      </trkpt>
      <trkpt lat="46.51984" lon="5.26956">
        <ele>218.4</ele>
        <time>2022-07-05T05:38:18Z</time>
      </trkpt>
      <trkpt lat="46.51974" lon="5.26922">
        <ele>219.4</ele>
        <time>2022-07-05T05:38:23Z</time>
      </trkpt>
      <trkpt lat="46.51969" lon="5.26908">
        <ele>219.6</ele>
        <time>2022-07-05T05:38:25Z</time>
      </trkpt>
      <trkpt lat="46.51954" lon="5.26853">
        <ele>219.4</ele>
        <time>2022-07-05T05:38:31Z</time>
      </trkpt>
      <trkpt lat="46.51955" lon="5.26828">
        <ele>219</ele>
        <time>2022-07-05T05:38:33Z</time>
      </trkpt>
      <trkpt lat="46.51957" lon="5.26816">
        <ele>219</ele>
        <time>2022-07-05T05:38:34Z</time>
      </trkpt>
      <trkpt lat="46.51961" lon="5.26805">
        <ele>218.8</ele>
        <time>2022-07-05T05:38:35Z</time>
      </trkpt>
      <trkpt lat="46.51974" lon="5.26785">
        <ele>218</ele>
        <time>2022-07-05T05:38:37Z</time>
      </trkpt>
      <trkpt lat="46.51997" lon="5.26762">
        <ele>216.4</ele>
        <time>2022-07-05T05:38:40Z</time>
      </trkpt>
      <trkpt lat="46.52005" lon="5.26755">
        <ele>216.2</ele>
        <time>2022-07-05T05:38:41Z</time>
      </trkpt>
      <trkpt lat="46.52033" lon="5.26733">
        <ele>215.2</ele>
        <time>2022-07-05T05:38:44Z</time>
      </trkpt>
      <trkpt lat="46.52042" lon="5.26726">
        <ele>214.8</ele>
        <time>2022-07-05T05:38:45Z</time>
      </trkpt>
      <trkpt lat="46.52062" lon="5.2671">
        <ele>214.2</ele>
        <time>2022-07-05T05:38:47Z</time>
      </trkpt>
      <trkpt lat="46.5208" lon="5.26695">
        <ele>212.6</ele>
        <time>2022-07-05T05:38:49Z</time>
      </trkpt>
      <trkpt lat="46.52107" lon="5.2667">
        <ele>211.6</ele>
        <time>2022-07-05T05:38:52Z</time>
      </trkpt>
      <trkpt lat="46.52117" lon="5.26662">
        <ele>210.8</ele>
        <time>2022-07-05T05:38:53Z</time>
      </trkpt>
      <trkpt lat="46.52125" lon="5.26653">
        <ele>210.4</ele>
        <time>2022-07-05T05:38:54Z</time>
      </trkpt>
      <trkpt lat="46.52134" lon="5.26642">
        <ele>210</ele>
        <time>2022-07-05T05:38:55Z</time>
      </trkpt>
      <trkpt lat="46.52141" lon="5.26631">
        <ele>209.2</ele>
        <time>2022-07-05T05:38:56Z</time>
      </trkpt>
      <trkpt lat="46.52148" lon="5.2662">
        <ele>208.8</ele>
        <time>2022-07-05T05:38:57Z</time>
      </trkpt>
      <trkpt lat="46.52167" lon="5.26585">
        <ele>207.6</ele>
        <time>2022-07-05T05:39:00Z</time>
      </trkpt>
      <trkpt lat="46.5218" lon="5.26564">
        <ele>206.6</ele>
        <time>2022-07-05T05:39:02Z</time>
      </trkpt>
      <trkpt lat="46.52187" lon="5.26554">
        <ele>206.4</ele>
        <time>2022-07-05T05:39:03Z</time>
      </trkpt>
      <trkpt lat="46.52195" lon="5.26546">
        <ele>206</ele>
        <time>2022-07-05T05:39:04Z</time>
      </trkpt>
      <trkpt lat="46.52221" lon="5.26528">
        <ele>205.4</ele>
        <time>2022-07-05T05:39:07Z</time>
      </trkpt>
      <trkpt lat="46.5223" lon="5.26524">
        <ele>205.4</ele>
        <time>2022-07-05T05:39:08Z</time>
      </trkpt>
      <trkpt lat="46.52277" lon="5.26503">
        <ele>204.2</ele>
        <time>2022-07-05T05:39:13Z</time>
      </trkpt>
      <trkpt lat="46.52286" lon="5.26498">
        <ele>203.6</ele>
        <time>2022-07-05T05:39:14Z</time>
      </trkpt>
      <trkpt lat="46.52305" lon="5.2649">
        <ele>203</ele>
        <time>2022-07-05T05:39:16Z</time>
      </trkpt>
      <trkpt lat="46.52343" lon="5.26472">
        <ele>201.6</ele>
        <time>2022-07-05T05:39:20Z</time>
      </trkpt>
      <trkpt lat="46.52352" lon="5.26469">
        <ele>201.2</ele>
        <time>2022-07-05T05:39:21Z</time>
      </trkpt>
      <trkpt lat="46.5237" lon="5.26459">
        <ele>200.6</ele>
        <time>2022-07-05T05:39:23Z</time>
      </trkpt>
      <trkpt lat="46.52379" lon="5.26453">
        <ele>200.6</ele>
        <time>2022-07-05T05:39:24Z</time>
      </trkpt>
      <trkpt lat="46.52387" lon="5.26446">
        <ele>200</ele>
        <time>2022-07-05T05:39:25Z</time>
      </trkpt>
      <trkpt lat="46.52401" lon="5.26426">
        <ele>199.4</ele>
        <time>2022-07-05T05:39:27Z</time>
      </trkpt>
      <trkpt lat="46.52406" lon="5.26414">
        <ele>198.8</ele>
        <time>2022-07-05T05:39:28Z</time>
      </trkpt>
      <trkpt lat="46.52415" lon="5.26391">
        <ele>198.2</ele>
        <time>2022-07-05T05:39:30Z</time>
      </trkpt>
      <trkpt lat="46.52432" lon="5.26346">
        <ele>197.4</ele>
        <time>2022-07-05T05:39:34Z</time>
      </trkpt>
      <trkpt lat="46.52436" lon="5.26335">
        <ele>197.2</ele>
        <time>2022-07-05T05:39:35Z</time>
      </trkpt>
      <trkpt lat="46.52464" lon="5.2626">
        <ele>196.4</ele>
        <time>2022-07-05T05:39:42Z</time>
      </trkpt>
      <trkpt lat="46.52468" lon="5.2625">
        <ele>196.2</ele>
        <time>2022-07-05T05:39:43Z</time>
      </trkpt>
      <trkpt lat="46.52475" lon="5.2623">
        <ele>196.2</ele>
        <time>2022-07-05T05:39:45Z</time>
      </trkpt>
      <trkpt lat="46.52495" lon="5.26172">
        <ele>196</ele>
        <time>2022-07-05T05:39:51Z</time>
      </trkpt>
      <trkpt lat="46.52512" lon="5.26127">
        <ele>196</ele>
        <time>2022-07-05T05:39:56Z</time>
      </trkpt>
      <trkpt lat="46.52522" lon="5.26117">
        <ele>196</ele>
        <time>2022-07-05T05:39:58Z</time>
      </trkpt>
      <trkpt lat="46.52534" lon="5.26115">
        <ele>196.2</ele>
        <time>2022-07-05T05:40:00Z</time>
      </trkpt>
      <trkpt lat="46.52547" lon="5.26114">
        <ele>196.2</ele>
        <time>2022-07-05T05:40:02Z</time>
      </trkpt>
      <trkpt lat="46.52553" lon="5.26113">
        <ele>196.2</ele>
        <time>2022-07-05T05:40:03Z</time>
      </trkpt>
      <trkpt lat="46.52565" lon="5.26106">
        <ele>196.2</ele>
        <time>2022-07-05T05:40:05Z</time>
      </trkpt>
      <trkpt lat="46.52573" lon="5.26093">
        <ele>196.6</ele>
        <time>2022-07-05T05:40:07Z</time>
      </trkpt>
      <trkpt lat="46.52575" lon="5.26087">
        <ele>196.6</ele>
        <time>2022-07-05T05:40:08Z</time>
      </trkpt>
      <trkpt lat="46.5258" lon="5.26074">
        <ele>197</ele>
        <time>2022-07-05T05:40:10Z</time>
      </trkpt>
      <trkpt lat="46.52581" lon="5.26068">
        <ele>197.6</ele>
        <time>2022-07-05T05:40:11Z</time>
      </trkpt>
      <trkpt lat="46.52584" lon="5.26055">
        <ele>198.2</ele>
        <time>2022-07-05T05:40:13Z</time>
      </trkpt>
      <trkpt lat="46.52586" lon="5.26043">
        <ele>198.8</ele>
        <time>2022-07-05T05:40:15Z</time>
      </trkpt>
      <trkpt lat="46.5259" lon="5.26019">
        <ele>199.8</ele>
        <time>2022-07-05T05:40:19Z</time>
      </trkpt>
      <trkpt lat="46.52591" lon="5.26014">
        <ele>200.2</ele>
        <time>2022-07-05T05:40:20Z</time>
      </trkpt>
      <trkpt lat="46.52595" lon="5.25996">
        <ele>201.2</ele>
        <time>2022-07-05T05:40:23Z</time>
      </trkpt>
      <trkpt lat="46.52596" lon="5.25991">
        <ele>201.2</ele>
        <time>2022-07-05T05:40:24Z</time>
      </trkpt>
      <trkpt lat="46.526" lon="5.25981">
        <ele>201.6</ele>
        <time>2022-07-05T05:40:26Z</time>
      </trkpt>
      <trkpt lat="46.52604" lon="5.2597">
        <ele>202.4</ele>
        <time>2022-07-05T05:40:28Z</time>
      </trkpt>
      <trkpt lat="46.5261" lon="5.2596">
        <ele>202.8</ele>
        <time>2022-07-05T05:40:30Z</time>
      </trkpt>
      <trkpt lat="46.52617" lon="5.25954">
        <ele>203.2</ele>
        <time>2022-07-05T05:40:32Z</time>
      </trkpt>
      <trkpt lat="46.52629" lon="5.25948">
        <ele>204.2</ele>
        <time>2022-07-05T05:40:35Z</time>
      </trkpt>
      <trkpt lat="46.52633" lon="5.25947">
        <ele>204.6</ele>
        <time>2022-07-05T05:40:36Z</time>
      </trkpt>
      <trkpt lat="46.52642" lon="5.25946">
        <ele>205.6</ele>
        <time>2022-07-05T05:40:39Z</time>
      </trkpt>
      <trkpt lat="46.52645" lon="5.25945">
        <ele>205.8</ele>
        <time>2022-07-05T05:40:40Z</time>
      </trkpt>
      <trkpt lat="46.52651" lon="5.25944">
        <ele>206.6</ele>
        <time>2022-07-05T05:40:42Z</time>
      </trkpt>
      <trkpt lat="46.52662" lon="5.25937">
        <ele>207.8</ele>
        <time>2022-07-05T05:40:46Z</time>
      </trkpt>
      <trkpt lat="46.52674" lon="5.25916">
        <ele>208.6</ele>
        <time>2022-07-05T05:40:51Z</time>
      </trkpt>
      <trkpt lat="46.52676" lon="5.25912">
        <ele>209</ele>
        <time>2022-07-05T05:40:52Z</time>
      </trkpt>
      <trkpt lat="46.52683" lon="5.25893">
        <ele>210</ele>
        <time>2022-07-05T05:40:56Z</time>
      </trkpt>
      <trkpt lat="46.52689" lon="5.25867">
        <ele>211</ele>
        <time>2022-07-05T05:41:01Z</time>
      </trkpt>
      <trkpt lat="46.5269" lon="5.25862">
        <ele>211.4</ele>
        <time>2022-07-05T05:41:02Z</time>
      </trkpt>
      <trkpt lat="46.5269" lon="5.25842">
        <ele>212.4</ele>
        <time>2022-07-05T05:41:06Z</time>
      </trkpt>
      <trkpt lat="46.5269" lon="5.25831">
        <ele>212.6</ele>
        <time>2022-07-05T05:41:08Z</time>
      </trkpt>
      <trkpt lat="46.52691" lon="5.25804">
        <ele>213.6</ele>
        <time>2022-07-05T05:41:13Z</time>
      </trkpt>
      <trkpt lat="46.52695" lon="5.25775">
        <ele>214.6</ele>
        <time>2022-07-05T05:41:18Z</time>
      </trkpt>
      <trkpt lat="46.52704" lon="5.25745">
        <ele>215</ele>
        <time>2022-07-05T05:41:23Z</time>
      </trkpt>
      <trkpt lat="46.52709" lon="5.25725">
        <ele>215.4</ele>
        <time>2022-07-05T05:41:26Z</time>
      </trkpt>
      <trkpt lat="46.52714" lon="5.2569">
        <ele>216</ele>
        <time>2022-07-05T05:41:31Z</time>
      </trkpt>
      <trkpt lat="46.52715" lon="5.25676">
        <ele>216.2</ele>
        <time>2022-07-05T05:41:33Z</time>
      </trkpt>
      <trkpt lat="46.52719" lon="5.2561">
        <ele>216.6</ele>
        <time>2022-07-05T05:41:42Z</time>
      </trkpt>
      <trkpt lat="46.52722" lon="5.2555">
        <ele>217</ele>
        <time>2022-07-05T05:41:50Z</time>
      </trkpt>
      <trkpt lat="46.52723" lon="5.2552">
        <ele>217.2</ele>
        <time>2022-07-05T05:41:54Z</time>
      </trkpt>
      <trkpt lat="46.52724" lon="5.25489">
        <ele>217.4</ele>
        <time>2022-07-05T05:41:58Z</time>
      </trkpt>
      <trkpt lat="46.5272" lon="5.25467">
        <ele>217.8</ele>
        <time>2022-07-05T05:42:01Z</time>
      </trkpt>
      <trkpt lat="46.52712" lon="5.25447">
        <ele>218.2</ele>
        <time>2022-07-05T05:42:04Z</time>
      </trkpt>
      <trkpt lat="46.52705" lon="5.25435">
        <ele>218.2</ele>
        <time>2022-07-05T05:42:06Z</time>
      </trkpt>
      <trkpt lat="46.52676" lon="5.25394">
        <ele>219.8</ele>
        <time>2022-07-05T05:42:13Z</time>
      </trkpt>
      <trkpt lat="46.52644" lon="5.25343">
        <ele>218.8</ele>
        <time>2022-07-05T05:42:21Z</time>
      </trkpt>
      <trkpt lat="46.5263" lon="5.25305">
        <ele>219</ele>
        <time>2022-07-05T05:42:26Z</time>
      </trkpt>
      <trkpt lat="46.52626" lon="5.25288">
        <ele>219</ele>
        <time>2022-07-05T05:42:28Z</time>
      </trkpt>
      <trkpt lat="46.52621" lon="5.25232">
        <ele>219.4</ele>
        <time>2022-07-05T05:42:34Z</time>
      </trkpt>
      <trkpt lat="46.52618" lon="5.25152">
        <ele>219.4</ele>
        <time>2022-07-05T05:42:42Z</time>
      </trkpt>
      <trkpt lat="46.52615" lon="5.25073">
        <ele>219.2</ele>
        <time>2022-07-05T05:42:50Z</time>
      </trkpt>
      <trkpt lat="46.52608" lon="5.24994">
        <ele>219</ele>
        <time>2022-07-05T05:42:58Z</time>
      </trkpt>
      <trkpt lat="46.52596" lon="5.24912">
        <ele>218.2</ele>
        <time>2022-07-05T05:43:06Z</time>
      </trkpt>
      <trkpt lat="46.52594" lon="5.2489">
        <ele>218</ele>
        <time>2022-07-05T05:43:08Z</time>
      </trkpt>
      <trkpt lat="46.52591" lon="5.24806">
        <ele>218.2</ele>
        <time>2022-07-05T05:43:16Z</time>
      </trkpt>
      <trkpt lat="46.52587" lon="5.24723">
        <ele>218.2</ele>
        <time>2022-07-05T05:43:24Z</time>
      </trkpt>
      <trkpt lat="46.52585" lon="5.24673">
        <ele>218</ele>
        <time>2022-07-05T05:43:29Z</time>
      </trkpt>
      <trkpt lat="46.52583" lon="5.24653">
        <ele>218</ele>
        <time>2022-07-05T05:43:31Z</time>
      </trkpt>
      <trkpt lat="46.5257" lon="5.24607">
        <ele>218.2</ele>
        <time>2022-07-05T05:43:36Z</time>
      </trkpt>
      <trkpt lat="46.52543" lon="5.24531">
        <ele>217.6</ele>
        <time>2022-07-05T05:43:44Z</time>
      </trkpt>
      <trkpt lat="46.52536" lon="5.24511">
        <ele>217.4</ele>
        <time>2022-07-05T05:43:46Z</time>
      </trkpt>
      <trkpt lat="46.52521" lon="5.24458">
        <ele>217</ele>
        <time>2022-07-05T05:43:51Z</time>
      </trkpt>
      <trkpt lat="46.52519" lon="5.24447">
        <ele>216.8</ele>
        <time>2022-07-05T05:43:52Z</time>
      </trkpt>
      <trkpt lat="46.52507" lon="5.2437">
        <ele>216</ele>
        <time>2022-07-05T05:43:59Z</time>
      </trkpt>
      <trkpt lat="46.52504" lon="5.24349">
        <ele>215.8</ele>
        <time>2022-07-05T05:44:01Z</time>
      </trkpt>
      <trkpt lat="46.52495" lon="5.24278">
        <ele>215.6</ele>
        <time>2022-07-05T05:44:08Z</time>
      </trkpt>
      <trkpt lat="46.52485" lon="5.24205">
        <ele>215.8</ele>
        <time>2022-07-05T05:44:16Z</time>
      </trkpt>
      <trkpt lat="46.52478" lon="5.2415">
        <ele>216.4</ele>
        <time>2022-07-05T05:44:23Z</time>
      </trkpt>
      <trkpt lat="46.52477" lon="5.24143">
        <ele>216.4</ele>
        <time>2022-07-05T05:44:24Z</time>
      </trkpt>
      <trkpt lat="46.52481" lon="5.2413">
        <ele>216.8</ele>
        <time>2022-07-05T05:44:27Z</time>
      </trkpt>
      <trkpt lat="46.52483" lon="5.24125">
        <ele>217</ele>
        <time>2022-07-05T05:44:29Z</time>
      </trkpt>
      <trkpt lat="46.52483" lon="5.24116">
        <ele>217</ele>
        <time>2022-07-05T05:44:31Z</time>
      </trkpt>
      <trkpt lat="46.52482" lon="5.24103">
        <ele>217.2</ele>
        <time>2022-07-05T05:44:33Z</time>
      </trkpt>
      <trkpt lat="46.52484" lon="5.24088">
        <ele>217.2</ele>
        <time>2022-07-05T05:44:35Z</time>
      </trkpt>
      <trkpt lat="46.52492" lon="5.24036">
        <ele>217.2</ele>
        <time>2022-07-05T05:44:41Z</time>
      </trkpt>
      <trkpt lat="46.52503" lon="5.23953">
        <ele>217.2</ele>
        <time>2022-07-05T05:44:50Z</time>
      </trkpt>
      <trkpt lat="46.52504" lon="5.23943">
        <ele>217.2</ele>
        <time>2022-07-05T05:44:51Z</time>
      </trkpt>
      <trkpt lat="46.52506" lon="5.23924">
        <ele>217.2</ele>
        <time>2022-07-05T05:44:53Z</time>
      </trkpt>
      <trkpt lat="46.52505" lon="5.23885">
        <ele>217.2</ele>
        <time>2022-07-05T05:44:57Z</time>
      </trkpt>
      <trkpt lat="46.52493" lon="5.23827">
        <ele>216.8</ele>
        <time>2022-07-05T05:45:03Z</time>
      </trkpt>
      <trkpt lat="46.52472" lon="5.23749">
        <ele>216.2</ele>
        <time>2022-07-05T05:45:11Z</time>
      </trkpt>
      <trkpt lat="46.5247" lon="5.23739">
        <ele>216</ele>
        <time>2022-07-05T05:45:12Z</time>
      </trkpt>
      <trkpt lat="46.52455" lon="5.23679">
        <ele>215.8</ele>
        <time>2022-07-05T05:45:18Z</time>
      </trkpt>
      <trkpt lat="46.52445" lon="5.23639">
        <ele>215.2</ele>
        <time>2022-07-05T05:45:22Z</time>
      </trkpt>
      <trkpt lat="46.5243" lon="5.23582">
        <ele>214.8</ele>
        <time>2022-07-05T05:45:28Z</time>
      </trkpt>
      <trkpt lat="46.52423" lon="5.23554">
        <ele>214.8</ele>
        <time>2022-07-05T05:45:31Z</time>
      </trkpt>
      <trkpt lat="46.5242" lon="5.23535">
        <ele>214.8</ele>
        <time>2022-07-05T05:45:33Z</time>
      </trkpt>
      <trkpt lat="46.5242" lon="5.23515">
        <ele>215</ele>
        <time>2022-07-05T05:45:35Z</time>
      </trkpt>
      <trkpt lat="46.52423" lon="5.23497">
        <ele>215</ele>
        <time>2022-07-05T05:45:37Z</time>
      </trkpt>
      <trkpt lat="46.52428" lon="5.2348">
        <ele>215.2</ele>
        <time>2022-07-05T05:45:39Z</time>
      </trkpt>
      <trkpt lat="46.5245" lon="5.23426">
        <ele>215</ele>
        <time>2022-07-05T05:45:46Z</time>
      </trkpt>
      <trkpt lat="46.5248" lon="5.23358">
        <ele>215.6</ele>
        <time>2022-07-05T05:45:55Z</time>
      </trkpt>
      <trkpt lat="46.52484" lon="5.2335">
        <ele>215.6</ele>
        <time>2022-07-05T05:45:56Z</time>
      </trkpt>
      <trkpt lat="46.52487" lon="5.23343">
        <ele>215.8</ele>
        <time>2022-07-05T05:45:57Z</time>
      </trkpt>
      <trkpt lat="46.52518" lon="5.23272">
        <ele>216</ele>
        <time>2022-07-05T05:46:06Z</time>
      </trkpt>
      <trkpt lat="46.52537" lon="5.23221">
        <ele>215.8</ele>
        <time>2022-07-05T05:46:12Z</time>
      </trkpt>
      <trkpt lat="46.52541" lon="5.23213">
        <ele>215.8</ele>
        <time>2022-07-05T05:46:13Z</time>
      </trkpt>
      <trkpt lat="46.52572" lon="5.23145">
        <ele>215</ele>
        <time>2022-07-05T05:46:20Z</time>
      </trkpt>
      <trkpt lat="46.52575" lon="5.23134">
        <ele>214.8</ele>
        <time>2022-07-05T05:46:21Z</time>
      </trkpt>
      <trkpt lat="46.52593" lon="5.23092">
        <ele>213.4</ele>
        <time>2022-07-05T05:46:25Z</time>
      </trkpt>
      <trkpt lat="46.52605" lon="5.23058">
        <ele>212.4</ele>
        <time>2022-07-05T05:46:28Z</time>
      </trkpt>
      <trkpt lat="46.52608" lon="5.23046">
        <ele>212</ele>
        <time>2022-07-05T05:46:29Z</time>
      </trkpt>
      <trkpt lat="46.52612" lon="5.23009">
        <ele>211.2</ele>
        <time>2022-07-05T05:46:32Z</time>
      </trkpt>
      <trkpt lat="46.52613" lon="5.22995">
        <ele>210.8</ele>
        <time>2022-07-05T05:46:33Z</time>
      </trkpt>
      <trkpt lat="46.52614" lon="5.22955">
        <ele>209.6</ele>
        <time>2022-07-05T05:46:36Z</time>
      </trkpt>
      <trkpt lat="46.52615" lon="5.22914">
        <ele>209</ele>
        <time>2022-07-05T05:46:39Z</time>
      </trkpt>
      <trkpt lat="46.52615" lon="5.22887">
        <ele>208.6</ele>
        <time>2022-07-05T05:46:41Z</time>
      </trkpt>
      <trkpt lat="46.52617" lon="5.22836">
        <ele>207</ele>
        <time>2022-07-05T05:46:45Z</time>
      </trkpt>
      <trkpt lat="46.52617" lon="5.22812">
        <ele>205.8</ele>
        <time>2022-07-05T05:46:47Z</time>
      </trkpt>
      <trkpt lat="46.52618" lon="5.22799">
        <ele>205</ele>
        <time>2022-07-05T05:46:48Z</time>
      </trkpt>
      <trkpt lat="46.52618" lon="5.22787">
        <ele>204.8</ele>
        <time>2022-07-05T05:46:49Z</time>
      </trkpt>
      <trkpt lat="46.5262" lon="5.22716">
        <ele>203.6</ele>
        <time>2022-07-05T05:46:55Z</time>
      </trkpt>
      <trkpt lat="46.5262" lon="5.22704">
        <ele>203.6</ele>
        <time>2022-07-05T05:46:56Z</time>
      </trkpt>
      <trkpt lat="46.52622" lon="5.22615">
        <ele>203.2</ele>
        <time>2022-07-05T05:47:04Z</time>
      </trkpt>
      <trkpt lat="46.52623" lon="5.22583">
        <ele>203</ele>
        <time>2022-07-05T05:47:07Z</time>
      </trkpt>
      <trkpt lat="46.52627" lon="5.22515">
        <ele>202.8</ele>
        <time>2022-07-05T05:47:13Z</time>
      </trkpt>
      <trkpt lat="46.52636" lon="5.22459">
        <ele>202.6</ele>
        <time>2022-07-05T05:47:18Z</time>
      </trkpt>
      <trkpt lat="46.52639" lon="5.22448">
        <ele>202.6</ele>
        <time>2022-07-05T05:47:19Z</time>
      </trkpt>
      <trkpt lat="46.52659" lon="5.22366">
        <ele>202.2</ele>
        <time>2022-07-05T05:47:27Z</time>
      </trkpt>
      <trkpt lat="46.52675" lon="5.22301">
        <ele>202.4</ele>
        <time>2022-07-05T05:47:34Z</time>
      </trkpt>
      <trkpt lat="46.52687" lon="5.22252">
        <ele>203</ele>
        <time>2022-07-05T05:47:40Z</time>
      </trkpt>
      <trkpt lat="46.52696" lon="5.22216">
        <ele>203.8</ele>
        <time>2022-07-05T05:47:45Z</time>
      </trkpt>
      <trkpt lat="46.52699" lon="5.22202">
        <ele>204.2</ele>
        <time>2022-07-05T05:47:47Z</time>
      </trkpt>
      <trkpt lat="46.52705" lon="5.22183">
        <ele>205.2</ele>
        <time>2022-07-05T05:47:50Z</time>
      </trkpt>
      <trkpt lat="46.52709" lon="5.2217">
        <ele>205.4</ele>
        <time>2022-07-05T05:47:52Z</time>
      </trkpt>
      <trkpt lat="46.52711" lon="5.22164">
        <ele>205.6</ele>
        <time>2022-07-05T05:47:53Z</time>
      </trkpt>
      <trkpt lat="46.52716" lon="5.22146">
        <ele>206.2</ele>
        <time>2022-07-05T05:47:56Z</time>
      </trkpt>
      <trkpt lat="46.52722" lon="5.22129">
        <ele>206.8</ele>
        <time>2022-07-05T05:47:59Z</time>
      </trkpt>
      <trkpt lat="46.52725" lon="5.22118">
        <ele>207.4</ele>
        <time>2022-07-05T05:48:01Z</time>
      </trkpt>
      <trkpt lat="46.52729" lon="5.22101">
        <ele>208.6</ele>
        <time>2022-07-05T05:48:04Z</time>
      </trkpt>
      <trkpt lat="46.52731" lon="5.22095">
        <ele>208.8</ele>
        <time>2022-07-05T05:48:05Z</time>
      </trkpt>
      <trkpt lat="46.52735" lon="5.22071">
        <ele>209.6</ele>
        <time>2022-07-05T05:48:09Z</time>
      </trkpt>
      <trkpt lat="46.52736" lon="5.22065">
        <ele>209.8</ele>
        <time>2022-07-05T05:48:10Z</time>
      </trkpt>
      <trkpt lat="46.52736" lon="5.22052">
        <ele>210.4</ele>
        <time>2022-07-05T05:48:12Z</time>
      </trkpt>
      <trkpt lat="46.52736" lon="5.22045">
        <ele>210.6</ele>
        <time>2022-07-05T05:48:13Z</time>
      </trkpt>
      <trkpt lat="46.52736" lon="5.22025">
        <ele>211.4</ele>
        <time>2022-07-05T05:48:16Z</time>
      </trkpt>
      <trkpt lat="46.52734" lon="5.22012">
        <ele>211.8</ele>
        <time>2022-07-05T05:48:18Z</time>
      </trkpt>
      <trkpt lat="46.52727" lon="5.21968">
        <ele>213.2</ele>
        <time>2022-07-05T05:48:24Z</time>
      </trkpt>
      <trkpt lat="46.52726" lon="5.2196">
        <ele>213.2</ele>
        <time>2022-07-05T05:48:25Z</time>
      </trkpt>
      <trkpt lat="46.52717" lon="5.21907">
        <ele>214</ele>
        <time>2022-07-05T05:48:32Z</time>
      </trkpt>
      <trkpt lat="46.52715" lon="5.21891">
        <ele>214.2</ele>
        <time>2022-07-05T05:48:34Z</time>
      </trkpt>
      <trkpt lat="46.52703" lon="5.21818">
        <ele>214.4</ele>
        <time>2022-07-05T05:48:43Z</time>
      </trkpt>
      <trkpt lat="46.5269" lon="5.21738">
        <ele>214.6</ele>
        <time>2022-07-05T05:48:53Z</time>
      </trkpt>
      <trkpt lat="46.52688" lon="5.21721">
        <ele>214.8</ele>
        <time>2022-07-05T05:48:55Z</time>
      </trkpt>
      <trkpt lat="46.52673" lon="5.21637">
        <ele>214.8</ele>
        <time>2022-07-05T05:49:05Z</time>
      </trkpt>
      <trkpt lat="46.52661" lon="5.21564">
        <ele>214.8</ele>
        <time>2022-07-05T05:49:13Z</time>
      </trkpt>
      <trkpt lat="46.52649" lon="5.21482">
        <ele>214.6</ele>
        <time>2022-07-05T05:49:22Z</time>
      </trkpt>
      <trkpt lat="46.52644" lon="5.21454">
        <ele>214.4</ele>
        <time>2022-07-05T05:49:25Z</time>
      </trkpt>
      <trkpt lat="46.52631" lon="5.21369">
        <ele>214</ele>
        <time>2022-07-05T05:49:34Z</time>
      </trkpt>
      <trkpt lat="46.52629" lon="5.2136">
        <ele>214</ele>
        <time>2022-07-05T05:49:35Z</time>
      </trkpt>
      <trkpt lat="46.52617" lon="5.21279">
        <ele>213.4</ele>
        <time>2022-07-05T05:49:43Z</time>
      </trkpt>
      <trkpt lat="46.52613" lon="5.21258">
        <ele>213</ele>
        <time>2022-07-05T05:49:45Z</time>
      </trkpt>
      <trkpt lat="46.52608" lon="5.21226">
        <ele>212.4</ele>
        <time>2022-07-05T05:49:48Z</time>
      </trkpt>
      <trkpt lat="46.52601" lon="5.21182">
        <ele>212</ele>
        <time>2022-07-05T05:49:52Z</time>
      </trkpt>
      <trkpt lat="46.52605" lon="5.21163">
        <ele>211.8</ele>
        <time>2022-07-05T05:49:54Z</time>
      </trkpt>
      <trkpt lat="46.52617" lon="5.21156">
        <ele>211.2</ele>
        <time>2022-07-05T05:49:56Z</time>
      </trkpt>
      <trkpt lat="46.52624" lon="5.21155">
        <ele>210.8</ele>
        <time>2022-07-05T05:49:57Z</time>
      </trkpt>
      <trkpt lat="46.52655" lon="5.21148">
        <ele>209.6</ele>
        <time>2022-07-05T05:50:01Z</time>
      </trkpt>
      <trkpt lat="46.52708" lon="5.21135">
        <ele>208.8</ele>
        <time>2022-07-05T05:50:08Z</time>
      </trkpt>
      <trkpt lat="46.52724" lon="5.21131">
        <ele>208.6</ele>
        <time>2022-07-05T05:50:10Z</time>
      </trkpt>
      <trkpt lat="46.52784" lon="5.21116">
        <ele>208.2</ele>
        <time>2022-07-05T05:50:18Z</time>
      </trkpt>
      <trkpt lat="46.52792" lon="5.21114">
        <ele>208</ele>
        <time>2022-07-05T05:50:19Z</time>
      </trkpt>
      <trkpt lat="46.52848" lon="5.21099">
        <ele>207.6</ele>
        <time>2022-07-05T05:50:27Z</time>
      </trkpt>
      <trkpt lat="46.52855" lon="5.21096">
        <ele>207.6</ele>
        <time>2022-07-05T05:50:28Z</time>
      </trkpt>
      <trkpt lat="46.52905" lon="5.21071">
        <ele>207.8</ele>
        <time>2022-07-05T05:50:36Z</time>
      </trkpt>
      <trkpt lat="46.5294" lon="5.21052">
        <ele>208.2</ele>
        <time>2022-07-05T05:50:42Z</time>
      </trkpt>
      <trkpt lat="46.52959" lon="5.21043">
        <ele>208.6</ele>
        <time>2022-07-05T05:50:45Z</time>
      </trkpt>
      <trkpt lat="46.52986" lon="5.21029">
        <ele>208.6</ele>
        <time>2022-07-05T05:50:49Z</time>
      </trkpt>
      <trkpt lat="46.53035" lon="5.21002">
        <ele>208</ele>
        <time>2022-07-05T05:50:56Z</time>
      </trkpt>
      <trkpt lat="46.53049" lon="5.20994">
        <ele>207.6</ele>
        <time>2022-07-05T05:50:58Z</time>
      </trkpt>
      <trkpt lat="46.53067" lon="5.20978">
        <ele>207.4</ele>
        <time>2022-07-05T05:51:01Z</time>
      </trkpt>
      <trkpt lat="46.53097" lon="5.20935">
        <ele>207.4</ele>
        <time>2022-07-05T05:51:07Z</time>
      </trkpt>
      <trkpt lat="46.53137" lon="5.20874">
        <ele>208</ele>
        <time>2022-07-05T05:51:16Z</time>
      </trkpt>
      <trkpt lat="46.53162" lon="5.20849">
        <ele>208.8</ele>
        <time>2022-07-05T05:51:21Z</time>
      </trkpt>
      <trkpt lat="46.53167" lon="5.20845">
        <ele>208.8</ele>
        <time>2022-07-05T05:51:22Z</time>
      </trkpt>
      <trkpt lat="46.53194" lon="5.20827">
        <ele>209.8</ele>
        <time>2022-07-05T05:51:27Z</time>
      </trkpt>
      <trkpt lat="46.53201" lon="5.20825">
        <ele>209.8</ele>
        <time>2022-07-05T05:51:28Z</time>
      </trkpt>
      <trkpt lat="46.53246" lon="5.20817">
        <ele>210.4</ele>
        <time>2022-07-05T05:51:35Z</time>
      </trkpt>
      <trkpt lat="46.53285" lon="5.20802">
        <ele>210.6</ele>
        <time>2022-07-05T05:51:41Z</time>
      </trkpt>
      <trkpt lat="46.53328" lon="5.20773">
        <ele>210.6</ele>
        <time>2022-07-05T05:51:48Z</time>
      </trkpt>
      <trkpt lat="46.53361" lon="5.2074">
        <ele>210.4</ele>
        <time>2022-07-05T05:51:54Z</time>
      </trkpt>
      <trkpt lat="46.53384" lon="5.20695">
        <ele>210.2</ele>
        <time>2022-07-05T05:52:00Z</time>
      </trkpt>
      <trkpt lat="46.53416" lon="5.2062">
        <ele>210</ele>
        <time>2022-07-05T05:52:09Z</time>
      </trkpt>
      <trkpt lat="46.53421" lon="5.20612">
        <ele>210</ele>
        <time>2022-07-05T05:52:10Z</time>
      </trkpt>
      <trkpt lat="46.53456" lon="5.20562">
        <ele>209.6</ele>
        <time>2022-07-05T05:52:17Z</time>
      </trkpt>
      <trkpt lat="46.53499" lon="5.20506">
        <ele>208.6</ele>
        <time>2022-07-05T05:52:24Z</time>
      </trkpt>
      <trkpt lat="46.53529" lon="5.20465">
        <ele>207.6</ele>
        <time>2022-07-05T05:52:29Z</time>
      </trkpt>
      <trkpt lat="46.53547" lon="5.20441">
        <ele>206.6</ele>
        <time>2022-07-05T05:52:32Z</time>
      </trkpt>
      <trkpt lat="46.53565" lon="5.20418">
        <ele>206</ele>
        <time>2022-07-05T05:52:35Z</time>
      </trkpt>
      <trkpt lat="46.53596" lon="5.20377">
        <ele>205.8</ele>
        <time>2022-07-05T05:52:41Z</time>
      </trkpt>
      <trkpt lat="46.53625" lon="5.20337">
        <ele>206.4</ele>
        <time>2022-07-05T05:52:48Z</time>
      </trkpt>
      <trkpt lat="46.53649" lon="5.20297">
        <ele>207.4</ele>
        <time>2022-07-05T05:52:55Z</time>
      </trkpt>
      <trkpt lat="46.53651" lon="5.20292">
        <ele>207.6</ele>
        <time>2022-07-05T05:52:56Z</time>
      </trkpt>
      <trkpt lat="46.53665" lon="5.20268">
        <ele>208.8</ele>
        <time>2022-07-05T05:53:00Z</time>
      </trkpt>
      <trkpt lat="46.53679" lon="5.20245">
        <ele>209.4</ele>
        <time>2022-07-05T05:53:04Z</time>
      </trkpt>
      <trkpt lat="46.53696" lon="5.20214">
        <ele>210</ele>
        <time>2022-07-05T05:53:09Z</time>
      </trkpt>
      <trkpt lat="46.53708" lon="5.20196">
        <ele>210.8</ele>
        <time>2022-07-05T05:53:12Z</time>
      </trkpt>
      <trkpt lat="46.53719" lon="5.20177">
        <ele>211</ele>
        <time>2022-07-05T05:53:15Z</time>
      </trkpt>
      <trkpt lat="46.53737" lon="5.20145">
        <ele>211.4</ele>
        <time>2022-07-05T05:53:20Z</time>
      </trkpt>
      <trkpt lat="46.53772" lon="5.20084">
        <ele>211.4</ele>
        <time>2022-07-05T05:53:29Z</time>
      </trkpt>
      <trkpt lat="46.53779" lon="5.20071">
        <ele>211.4</ele>
        <time>2022-07-05T05:53:31Z</time>
      </trkpt>
      <trkpt lat="46.53818" lon="5.20013">
        <ele>211.4</ele>
        <time>2022-07-05T05:53:40Z</time>
      </trkpt>
      <trkpt lat="46.53854" lon="5.19959">
        <ele>210.2</ele>
        <time>2022-07-05T05:53:47Z</time>
      </trkpt>
      <trkpt lat="46.53866" lon="5.19942">
        <ele>209.8</ele>
        <time>2022-07-05T05:53:49Z</time>
      </trkpt>
      <trkpt lat="46.53892" lon="5.19906">
        <ele>208.6</ele>
        <time>2022-07-05T05:53:53Z</time>
      </trkpt>
      <trkpt lat="46.53898" lon="5.19897">
        <ele>208.4</ele>
        <time>2022-07-05T05:53:54Z</time>
      </trkpt>
      <trkpt lat="46.5391" lon="5.19879">
        <ele>206.8</ele>
        <time>2022-07-05T05:53:56Z</time>
      </trkpt>
      <trkpt lat="46.53928" lon="5.1985">
        <ele>205.6</ele>
        <time>2022-07-05T05:53:59Z</time>
      </trkpt>
      <trkpt lat="46.53934" lon="5.1984">
        <ele>205.2</ele>
        <time>2022-07-05T05:54:00Z</time>
      </trkpt>
      <trkpt lat="46.53943" lon="5.19819">
        <ele>204.6</ele>
        <time>2022-07-05T05:54:02Z</time>
      </trkpt>
      <trkpt lat="46.53955" lon="5.19787">
        <ele>203.4</ele>
        <time>2022-07-05T05:54:05Z</time>
      </trkpt>
      <trkpt lat="46.5396" lon="5.19776">
        <ele>203.2</ele>
        <time>2022-07-05T05:54:06Z</time>
      </trkpt>
      <trkpt lat="46.53979" lon="5.19723">
        <ele>202.2</ele>
        <time>2022-07-05T05:54:11Z</time>
      </trkpt>
      <trkpt lat="46.53991" lon="5.19694">
        <ele>201.8</ele>
        <time>2022-07-05T05:54:14Z</time>
      </trkpt>
      <trkpt lat="46.54014" lon="5.19632">
        <ele>201.8</ele>
        <time>2022-07-05T05:54:21Z</time>
      </trkpt>
      <trkpt lat="46.54036" lon="5.19582">
        <ele>202</ele>
        <time>2022-07-05T05:54:27Z</time>
      </trkpt>
      <trkpt lat="46.5404" lon="5.19575">
        <ele>202.2</ele>
        <time>2022-07-05T05:54:28Z</time>
      </trkpt>
      <trkpt lat="46.5405" lon="5.19564">
        <ele>202.4</ele>
        <time>2022-07-05T05:54:30Z</time>
      </trkpt>
      <trkpt lat="46.54062" lon="5.19554">
        <ele>202.6</ele>
        <time>2022-07-05T05:54:32Z</time>
      </trkpt>
      <trkpt lat="46.54107" lon="5.19528">
        <ele>203.2</ele>
        <time>2022-07-05T05:54:39Z</time>
      </trkpt>
      <trkpt lat="46.54146" lon="5.19516">
        <ele>203.6</ele>
        <time>2022-07-05T05:54:45Z</time>
      </trkpt>
      <trkpt lat="46.54203" lon="5.19505">
        <ele>204</ele>
        <time>2022-07-05T05:54:54Z</time>
      </trkpt>
      <trkpt lat="46.54261" lon="5.19491">
        <ele>203.8</ele>
        <time>2022-07-05T05:55:03Z</time>
      </trkpt>
      <trkpt lat="46.5432" lon="5.19477">
        <ele>203.6</ele>
        <time>2022-07-05T05:55:12Z</time>
      </trkpt>
      <trkpt lat="46.54327" lon="5.19475">
        <ele>203.6</ele>
        <time>2022-07-05T05:55:13Z</time>
      </trkpt>
      <trkpt lat="46.54385" lon="5.19459">
        <ele>203</ele>
        <time>2022-07-05T05:55:21Z</time>
      </trkpt>
      <trkpt lat="46.54413" lon="5.19438">
        <ele>202</ele>
        <time>2022-07-05T05:55:25Z</time>
      </trkpt>
      <trkpt lat="46.54424" lon="5.19422">
        <ele>201.6</ele>
        <time>2022-07-05T05:55:27Z</time>
      </trkpt>
      <trkpt lat="46.54429" lon="5.19413">
        <ele>201.2</ele>
        <time>2022-07-05T05:55:28Z</time>
      </trkpt>
      <trkpt lat="46.54436" lon="5.19392">
        <ele>201</ele>
        <time>2022-07-05T05:55:30Z</time>
      </trkpt>
      <trkpt lat="46.54442" lon="5.19359">
        <ele>200.8</ele>
        <time>2022-07-05T05:55:33Z</time>
      </trkpt>
      <trkpt lat="46.54444" lon="5.19349">
        <ele>200.6</ele>
        <time>2022-07-05T05:55:34Z</time>
      </trkpt>
      <trkpt lat="46.54445" lon="5.19317">
        <ele>200.6</ele>
        <time>2022-07-05T05:55:37Z</time>
      </trkpt>
      <trkpt lat="46.54443" lon="5.19269">
        <ele>200.8</ele>
        <time>2022-07-05T05:55:42Z</time>
      </trkpt>
      <trkpt lat="46.54437" lon="5.19218">
        <ele>201.2</ele>
        <time>2022-07-05T05:55:48Z</time>
      </trkpt>
      <trkpt lat="46.54433" lon="5.19178">
        <ele>202.2</ele>
        <time>2022-07-05T05:55:53Z</time>
      </trkpt>
      <trkpt lat="46.54433" lon="5.1917">
        <ele>202.2</ele>
        <time>2022-07-05T05:55:54Z</time>
      </trkpt>
      <trkpt lat="46.54431" lon="5.19123">
        <ele>203.2</ele>
        <time>2022-07-05T05:55:59Z</time>
      </trkpt>
      <trkpt lat="46.54431" lon="5.19114">
        <ele>203.6</ele>
        <time>2022-07-05T05:56:00Z</time>
      </trkpt>
      <trkpt lat="46.54431" lon="5.19028">
        <ele>204.2</ele>
        <time>2022-07-05T05:56:09Z</time>
      </trkpt>
      <trkpt lat="46.5443" lon="5.19009">
        <ele>204.2</ele>
        <time>2022-07-05T05:56:11Z</time>
      </trkpt>
      <trkpt lat="46.54433" lon="5.18947">
        <ele>204.6</ele>
        <time>2022-07-05T05:56:18Z</time>
      </trkpt>
      <trkpt lat="46.54441" lon="5.18878">
        <ele>205.2</ele>
        <time>2022-07-05T05:56:26Z</time>
      </trkpt>
      <trkpt lat="46.54443" lon="5.18869">
        <ele>205.4</ele>
        <time>2022-07-05T05:56:27Z</time>
      </trkpt>
      <trkpt lat="46.54457" lon="5.188">
        <ele>205.8</ele>
        <time>2022-07-05T05:56:35Z</time>
      </trkpt>
      <trkpt lat="46.54475" lon="5.18719">
        <ele>206</ele>
        <time>2022-07-05T05:56:44Z</time>
      </trkpt>
      <trkpt lat="46.54478" lon="5.1871">
        <ele>206</ele>
        <time>2022-07-05T05:56:45Z</time>
      </trkpt>
      <trkpt lat="46.54481" lon="5.18702">
        <ele>206</ele>
        <time>2022-07-05T05:56:46Z</time>
      </trkpt>
      <trkpt lat="46.54487" lon="5.18686">
        <ele>206</ele>
        <time>2022-07-05T05:56:48Z</time>
      </trkpt>
      <trkpt lat="46.54501" lon="5.18665">
        <ele>206</ele>
        <time>2022-07-05T05:56:51Z</time>
      </trkpt>
      <trkpt lat="46.54532" lon="5.18636">
        <ele>205.6</ele>
        <time>2022-07-05T05:56:56Z</time>
      </trkpt>
      <trkpt lat="46.54576" lon="5.18596">
        <ele>204</ele>
        <time>2022-07-05T05:57:02Z</time>
      </trkpt>
      <trkpt lat="46.54597" lon="5.18577">
        <ele>203</ele>
        <time>2022-07-05T05:57:05Z</time>
      </trkpt>
      <trkpt lat="46.54616" lon="5.1856">
        <ele>202.4</ele>
        <time>2022-07-05T05:57:08Z</time>
      </trkpt>
      <trkpt lat="46.54647" lon="5.18534">
        <ele>202.6</ele>
        <time>2022-07-05T05:57:14Z</time>
      </trkpt>
      <trkpt lat="46.54681" lon="5.18513">
        <ele>204</ele>
        <time>2022-07-05T05:57:21Z</time>
      </trkpt>
      <trkpt lat="46.54711" lon="5.18498">
        <ele>205</ele>
        <time>2022-07-05T05:57:27Z</time>
      </trkpt>
      <trkpt lat="46.54729" lon="5.18489">
        <ele>205.6</ele>
        <time>2022-07-05T05:57:31Z</time>
      </trkpt>
      <trkpt lat="46.54742" lon="5.18481">
        <ele>206.2</ele>
        <time>2022-07-05T05:57:34Z</time>
      </trkpt>
      <trkpt lat="46.54764" lon="5.18465">
        <ele>207</ele>
        <time>2022-07-05T05:57:39Z</time>
      </trkpt>
      <trkpt lat="46.54768" lon="5.18461">
        <ele>207.4</ele>
        <time>2022-07-05T05:57:40Z</time>
      </trkpt>
      <trkpt lat="46.54783" lon="5.18437">
        <ele>208.6</ele>
        <time>2022-07-05T05:57:45Z</time>
      </trkpt>
      <trkpt lat="46.54791" lon="5.1841">
        <ele>209.4</ele>
        <time>2022-07-05T05:57:49Z</time>
      </trkpt>
      <trkpt lat="46.54792" lon="5.18403">
        <ele>209.6</ele>
        <time>2022-07-05T05:57:50Z</time>
      </trkpt>
      <trkpt lat="46.54792" lon="5.18395">
        <ele>209.6</ele>
        <time>2022-07-05T05:57:51Z</time>
      </trkpt>
      <trkpt lat="46.54793" lon="5.1838">
        <ele>210.2</ele>
        <time>2022-07-05T05:57:53Z</time>
      </trkpt>
      <trkpt lat="46.54792" lon="5.18364">
        <ele>210.6</ele>
        <time>2022-07-05T05:57:55Z</time>
      </trkpt>
      <trkpt lat="46.54791" lon="5.18356">
        <ele>210.8</ele>
        <time>2022-07-05T05:57:56Z</time>
      </trkpt>
      <trkpt lat="46.5479" lon="5.18348">
        <ele>211</ele>
        <time>2022-07-05T05:57:57Z</time>
      </trkpt>
      <trkpt lat="46.54776" lon="5.18272">
        <ele>211.4</ele>
        <time>2022-07-05T05:58:06Z</time>
      </trkpt>
      <trkpt lat="46.54773" lon="5.18254">
        <ele>211.2</ele>
        <time>2022-07-05T05:58:08Z</time>
      </trkpt>
      <trkpt lat="46.54757" lon="5.1817">
        <ele>210.8</ele>
        <time>2022-07-05T05:58:17Z</time>
      </trkpt>
      <trkpt lat="46.54753" lon="5.18151">
        <ele>210.6</ele>
        <time>2022-07-05T05:58:19Z</time>
      </trkpt>
      <trkpt lat="46.54737" lon="5.18075">
        <ele>210</ele>
        <time>2022-07-05T05:58:27Z</time>
      </trkpt>
      <trkpt lat="46.54735" lon="5.18065">
        <ele>210</ele>
        <time>2022-07-05T05:58:28Z</time>
      </trkpt>
      <trkpt lat="46.54718" lon="5.17994">
        <ele>209.6</ele>
        <time>2022-07-05T05:58:35Z</time>
      </trkpt>
      <trkpt lat="46.54714" lon="5.17974">
        <ele>209.4</ele>
        <time>2022-07-05T05:58:37Z</time>
      </trkpt>
      <trkpt lat="46.54704" lon="5.17924">
        <ele>209.8</ele>
        <time>2022-07-05T05:58:42Z</time>
      </trkpt>
      <trkpt lat="46.54703" lon="5.17913">
        <ele>209.8</ele>
        <time>2022-07-05T05:58:43Z</time>
      </trkpt>
      <trkpt lat="46.54703" lon="5.17903">
        <ele>209.8</ele>
        <time>2022-07-05T05:58:44Z</time>
      </trkpt>
      <trkpt lat="46.54706" lon="5.17873">
        <ele>209.8</ele>
        <time>2022-07-05T05:58:47Z</time>
      </trkpt>
      <trkpt lat="46.54721" lon="5.17818">
        <ele>209.6</ele>
        <time>2022-07-05T05:58:53Z</time>
      </trkpt>
      <trkpt lat="46.54745" lon="5.17737">
        <ele>209.6</ele>
        <time>2022-07-05T05:59:02Z</time>
      </trkpt>
      <trkpt lat="46.54766" lon="5.17663">
        <ele>209.4</ele>
        <time>2022-07-05T05:59:10Z</time>
      </trkpt>
      <trkpt lat="46.54769" lon="5.17654">
        <ele>209.4</ele>
        <time>2022-07-05T05:59:11Z</time>
      </trkpt>
      <trkpt lat="46.5479" lon="5.17578">
        <ele>208.6</ele>
        <time>2022-07-05T05:59:18Z</time>
      </trkpt>
      <trkpt lat="46.54793" lon="5.17566">
        <ele>208.2</ele>
        <time>2022-07-05T05:59:19Z</time>
      </trkpt>
      <trkpt lat="46.54803" lon="5.17527">
        <ele>207.2</ele>
        <time>2022-07-05T05:59:22Z</time>
      </trkpt>
      <trkpt lat="46.54811" lon="5.175">
        <ele>206.2</ele>
        <time>2022-07-05T05:59:24Z</time>
      </trkpt>
      <trkpt lat="46.54815" lon="5.17486">
        <ele>205.8</ele>
        <time>2022-07-05T05:59:25Z</time>
      </trkpt>
      <trkpt lat="46.54826" lon="5.17459">
        <ele>205</ele>
        <time>2022-07-05T05:59:27Z</time>
      </trkpt>
      <trkpt lat="46.54832" lon="5.17447">
        <ele>204.2</ele>
        <time>2022-07-05T05:59:28Z</time>
      </trkpt>
      <trkpt lat="46.5484" lon="5.17437">
        <ele>203.4</ele>
        <time>2022-07-05T05:59:29Z</time>
      </trkpt>
      <trkpt lat="46.54849" lon="5.17429">
        <ele>203</ele>
        <time>2022-07-05T05:59:30Z</time>
      </trkpt>
      <trkpt lat="46.54858" lon="5.17422">
        <ele>202.2</ele>
        <time>2022-07-05T05:59:31Z</time>
      </trkpt>
      <trkpt lat="46.54867" lon="5.17418">
        <ele>201.8</ele>
        <time>2022-07-05T05:59:32Z</time>
      </trkpt>
      <trkpt lat="46.54885" lon="5.17412">
        <ele>200.6</ele>
        <time>2022-07-05T05:59:34Z</time>
      </trkpt>
      <trkpt lat="46.54903" lon="5.17407">
        <ele>199.4</ele>
        <time>2022-07-05T05:59:36Z</time>
      </trkpt>
      <trkpt lat="46.54927" lon="5.174">
        <ele>198.6</ele>
        <time>2022-07-05T05:59:39Z</time>
      </trkpt>
      <trkpt lat="46.54956" lon="5.17389">
        <ele>198</ele>
        <time>2022-07-05T05:59:43Z</time>
      </trkpt>
      <trkpt lat="46.54962" lon="5.17384">
        <ele>198</ele>
        <time>2022-07-05T05:59:44Z</time>
      </trkpt>
      <trkpt lat="46.54968" lon="5.17378">
        <ele>198</ele>
        <time>2022-07-05T05:59:45Z</time>
      </trkpt>
      <trkpt lat="46.54977" lon="5.17362">
        <ele>198</ele>
        <time>2022-07-05T05:59:47Z</time>
      </trkpt>
      <trkpt lat="46.54981" lon="5.17341">
        <ele>198.2</ele>
        <time>2022-07-05T05:59:49Z</time>
      </trkpt>
      <trkpt lat="46.54982" lon="5.1733">
        <ele>198.2</ele>
        <time>2022-07-05T05:59:50Z</time>
      </trkpt>
      <trkpt lat="46.54977" lon="5.17272">
        <ele>198.2</ele>
        <time>2022-07-05T05:59:55Z</time>
      </trkpt>
      <trkpt lat="46.54976" lon="5.17238">
        <ele>197.6</ele>
        <time>2022-07-05T05:59:58Z</time>
      </trkpt>
      <trkpt lat="46.54976" lon="5.17203">
        <ele>196.8</ele>
        <time>2022-07-05T06:00:01Z</time>
      </trkpt>
      <trkpt lat="46.54979" lon="5.17181">
        <ele>196.2</ele>
        <time>2022-07-05T06:00:03Z</time>
      </trkpt>
      <trkpt lat="46.54986" lon="5.1714">
        <ele>195.8</ele>
        <time>2022-07-05T06:00:07Z</time>
      </trkpt>
      <trkpt lat="46.54993" lon="5.17092">
        <ele>195.8</ele>
        <time>2022-07-05T06:00:12Z</time>
      </trkpt>
      <trkpt lat="46.54998" lon="5.17068">
        <ele>195.8</ele>
        <time>2022-07-05T06:00:15Z</time>
      </trkpt>
      <trkpt lat="46.55004" lon="5.17056">
        <ele>196.4</ele>
        <time>2022-07-05T06:00:17Z</time>
      </trkpt>
      <trkpt lat="46.5502" lon="5.17039">
        <ele>197</ele>
        <time>2022-07-05T06:00:21Z</time>
      </trkpt>
      <trkpt lat="46.55029" lon="5.17031">
        <ele>197.4</ele>
        <time>2022-07-05T06:00:23Z</time>
      </trkpt>
      <trkpt lat="46.55035" lon="5.17022">
        <ele>198</ele>
        <time>2022-07-05T06:00:25Z</time>
      </trkpt>
      <trkpt lat="46.55038" lon="5.17017">
        <ele>198.2</ele>
        <time>2022-07-05T06:00:26Z</time>
      </trkpt>
      <trkpt lat="46.5504" lon="5.17011">
        <ele>198.6</ele>
        <time>2022-07-05T06:00:27Z</time>
      </trkpt>
      <trkpt lat="46.55044" lon="5.16997">
        <ele>199.2</ele>
        <time>2022-07-05T06:00:29Z</time>
      </trkpt>
      <trkpt lat="46.55045" lon="5.1699">
        <ele>199.4</ele>
        <time>2022-07-05T06:00:30Z</time>
      </trkpt>
      <trkpt lat="46.5505" lon="5.16965">
        <ele>200</ele>
        <time>2022-07-05T06:00:33Z</time>
      </trkpt>
      <trkpt lat="46.55055" lon="5.16941">
        <ele>200.6</ele>
        <time>2022-07-05T06:00:36Z</time>
      </trkpt>
      <trkpt lat="46.55059" lon="5.16926">
        <ele>201</ele>
        <time>2022-07-05T06:00:38Z</time>
      </trkpt>
      <trkpt lat="46.55067" lon="5.16912">
        <ele>201.2</ele>
        <time>2022-07-05T06:00:40Z</time>
      </trkpt>
      <trkpt lat="46.55078" lon="5.16902">
        <ele>201.2</ele>
        <time>2022-07-05T06:00:42Z</time>
      </trkpt>
      <trkpt lat="46.55089" lon="5.16897">
        <ele>201.2</ele>
        <time>2022-07-05T06:00:44Z</time>
      </trkpt>
      <trkpt lat="46.55145" lon="5.16875">
        <ele>201</ele>
        <time>2022-07-05T06:00:53Z</time>
      </trkpt>
      <trkpt lat="46.55152" lon="5.16872">
        <ele>201</ele>
        <time>2022-07-05T06:00:54Z</time>
      </trkpt>
      <trkpt lat="46.55193" lon="5.1685">
        <ele>201</ele>
        <time>2022-07-05T06:01:01Z</time>
      </trkpt>
      <trkpt lat="46.55225" lon="5.16821">
        <ele>201</ele>
        <time>2022-07-05T06:01:07Z</time>
      </trkpt>
      <trkpt lat="46.55261" lon="5.16799">
        <ele>201</ele>
        <time>2022-07-05T06:01:13Z</time>
      </trkpt>
      <trkpt lat="46.553" lon="5.16773">
        <ele>201</ele>
        <time>2022-07-05T06:01:20Z</time>
      </trkpt>
      <trkpt lat="46.55345" lon="5.16734">
        <ele>201</ele>
        <time>2022-07-05T06:01:28Z</time>
      </trkpt>
      <trkpt lat="46.55386" lon="5.16689">
        <ele>200.8</ele>
        <time>2022-07-05T06:01:36Z</time>
      </trkpt>
      <trkpt lat="46.55425" lon="5.1664">
        <ele>200.8</ele>
        <time>2022-07-05T06:01:44Z</time>
      </trkpt>
      <trkpt lat="46.5544" lon="5.16609">
        <ele>200.6</ele>
        <time>2022-07-05T06:01:48Z</time>
      </trkpt>
      <trkpt lat="46.55444" lon="5.16593">
        <ele>200.6</ele>
        <time>2022-07-05T06:01:50Z</time>
      </trkpt>
      <trkpt lat="46.55454" lon="5.16554">
        <ele>200.6</ele>
        <time>2022-07-05T06:01:55Z</time>
      </trkpt>
      <trkpt lat="46.55461" lon="5.1654">
        <ele>200.8</ele>
        <time>2022-07-05T06:01:57Z</time>
      </trkpt>
      <trkpt lat="46.55469" lon="5.1653">
        <ele>201</ele>
        <time>2022-07-05T06:01:59Z</time>
      </trkpt>
      <trkpt lat="46.55478" lon="5.16522">
        <ele>201</ele>
        <time>2022-07-05T06:02:01Z</time>
      </trkpt>
      <trkpt lat="46.55482" lon="5.16519">
        <ele>201.4</ele>
        <time>2022-07-05T06:02:02Z</time>
      </trkpt>
      <trkpt lat="46.55488" lon="5.1651">
        <ele>201.8</ele>
        <time>2022-07-05T06:02:04Z</time>
      </trkpt>
      <trkpt lat="46.55491" lon="5.16504">
        <ele>201.8</ele>
        <time>2022-07-05T06:02:05Z</time>
      </trkpt>
      <trkpt lat="46.55498" lon="5.16487">
        <ele>202.2</ele>
        <time>2022-07-05T06:02:08Z</time>
      </trkpt>
      <trkpt lat="46.55501" lon="5.16475">
        <ele>203</ele>
        <time>2022-07-05T06:02:10Z</time>
      </trkpt>
      <trkpt lat="46.55505" lon="5.16453">
        <ele>204.2</ele>
        <time>2022-07-05T06:02:14Z</time>
      </trkpt>
      <trkpt lat="46.55507" lon="5.16448">
        <ele>204.6</ele>
        <time>2022-07-05T06:02:15Z</time>
      </trkpt>
      <trkpt lat="46.55509" lon="5.16443">
        <ele>205.2</ele>
        <time>2022-07-05T06:02:16Z</time>
      </trkpt>
      <trkpt lat="46.55512" lon="5.16438">
        <ele>205.2</ele>
        <time>2022-07-05T06:02:17Z</time>
      </trkpt>
      <trkpt lat="46.5552" lon="5.16431">
        <ele>205.8</ele>
        <time>2022-07-05T06:02:19Z</time>
      </trkpt>
      <trkpt lat="46.55529" lon="5.16426">
        <ele>206.4</ele>
        <time>2022-07-05T06:02:21Z</time>
      </trkpt>
      <trkpt lat="46.55543" lon="5.16421">
        <ele>207</ele>
        <time>2022-07-05T06:02:24Z</time>
      </trkpt>
      <trkpt lat="46.55548" lon="5.16421">
        <ele>207</ele>
        <time>2022-07-05T06:02:25Z</time>
      </trkpt>
      <trkpt lat="46.55563" lon="5.16421">
        <ele>207.8</ele>
        <time>2022-07-05T06:02:28Z</time>
      </trkpt>
      <trkpt lat="46.55578" lon="5.16423">
        <ele>208.4</ele>
        <time>2022-07-05T06:02:31Z</time>
      </trkpt>
      <trkpt lat="46.55583" lon="5.16423">
        <ele>208.8</ele>
        <time>2022-07-05T06:02:32Z</time>
      </trkpt>
      <trkpt lat="46.5561" lon="5.16426">
        <ele>209.4</ele>
        <time>2022-07-05T06:02:38Z</time>
      </trkpt>
      <trkpt lat="46.55625" lon="5.16429">
        <ele>210</ele>
        <time>2022-07-05T06:02:41Z</time>
      </trkpt>
      <trkpt lat="46.55636" lon="5.16431">
        <ele>210</ele>
        <time>2022-07-05T06:02:43Z</time>
      </trkpt>
      <trkpt lat="46.55654" lon="5.16434">
        <ele>210.2</ele>
        <time>2022-07-05T06:02:46Z</time>
      </trkpt>
      <trkpt lat="46.55659" lon="5.16435">
        <ele>210.2</ele>
        <time>2022-07-05T06:02:47Z</time>
      </trkpt>
      <trkpt lat="46.55675" lon="5.16443">
        <ele>210.2</ele>
        <time>2022-07-05T06:02:50Z</time>
      </trkpt>
      <trkpt lat="46.55681" lon="5.16447">
        <ele>210</ele>
        <time>2022-07-05T06:02:51Z</time>
      </trkpt>
      <trkpt lat="46.55686" lon="5.16454">
        <ele>210</ele>
        <time>2022-07-05T06:02:52Z</time>
      </trkpt>
      <trkpt lat="46.55693" lon="5.16467">
        <ele>210.2</ele>
        <time>2022-07-05T06:02:54Z</time>
      </trkpt>
      <trkpt lat="46.55694" lon="5.16475">
        <ele>210.2</ele>
        <time>2022-07-05T06:02:55Z</time>
      </trkpt>
      <trkpt lat="46.55693" lon="5.16484">
        <ele>210.2</ele>
        <time>2022-07-05T06:02:56Z</time>
      </trkpt>
      <trkpt lat="46.55689" lon="5.16503">
        <ele>210</ele>
        <time>2022-07-05T06:02:58Z</time>
      </trkpt>
      <trkpt lat="46.55673" lon="5.16572">
        <ele>209</ele>
        <time>2022-07-05T06:03:05Z</time>
      </trkpt>
      <trkpt lat="46.55668" lon="5.16593">
        <ele>208.6</ele>
        <time>2022-07-05T06:03:07Z</time>
      </trkpt>
      <trkpt lat="46.55654" lon="5.16649">
        <ele>208</ele>
        <time>2022-07-05T06:03:12Z</time>
      </trkpt>
      <trkpt lat="46.55649" lon="5.16672">
        <ele>207.4</ele>
        <time>2022-07-05T06:03:14Z</time>
      </trkpt>
      <trkpt lat="46.55634" lon="5.16728">
        <ele>206.4</ele>
        <time>2022-07-05T06:03:19Z</time>
      </trkpt>
      <trkpt lat="46.55632" lon="5.16739">
        <ele>206.2</ele>
        <time>2022-07-05T06:03:20Z</time>
      </trkpt>
      <trkpt lat="46.55621" lon="5.16785">
        <ele>206.4</ele>
        <time>2022-07-05T06:03:25Z</time>
      </trkpt>
      <trkpt lat="46.5561" lon="5.16832">
        <ele>207.2</ele>
        <time>2022-07-05T06:03:31Z</time>
      </trkpt>
      <trkpt lat="46.55608" lon="5.1684">
        <ele>207.6</ele>
        <time>2022-07-05T06:03:32Z</time>
      </trkpt>
      <trkpt lat="46.55599" lon="5.16878">
        <ele>208.4</ele>
        <time>2022-07-05T06:03:37Z</time>
      </trkpt>
      <trkpt lat="46.55592" lon="5.1691">
        <ele>209</ele>
        <time>2022-07-05T06:03:41Z</time>
      </trkpt>
      <trkpt lat="46.55588" lon="5.16927">
        <ele>209.4</ele>
        <time>2022-07-05T06:03:43Z</time>
      </trkpt>
      <trkpt lat="46.55573" lon="5.16983">
        <ele>210.6</ele>
        <time>2022-07-05T06:03:50Z</time>
      </trkpt>
      <trkpt lat="46.55547" lon="5.17047">
        <ele>211.4</ele>
        <time>2022-07-05T06:03:58Z</time>
      </trkpt>
      <trkpt lat="46.5554" lon="5.17064">
        <ele>211.8</ele>
        <time>2022-07-05T06:04:00Z</time>
      </trkpt>
      <trkpt lat="46.55511" lon="5.17138">
        <ele>212.6</ele>
        <time>2022-07-05T06:04:09Z</time>
      </trkpt>
      <trkpt lat="46.55486" lon="5.17183">
        <ele>212.8</ele>
        <time>2022-07-05T06:04:15Z</time>
      </trkpt>
      <trkpt lat="46.55473" lon="5.17205">
        <ele>213</ele>
        <time>2022-07-05T06:04:18Z</time>
      </trkpt>
      <trkpt lat="46.55445" lon="5.17269">
        <ele>213</ele>
        <time>2022-07-05T06:04:26Z</time>
      </trkpt>
      <trkpt lat="46.5543" lon="5.17329">
        <ele>213</ele>
        <time>2022-07-05T06:04:32Z</time>
      </trkpt>
      <trkpt lat="46.55424" lon="5.17362">
        <ele>212.8</ele>
        <time>2022-07-05T06:04:35Z</time>
      </trkpt>
      <trkpt lat="46.55421" lon="5.17395">
        <ele>212.6</ele>
        <time>2022-07-05T06:04:38Z</time>
      </trkpt>
      <trkpt lat="46.55415" lon="5.17479">
        <ele>212.2</ele>
        <time>2022-07-05T06:04:46Z</time>
      </trkpt>
      <trkpt lat="46.55414" lon="5.17489">
        <ele>212.2</ele>
        <time>2022-07-05T06:04:47Z</time>
      </trkpt>
      <trkpt lat="46.55408" lon="5.17555">
        <ele>212.4</ele>
        <time>2022-07-05T06:04:54Z</time>
      </trkpt>
      <trkpt lat="46.55401" lon="5.17635">
        <ele>212.8</ele>
        <time>2022-07-05T06:05:03Z</time>
      </trkpt>
      <trkpt lat="46.554" lon="5.17644">
        <ele>212.8</ele>
        <time>2022-07-05T06:05:04Z</time>
      </trkpt>
      <trkpt lat="46.55394" lon="5.17727">
        <ele>214</ele>
        <time>2022-07-05T06:05:13Z</time>
      </trkpt>
      <trkpt lat="46.55392" lon="5.17746">
        <ele>214</ele>
        <time>2022-07-05T06:05:15Z</time>
      </trkpt>
      <trkpt lat="46.55391" lon="5.17823">
        <ele>214</ele>
        <time>2022-07-05T06:05:23Z</time>
      </trkpt>
      <trkpt lat="46.55393" lon="5.1789">
        <ele>212.8</ele>
        <time>2022-07-05T06:05:29Z</time>
      </trkpt>
      <trkpt lat="46.55396" lon="5.1795">
        <ele>211.8</ele>
        <time>2022-07-05T06:05:34Z</time>
      </trkpt>
      <trkpt lat="46.55397" lon="5.17962">
        <ele>211.8</ele>
        <time>2022-07-05T06:05:35Z</time>
      </trkpt>
      <trkpt lat="46.55415" lon="5.18023">
        <ele>211.4</ele>
        <time>2022-07-05T06:05:41Z</time>
      </trkpt>
      <trkpt lat="46.55437" lon="5.18061">
        <ele>211.4</ele>
        <time>2022-07-05T06:05:46Z</time>
      </trkpt>
      <trkpt lat="46.55465" lon="5.18098">
        <ele>211.6</ele>
        <time>2022-07-05T06:05:52Z</time>
      </trkpt>
      <trkpt lat="46.555" lon="5.18146">
        <ele>212.2</ele>
        <time>2022-07-05T06:06:00Z</time>
      </trkpt>
      <trkpt lat="46.5553" lon="5.1819">
        <ele>212.6</ele>
        <time>2022-07-05T06:06:07Z</time>
      </trkpt>
      <trkpt lat="46.55535" lon="5.18198">
        <ele>212.8</ele>
        <time>2022-07-05T06:06:08Z</time>
      </trkpt>
      <trkpt lat="46.55558" lon="5.18255">
        <ele>213.6</ele>
        <time>2022-07-05T06:06:15Z</time>
      </trkpt>
      <trkpt lat="46.55567" lon="5.18291">
        <ele>213.6</ele>
        <time>2022-07-05T06:06:19Z</time>
      </trkpt>
      <trkpt lat="46.55572" lon="5.18319">
        <ele>213.8</ele>
        <time>2022-07-05T06:06:22Z</time>
      </trkpt>
      <trkpt lat="46.55587" lon="5.18404">
        <ele>214.2</ele>
        <time>2022-07-05T06:06:31Z</time>
      </trkpt>
      <trkpt lat="46.5559" lon="5.18423">
        <ele>214.4</ele>
        <time>2022-07-05T06:06:33Z</time>
      </trkpt>
      <trkpt lat="46.55603" lon="5.18498">
        <ele>214.4</ele>
        <time>2022-07-05T06:06:41Z</time>
      </trkpt>
      <trkpt lat="46.55618" lon="5.18581">
        <ele>213.6</ele>
        <time>2022-07-05T06:06:50Z</time>
      </trkpt>
      <trkpt lat="46.55619" lon="5.1859">
        <ele>213.6</ele>
        <time>2022-07-05T06:06:51Z</time>
      </trkpt>
      <trkpt lat="46.55634" lon="5.18674">
        <ele>213.6</ele>
        <time>2022-07-05T06:07:00Z</time>
      </trkpt>
      <trkpt lat="46.55635" lon="5.18684">
        <ele>213.6</ele>
        <time>2022-07-05T06:07:01Z</time>
      </trkpt>
      <trkpt lat="46.5565" lon="5.18768">
        <ele>214.2</ele>
        <time>2022-07-05T06:07:10Z</time>
      </trkpt>
      <trkpt lat="46.55655" lon="5.18796">
        <ele>214.4</ele>
        <time>2022-07-05T06:07:13Z</time>
      </trkpt>
      <trkpt lat="46.55668" lon="5.18873">
        <ele>214.2</ele>
        <time>2022-07-05T06:07:21Z</time>
      </trkpt>
      <trkpt lat="46.55675" lon="5.18914">
        <ele>214</ele>
        <time>2022-07-05T06:07:25Z</time>
      </trkpt>
      <trkpt lat="46.5569" lon="5.18996">
        <ele>213.2</ele>
        <time>2022-07-05T06:07:33Z</time>
      </trkpt>
      <trkpt lat="46.55691" lon="5.19006">
        <ele>213.2</ele>
        <time>2022-07-05T06:07:34Z</time>
      </trkpt>
      <trkpt lat="46.55705" lon="5.19086">
        <ele>213.4</ele>
        <time>2022-07-05T06:07:42Z</time>
      </trkpt>
      <trkpt lat="46.55707" lon="5.19096">
        <ele>213.6</ele>
        <time>2022-07-05T06:07:43Z</time>
      </trkpt>
      <trkpt lat="46.55716" lon="5.19164">
        <ele>213.8</ele>
        <time>2022-07-05T06:07:50Z</time>
      </trkpt>
      <trkpt lat="46.55717" lon="5.19183">
        <ele>213.6</ele>
        <time>2022-07-05T06:07:52Z</time>
      </trkpt>
      <trkpt lat="46.55722" lon="5.1927">
        <ele>214</ele>
        <time>2022-07-05T06:08:01Z</time>
      </trkpt>
      <trkpt lat="46.55723" lon="5.19289">
        <ele>213.8</ele>
        <time>2022-07-05T06:08:03Z</time>
      </trkpt>
      <trkpt lat="46.55728" lon="5.19377">
        <ele>213.8</ele>
        <time>2022-07-05T06:08:12Z</time>
      </trkpt>
      <trkpt lat="46.55732" lon="5.19464">
        <ele>213.8</ele>
        <time>2022-07-05T06:08:21Z</time>
      </trkpt>
      <trkpt lat="46.55736" lon="5.19521">
        <ele>214</ele>
        <time>2022-07-05T06:08:27Z</time>
      </trkpt>
      <trkpt lat="46.55741" lon="5.19607">
        <ele>213.8</ele>
        <time>2022-07-05T06:08:36Z</time>
      </trkpt>
      <trkpt lat="46.55746" lon="5.19635">
        <ele>213.8</ele>
        <time>2022-07-05T06:08:39Z</time>
      </trkpt>
      <trkpt lat="46.55755" lon="5.19661">
        <ele>213.8</ele>
        <time>2022-07-05T06:08:42Z</time>
      </trkpt>
      <trkpt lat="46.5578" lon="5.19706">
        <ele>214.2</ele>
        <time>2022-07-05T06:08:48Z</time>
      </trkpt>
      <trkpt lat="46.55798" lon="5.19748">
        <ele>214.2</ele>
        <time>2022-07-05T06:08:53Z</time>
      </trkpt>
      <trkpt lat="46.558" lon="5.19757">
        <ele>214.2</ele>
        <time>2022-07-05T06:08:54Z</time>
      </trkpt>
      <trkpt lat="46.55811" lon="5.19822">
        <ele>214</ele>
        <time>2022-07-05T06:09:01Z</time>
      </trkpt>
      <trkpt lat="46.55823" lon="5.19907">
        <ele>214.2</ele>
        <time>2022-07-05T06:09:10Z</time>
      </trkpt>
      <trkpt lat="46.55836" lon="5.19992">
        <ele>214</ele>
        <time>2022-07-05T06:09:19Z</time>
      </trkpt>
      <trkpt lat="46.55838" lon="5.20002">
        <ele>214</ele>
        <time>2022-07-05T06:09:20Z</time>
      </trkpt>
      <trkpt lat="46.55851" lon="5.20087">
        <ele>214.2</ele>
        <time>2022-07-05T06:09:29Z</time>
      </trkpt>
      <trkpt lat="46.55852" lon="5.20097">
        <ele>214.2</ele>
        <time>2022-07-05T06:09:30Z</time>
      </trkpt>
      <trkpt lat="46.55865" lon="5.20182">
        <ele>213.4</ele>
        <time>2022-07-05T06:09:39Z</time>
      </trkpt>
      <trkpt lat="46.55869" lon="5.20211">
        <ele>213</ele>
        <time>2022-07-05T06:09:42Z</time>
      </trkpt>
      <trkpt lat="46.55882" lon="5.20295">
        <ele>213</ele>
        <time>2022-07-05T06:09:51Z</time>
      </trkpt>
      <trkpt lat="46.55886" lon="5.20322">
        <ele>213.2</ele>
        <time>2022-07-05T06:09:54Z</time>
      </trkpt>
      <trkpt lat="46.55899" lon="5.20406">
        <ele>213.4</ele>
        <time>2022-07-05T06:10:03Z</time>
      </trkpt>
      <trkpt lat="46.55901" lon="5.20417">
        <ele>213.4</ele>
        <time>2022-07-05T06:10:04Z</time>
      </trkpt>
      <trkpt lat="46.55913" lon="5.20502">
        <ele>213</ele>
        <time>2022-07-05T06:10:12Z</time>
      </trkpt>
      <trkpt lat="46.55913" lon="5.20555">
        <ele>213</ele>
        <time>2022-07-05T06:10:17Z</time>
      </trkpt>
      <trkpt lat="46.55906" lon="5.20586">
        <ele>212.8</ele>
        <time>2022-07-05T06:10:20Z</time>
      </trkpt>
      <trkpt lat="46.55902" lon="5.20596">
        <ele>212.8</ele>
        <time>2022-07-05T06:10:21Z</time>
      </trkpt>
      <trkpt lat="46.55891" lon="5.20623">
        <ele>212.6</ele>
        <time>2022-07-05T06:10:24Z</time>
      </trkpt>
      <trkpt lat="46.55869" lon="5.20668">
        <ele>212.4</ele>
        <time>2022-07-05T06:10:29Z</time>
      </trkpt>
      <trkpt lat="46.5584" lon="5.2074">
        <ele>212.2</ele>
        <time>2022-07-05T06:10:37Z</time>
      </trkpt>
      <trkpt lat="46.55835" lon="5.20789">
        <ele>212.4</ele>
        <time>2022-07-05T06:10:42Z</time>
      </trkpt>
      <trkpt lat="46.55841" lon="5.20868">
        <ele>212.6</ele>
        <time>2022-07-05T06:10:50Z</time>
      </trkpt>
      <trkpt lat="46.55848" lon="5.20949">
        <ele>212.6</ele>
        <time>2022-07-05T06:10:58Z</time>
      </trkpt>
      <trkpt lat="46.55849" lon="5.20969">
        <ele>212.8</ele>
        <time>2022-07-05T06:11:00Z</time>
      </trkpt>
      <trkpt lat="46.55855" lon="5.21052">
        <ele>212.8</ele>
        <time>2022-07-05T06:11:08Z</time>
      </trkpt>
      <trkpt lat="46.55856" lon="5.21063">
        <ele>212.6</ele>
        <time>2022-07-05T06:11:09Z</time>
      </trkpt>
      <trkpt lat="46.5586" lon="5.21149">
        <ele>212.4</ele>
        <time>2022-07-05T06:11:17Z</time>
      </trkpt>
      <trkpt lat="46.55861" lon="5.21191">
        <ele>212.2</ele>
        <time>2022-07-05T06:11:21Z</time>
      </trkpt>
      <trkpt lat="46.55861" lon="5.21253">
        <ele>212</ele>
        <time>2022-07-05T06:11:27Z</time>
      </trkpt>
      <trkpt lat="46.5586" lon="5.21333">
        <ele>212.2</ele>
        <time>2022-07-05T06:11:35Z</time>
      </trkpt>
      <trkpt lat="46.55861" lon="5.21421">
        <ele>212.6</ele>
        <time>2022-07-05T06:11:44Z</time>
      </trkpt>
      <trkpt lat="46.5586" lon="5.21489">
        <ele>212.2</ele>
        <time>2022-07-05T06:11:50Z</time>
      </trkpt>
      <trkpt lat="46.55862" lon="5.21527">
        <ele>211.4</ele>
        <time>2022-07-05T06:11:53Z</time>
      </trkpt>
      <trkpt lat="46.55866" lon="5.21566">
        <ele>210.4</ele>
        <time>2022-07-05T06:11:56Z</time>
      </trkpt>
      <trkpt lat="46.55871" lon="5.21607">
        <ele>209.2</ele>
        <time>2022-07-05T06:11:59Z</time>
      </trkpt>
      <trkpt lat="46.55873" lon="5.21635">
        <ele>208</ele>
        <time>2022-07-05T06:12:01Z</time>
      </trkpt>
      <trkpt lat="46.55875" lon="5.2165">
        <ele>207.4</ele>
        <time>2022-07-05T06:12:02Z</time>
      </trkpt>
      <trkpt lat="46.55878" lon="5.21679">
        <ele>206.6</ele>
        <time>2022-07-05T06:12:04Z</time>
      </trkpt>
      <trkpt lat="46.55883" lon="5.21724">
        <ele>205</ele>
        <time>2022-07-05T06:12:07Z</time>
      </trkpt>
      <trkpt lat="46.5589" lon="5.21769">
        <ele>203.6</ele>
        <time>2022-07-05T06:12:10Z</time>
      </trkpt>
      <trkpt lat="46.55905" lon="5.21825">
        <ele>202.2</ele>
        <time>2022-07-05T06:12:14Z</time>
      </trkpt>
      <trkpt lat="46.55913" lon="5.21851">
        <ele>201.2</ele>
        <time>2022-07-05T06:12:16Z</time>
      </trkpt>
      <trkpt lat="46.55917" lon="5.21864">
        <ele>201</ele>
        <time>2022-07-05T06:12:17Z</time>
      </trkpt>
      <trkpt lat="46.55938" lon="5.21934">
        <ele>200.2</ele>
        <time>2022-07-05T06:12:23Z</time>
      </trkpt>
      <trkpt lat="46.55963" lon="5.22014">
        <ele>199.2</ele>
        <time>2022-07-05T06:12:30Z</time>
      </trkpt>
      <trkpt lat="46.55966" lon="5.22024">
        <ele>199.2</ele>
        <time>2022-07-05T06:12:31Z</time>
      </trkpt>
      <trkpt lat="46.55985" lon="5.22087">
        <ele>198.6</ele>
        <time>2022-07-05T06:12:37Z</time>
      </trkpt>
      <trkpt lat="46.56009" lon="5.22164">
        <ele>199</ele>
        <time>2022-07-05T06:12:45Z</time>
      </trkpt>
      <trkpt lat="46.56031" lon="5.22238">
        <ele>199.6</ele>
        <time>2022-07-05T06:12:53Z</time>
      </trkpt>
      <trkpt lat="46.56034" lon="5.22248">
        <ele>199.6</ele>
        <time>2022-07-05T06:12:54Z</time>
      </trkpt>
      <trkpt lat="46.56056" lon="5.2232">
        <ele>199.2</ele>
        <time>2022-07-05T06:13:01Z</time>
      </trkpt>
      <trkpt lat="46.5608" lon="5.22401">
        <ele>198.6</ele>
        <time>2022-07-05T06:13:09Z</time>
      </trkpt>
      <trkpt lat="46.56086" lon="5.2242">
        <ele>198.4</ele>
        <time>2022-07-05T06:13:11Z</time>
      </trkpt>
      <trkpt lat="46.56109" lon="5.22498">
        <ele>198.4</ele>
        <time>2022-07-05T06:13:19Z</time>
      </trkpt>
      <trkpt lat="46.56115" lon="5.22517">
        <ele>198.6</ele>
        <time>2022-07-05T06:13:21Z</time>
      </trkpt>
      <trkpt lat="46.56138" lon="5.22592">
        <ele>198.8</ele>
        <time>2022-07-05T06:13:29Z</time>
      </trkpt>
      <trkpt lat="46.56145" lon="5.2261">
        <ele>198.8</ele>
        <time>2022-07-05T06:13:31Z</time>
      </trkpt>
      <trkpt lat="46.56165" lon="5.22666">
        <ele>198.6</ele>
        <time>2022-07-05T06:13:37Z</time>
      </trkpt>
      <trkpt lat="46.56193" lon="5.22742">
        <ele>199</ele>
        <time>2022-07-05T06:13:46Z</time>
      </trkpt>
      <trkpt lat="46.56196" lon="5.22749">
        <ele>199</ele>
        <time>2022-07-05T06:13:47Z</time>
      </trkpt>
      <trkpt lat="46.56212" lon="5.22791">
        <ele>200.2</ele>
        <time>2022-07-05T06:13:53Z</time>
      </trkpt>
      <trkpt lat="46.56215" lon="5.22797">
        <ele>200.4</ele>
        <time>2022-07-05T06:13:54Z</time>
      </trkpt>
      <trkpt lat="46.56225" lon="5.22824">
        <ele>201.4</ele>
        <time>2022-07-05T06:13:58Z</time>
      </trkpt>
      <trkpt lat="46.56234" lon="5.22849">
        <ele>202.6</ele>
        <time>2022-07-05T06:14:02Z</time>
      </trkpt>
      <trkpt lat="46.56244" lon="5.22879">
        <ele>204</ele>
        <time>2022-07-05T06:14:07Z</time>
      </trkpt>
      <trkpt lat="46.56245" lon="5.22885">
        <ele>204.2</ele>
        <time>2022-07-05T06:14:08Z</time>
      </trkpt>
      <trkpt lat="46.56246" lon="5.22891">
        <ele>204.6</ele>
        <time>2022-07-05T06:14:09Z</time>
      </trkpt>
      <trkpt lat="46.56249" lon="5.22902">
        <ele>205.2</ele>
        <time>2022-07-05T06:14:11Z</time>
      </trkpt>
      <trkpt lat="46.56252" lon="5.22914">
        <ele>205.6</ele>
        <time>2022-07-05T06:14:13Z</time>
      </trkpt>
      <trkpt lat="46.56254" lon="5.2292">
        <ele>205.8</ele>
        <time>2022-07-05T06:14:14Z</time>
      </trkpt>
      <trkpt lat="46.56257" lon="5.22932">
        <ele>206.4</ele>
        <time>2022-07-05T06:14:16Z</time>
      </trkpt>
      <trkpt lat="46.56259" lon="5.22937">
        <ele>206.6</ele>
        <time>2022-07-05T06:14:17Z</time>
      </trkpt>
      <trkpt lat="46.56266" lon="5.22961">
        <ele>207.8</ele>
        <time>2022-07-05T06:14:21Z</time>
      </trkpt>
      <trkpt lat="46.5627" lon="5.22968">
        <ele>208</ele>
        <time>2022-07-05T06:14:22Z</time>
      </trkpt>
      <trkpt lat="46.56279" lon="5.22988">
        <ele>208.4</ele>
        <time>2022-07-05T06:14:25Z</time>
      </trkpt>
      <trkpt lat="46.56281" lon="5.22994">
        <ele>208.8</ele>
        <time>2022-07-05T06:14:26Z</time>
      </trkpt>
      <trkpt lat="46.56282" lon="5.23001">
        <ele>208.8</ele>
        <time>2022-07-05T06:14:27Z</time>
      </trkpt>
      <trkpt lat="46.56289" lon="5.2302">
        <ele>209.8</ele>
        <time>2022-07-05T06:14:30Z</time>
      </trkpt>
      <trkpt lat="46.56295" lon="5.23033">
        <ele>210.4</ele>
        <time>2022-07-05T06:14:32Z</time>
      </trkpt>
      <trkpt lat="46.56298" lon="5.23044">
        <ele>211</ele>
        <time>2022-07-05T06:14:34Z</time>
      </trkpt>
      <trkpt lat="46.56308" lon="5.2306">
        <ele>212</ele>
        <time>2022-07-05T06:14:37Z</time>
      </trkpt>
      <trkpt lat="46.56311" lon="5.23066">
        <ele>212</ele>
        <time>2022-07-05T06:14:38Z</time>
      </trkpt>
      <trkpt lat="46.56325" lon="5.23094">
        <ele>213.2</ele>
        <time>2022-07-05T06:14:42Z</time>
      </trkpt>
      <trkpt lat="46.56337" lon="5.23122">
        <ele>213.8</ele>
        <time>2022-07-05T06:14:46Z</time>
      </trkpt>
      <trkpt lat="46.56341" lon="5.23139">
        <ele>214.2</ele>
        <time>2022-07-05T06:14:48Z</time>
      </trkpt>
      <trkpt lat="46.56346" lon="5.23154">
        <ele>214.4</ele>
        <time>2022-07-05T06:14:50Z</time>
      </trkpt>
      <trkpt lat="46.56352" lon="5.23169">
        <ele>214.4</ele>
        <time>2022-07-05T06:14:52Z</time>
      </trkpt>
      <trkpt lat="46.56372" lon="5.23224">
        <ele>214.8</ele>
        <time>2022-07-05T06:14:59Z</time>
      </trkpt>
      <trkpt lat="46.564" lon="5.23298">
        <ele>214.8</ele>
        <time>2022-07-05T06:15:08Z</time>
      </trkpt>
      <trkpt lat="46.56425" lon="5.23364">
        <ele>214.4</ele>
        <time>2022-07-05T06:15:16Z</time>
      </trkpt>
      <trkpt lat="46.56452" lon="5.23428">
        <ele>214.4</ele>
        <time>2022-07-05T06:15:24Z</time>
      </trkpt>
      <trkpt lat="46.56456" lon="5.23435">
        <ele>214.6</ele>
        <time>2022-07-05T06:15:25Z</time>
      </trkpt>
      <trkpt lat="46.5647" lon="5.23456">
        <ele>214.6</ele>
        <time>2022-07-05T06:15:28Z</time>
      </trkpt>
      <trkpt lat="46.56484" lon="5.23478">
        <ele>214.6</ele>
        <time>2022-07-05T06:15:31Z</time>
      </trkpt>
      <trkpt lat="46.56514" lon="5.2352">
        <ele>214.6</ele>
        <time>2022-07-05T06:15:37Z</time>
      </trkpt>
      <trkpt lat="46.56524" lon="5.23533">
        <ele>214.6</ele>
        <time>2022-07-05T06:15:39Z</time>
      </trkpt>
      <trkpt lat="46.56556" lon="5.2357">
        <ele>214.4</ele>
        <time>2022-07-05T06:15:45Z</time>
      </trkpt>
      <trkpt lat="46.56602" lon="5.23601">
        <ele>214.2</ele>
        <time>2022-07-05T06:15:52Z</time>
      </trkpt>
      <trkpt lat="46.56647" lon="5.23635">
        <ele>213.6</ele>
        <time>2022-07-05T06:15:59Z</time>
      </trkpt>
      <trkpt lat="46.56689" lon="5.23683">
        <ele>213</ele>
        <time>2022-07-05T06:16:06Z</time>
      </trkpt>
      <trkpt lat="46.56701" lon="5.237">
        <ele>212.8</ele>
        <time>2022-07-05T06:16:08Z</time>
      </trkpt>
      <trkpt lat="46.56719" lon="5.23727">
        <ele>211.6</ele>
        <time>2022-07-05T06:16:11Z</time>
      </trkpt>
      <trkpt lat="46.56735" lon="5.23754">
        <ele>210.8</ele>
        <time>2022-07-05T06:16:14Z</time>
      </trkpt>
      <trkpt lat="46.56744" lon="5.23772">
        <ele>210.4</ele>
        <time>2022-07-05T06:16:16Z</time>
      </trkpt>
      <trkpt lat="46.56771" lon="5.23825">
        <ele>210.2</ele>
        <time>2022-07-05T06:16:22Z</time>
      </trkpt>
      <trkpt lat="46.56798" lon="5.23859">
        <ele>210</ele>
        <time>2022-07-05T06:16:27Z</time>
      </trkpt>
      <trkpt lat="46.5684" lon="5.23888">
        <ele>210.4</ele>
        <time>2022-07-05T06:16:34Z</time>
      </trkpt>
      <trkpt lat="46.56893" lon="5.23921">
        <ele>211.4</ele>
        <time>2022-07-05T06:16:43Z</time>
      </trkpt>
      <trkpt lat="46.56899" lon="5.23925">
        <ele>211.6</ele>
        <time>2022-07-05T06:16:44Z</time>
      </trkpt>
      <trkpt lat="46.56934" lon="5.23945">
        <ele>212.8</ele>
        <time>2022-07-05T06:16:50Z</time>
      </trkpt>
      <trkpt lat="46.56953" lon="5.23952">
        <ele>213</ele>
        <time>2022-07-05T06:16:53Z</time>
      </trkpt>
      <trkpt lat="46.57004" lon="5.23967">
        <ele>213.4</ele>
        <time>2022-07-05T06:17:01Z</time>
      </trkpt>
      <trkpt lat="46.57061" lon="5.23982">
        <ele>213.6</ele>
        <time>2022-07-05T06:17:10Z</time>
      </trkpt>
      <trkpt lat="46.57105" lon="5.23998">
        <ele>213.6</ele>
        <time>2022-07-05T06:17:17Z</time>
      </trkpt>
      <trkpt lat="46.57116" lon="5.24006">
        <ele>213.6</ele>
        <time>2022-07-05T06:17:19Z</time>
      </trkpt>
      <trkpt lat="46.57147" lon="5.24044">
        <ele>213.4</ele>
        <time>2022-07-05T06:17:25Z</time>
      </trkpt>
      <trkpt lat="46.57169" lon="5.24088">
        <ele>212.8</ele>
        <time>2022-07-05T06:17:30Z</time>
      </trkpt>
      <trkpt lat="46.57193" lon="5.24142">
        <ele>211.8</ele>
        <time>2022-07-05T06:17:35Z</time>
      </trkpt>
      <trkpt lat="46.57198" lon="5.24154">
        <ele>211.4</ele>
        <time>2022-07-05T06:17:36Z</time>
      </trkpt>
      <trkpt lat="46.57212" lon="5.24172">
        <ele>210.4</ele>
        <time>2022-07-05T06:17:38Z</time>
      </trkpt>
      <trkpt lat="46.5722" lon="5.24179">
        <ele>209.6</ele>
        <time>2022-07-05T06:17:39Z</time>
      </trkpt>
      <trkpt lat="46.57229" lon="5.24185">
        <ele>209.4</ele>
        <time>2022-07-05T06:17:40Z</time>
      </trkpt>
      <trkpt lat="46.57248" lon="5.24195">
        <ele>208.4</ele>
        <time>2022-07-05T06:17:42Z</time>
      </trkpt>
      <trkpt lat="46.57257" lon="5.24203">
        <ele>207.6</ele>
        <time>2022-07-05T06:17:43Z</time>
      </trkpt>
      <trkpt lat="46.57266" lon="5.24211">
        <ele>207.2</ele>
        <time>2022-07-05T06:17:44Z</time>
      </trkpt>
      <trkpt lat="46.57274" lon="5.24222">
        <ele>206.6</ele>
        <time>2022-07-05T06:17:45Z</time>
      </trkpt>
      <trkpt lat="46.57281" lon="5.24234">
        <ele>205.6</ele>
        <time>2022-07-05T06:17:46Z</time>
      </trkpt>
      <trkpt lat="46.57286" lon="5.24248">
        <ele>205.4</ele>
        <time>2022-07-05T06:17:47Z</time>
      </trkpt>
      <trkpt lat="46.57291" lon="5.24263">
        <ele>204.2</ele>
        <time>2022-07-05T06:17:48Z</time>
      </trkpt>
      <trkpt lat="46.57294" lon="5.24278">
        <ele>203.6</ele>
        <time>2022-07-05T06:17:49Z</time>
      </trkpt>
      <trkpt lat="46.57297" lon="5.24293">
        <ele>202.4</ele>
        <time>2022-07-05T06:17:50Z</time>
      </trkpt>
      <trkpt lat="46.57302" lon="5.24325">
        <ele>201.4</ele>
        <time>2022-07-05T06:17:52Z</time>
      </trkpt>
      <trkpt lat="46.57306" lon="5.24356">
        <ele>200.4</ele>
        <time>2022-07-05T06:17:54Z</time>
      </trkpt>
      <trkpt lat="46.57308" lon="5.24372">
        <ele>199.6</ele>
        <time>2022-07-05T06:17:55Z</time>
      </trkpt>
      <trkpt lat="46.57308" lon="5.24404">
        <ele>198.4</ele>
        <time>2022-07-05T06:17:57Z</time>
      </trkpt>
      <trkpt lat="46.57306" lon="5.24419">
        <ele>197.4</ele>
        <time>2022-07-05T06:17:58Z</time>
      </trkpt>
      <trkpt lat="46.57303" lon="5.24434">
        <ele>197.2</ele>
        <time>2022-07-05T06:17:59Z</time>
      </trkpt>
      <trkpt lat="46.57297" lon="5.24461">
        <ele>195.8</ele>
        <time>2022-07-05T06:18:01Z</time>
      </trkpt>
      <trkpt lat="46.57293" lon="5.24474">
        <ele>195</ele>
        <time>2022-07-05T06:18:02Z</time>
      </trkpt>
      <trkpt lat="46.57287" lon="5.24499">
        <ele>194.4</ele>
        <time>2022-07-05T06:18:04Z</time>
      </trkpt>
      <trkpt lat="46.57277" lon="5.24548">
        <ele>193.6</ele>
        <time>2022-07-05T06:18:08Z</time>
      </trkpt>
      <trkpt lat="46.57276" lon="5.24561">
        <ele>193.2</ele>
        <time>2022-07-05T06:18:09Z</time>
      </trkpt>
      <trkpt lat="46.57276" lon="5.24573">
        <ele>193</ele>
        <time>2022-07-05T06:18:10Z</time>
      </trkpt>
      <trkpt lat="46.57277" lon="5.24598">
        <ele>192.4</ele>
        <time>2022-07-05T06:18:12Z</time>
      </trkpt>
      <trkpt lat="46.57277" lon="5.24619">
        <ele>192</ele>
        <time>2022-07-05T06:18:14Z</time>
      </trkpt>
      <trkpt lat="46.57278" lon="5.24634">
        <ele>191.8</ele>
        <time>2022-07-05T06:18:16Z</time>
      </trkpt>
      <trkpt lat="46.57274" lon="5.24644">
        <ele>191.6</ele>
        <time>2022-07-05T06:18:18Z</time>
      </trkpt>
      <trkpt lat="46.57271" lon="5.24647">
        <ele>191.4</ele>
        <time>2022-07-05T06:18:19Z</time>
      </trkpt>
      <trkpt lat="46.57267" lon="5.24649">
        <ele>191.2</ele>
        <time>2022-07-05T06:18:20Z</time>
      </trkpt>
      <trkpt lat="46.57256" lon="5.24652">
        <ele>191.2</ele>
        <time>2022-07-05T06:18:22Z</time>
      </trkpt>
      <trkpt lat="46.57237" lon="5.24659">
        <ele>191</ele>
        <time>2022-07-05T06:18:25Z</time>
      </trkpt>
      <trkpt lat="46.57223" lon="5.24663">
        <ele>191</ele>
        <time>2022-07-05T06:18:27Z</time>
      </trkpt>
      <trkpt lat="46.57183" lon="5.24678">
        <ele>191.4</ele>
        <time>2022-07-05T06:18:33Z</time>
      </trkpt>
      <trkpt lat="46.57138" lon="5.24689">
        <ele>192.2</ele>
        <time>2022-07-05T06:18:40Z</time>
      </trkpt>
      <trkpt lat="46.57119" lon="5.24687">
        <ele>192.8</ele>
        <time>2022-07-05T06:18:43Z</time>
      </trkpt>
      <trkpt lat="46.57114" lon="5.24686">
        <ele>193</ele>
        <time>2022-07-05T06:18:44Z</time>
      </trkpt>
      <trkpt lat="46.57102" lon="5.24682">
        <ele>193.2</ele>
        <time>2022-07-05T06:18:46Z</time>
      </trkpt>
      <trkpt lat="46.57062" lon="5.24668">
        <ele>194.2</ele>
        <time>2022-07-05T06:18:53Z</time>
      </trkpt>
      <trkpt lat="46.57051" lon="5.24664">
        <ele>194.4</ele>
        <time>2022-07-05T06:18:55Z</time>
      </trkpt>
      <trkpt lat="46.57013" lon="5.2465">
        <ele>195.2</ele>
        <time>2022-07-05T06:19:02Z</time>
      </trkpt>
      <trkpt lat="46.56997" lon="5.24645">
        <ele>195.6</ele>
        <time>2022-07-05T06:19:05Z</time>
      </trkpt>
      <trkpt lat="46.56975" lon="5.24637">
        <ele>196.2</ele>
        <time>2022-07-05T06:19:09Z</time>
      </trkpt>
      <trkpt lat="46.56937" lon="5.24624">
        <ele>197.4</ele>
        <time>2022-07-05T06:19:16Z</time>
      </trkpt>
      <trkpt lat="46.56905" lon="5.24613">
        <ele>198.4</ele>
        <time>2022-07-05T06:19:22Z</time>
      </trkpt>
      <trkpt lat="46.56882" lon="5.24605">
        <ele>199</ele>
        <time>2022-07-05T06:19:26Z</time>
      </trkpt>
      <trkpt lat="46.56871" lon="5.24601">
        <ele>199.4</ele>
        <time>2022-07-05T06:19:28Z</time>
      </trkpt>
      <trkpt lat="46.56825" lon="5.24585">
        <ele>200.2</ele>
        <time>2022-07-05T06:19:36Z</time>
      </trkpt>
      <trkpt lat="46.56808" lon="5.24579">
        <ele>200.4</ele>
        <time>2022-07-05T06:19:39Z</time>
      </trkpt>
      <trkpt lat="46.5675" lon="5.24558">
        <ele>200.8</ele>
        <time>2022-07-05T06:19:49Z</time>
      </trkpt>
      <trkpt lat="46.56728" lon="5.2455">
        <ele>201.4</ele>
        <time>2022-07-05T06:19:53Z</time>
      </trkpt>
      <trkpt lat="46.56696" lon="5.24539">
        <ele>202.6</ele>
        <time>2022-07-05T06:19:59Z</time>
      </trkpt>
      <trkpt lat="46.56671" lon="5.2453">
        <ele>203.6</ele>
        <time>2022-07-05T06:20:04Z</time>
      </trkpt>
      <trkpt lat="46.56651" lon="5.24522">
        <ele>204.6</ele>
        <time>2022-07-05T06:20:08Z</time>
      </trkpt>
      <trkpt lat="46.56646" lon="5.2452">
        <ele>205</ele>
        <time>2022-07-05T06:20:09Z</time>
      </trkpt>
      <trkpt lat="46.56627" lon="5.24513">
        <ele>205.8</ele>
        <time>2022-07-05T06:20:13Z</time>
      </trkpt>
      <trkpt lat="46.56608" lon="5.24506">
        <ele>206.6</ele>
        <time>2022-07-05T06:20:17Z</time>
      </trkpt>
      <trkpt lat="46.56593" lon="5.24501">
        <ele>207</ele>
        <time>2022-07-05T06:20:20Z</time>
      </trkpt>
      <trkpt lat="46.56578" lon="5.24496">
        <ele>208</ele>
        <time>2022-07-05T06:20:23Z</time>
      </trkpt>
      <trkpt lat="46.56557" lon="5.24489">
        <ele>208.6</ele>
        <time>2022-07-05T06:20:27Z</time>
      </trkpt>
      <trkpt lat="46.5654" lon="5.24483">
        <ele>209.2</ele>
        <time>2022-07-05T06:20:30Z</time>
      </trkpt>
      <trkpt lat="46.56507" lon="5.24472">
        <ele>209.6</ele>
        <time>2022-07-05T06:20:36Z</time>
      </trkpt>
      <trkpt lat="46.5649" lon="5.24466">
        <ele>210.2</ele>
        <time>2022-07-05T06:20:39Z</time>
      </trkpt>
      <trkpt lat="46.56457" lon="5.24456">
        <ele>210.8</ele>
        <time>2022-07-05T06:20:45Z</time>
      </trkpt>
      <trkpt lat="46.56426" lon="5.24445">
        <ele>211.4</ele>
        <time>2022-07-05T06:20:51Z</time>
      </trkpt>
      <trkpt lat="46.5641" lon="5.24439">
        <ele>211.8</ele>
        <time>2022-07-05T06:20:54Z</time>
      </trkpt>
      <trkpt lat="46.56384" lon="5.24431">
        <ele>212.4</ele>
        <time>2022-07-05T06:20:59Z</time>
      </trkpt>
      <trkpt lat="46.56368" lon="5.24425">
        <ele>212.8</ele>
        <time>2022-07-05T06:21:02Z</time>
      </trkpt>
      <trkpt lat="46.56342" lon="5.24417">
        <ele>213.4</ele>
        <time>2022-07-05T06:21:07Z</time>
      </trkpt>
      <trkpt lat="46.5631" lon="5.24406">
        <ele>214.4</ele>
        <time>2022-07-05T06:21:13Z</time>
      </trkpt>
      <trkpt lat="46.56299" lon="5.24402">
        <ele>214.6</ele>
        <time>2022-07-05T06:21:15Z</time>
      </trkpt>
      <trkpt lat="46.56252" lon="5.24385">
        <ele>215.2</ele>
        <time>2022-07-05T06:21:23Z</time>
      </trkpt>
      <trkpt lat="46.562" lon="5.24367">
        <ele>215.6</ele>
        <time>2022-07-05T06:21:31Z</time>
      </trkpt>
      <trkpt lat="46.56155" lon="5.24352">
        <ele>215.4</ele>
        <time>2022-07-05T06:21:38Z</time>
      </trkpt>
      <trkpt lat="46.56129" lon="5.24343">
        <ele>215.6</ele>
        <time>2022-07-05T06:21:42Z</time>
      </trkpt>
      <trkpt lat="46.56096" lon="5.24331">
        <ele>215.6</ele>
        <time>2022-07-05T06:21:47Z</time>
      </trkpt>
      <trkpt lat="46.56041" lon="5.24312">
        <ele>215.6</ele>
        <time>2022-07-05T06:21:55Z</time>
      </trkpt>
      <trkpt lat="46.55983" lon="5.24296">
        <ele>215.4</ele>
        <time>2022-07-05T06:22:03Z</time>
      </trkpt>
      <trkpt lat="46.55976" lon="5.24295">
        <ele>215.4</ele>
        <time>2022-07-05T06:22:04Z</time>
      </trkpt>
      <trkpt lat="46.5592" lon="5.24292">
        <ele>215</ele>
        <time>2022-07-05T06:22:11Z</time>
      </trkpt>
      <trkpt lat="46.55894" lon="5.24293">
        <ele>214.4</ele>
        <time>2022-07-05T06:22:14Z</time>
      </trkpt>
      <trkpt lat="46.55867" lon="5.24296">
        <ele>214</ele>
        <time>2022-07-05T06:22:17Z</time>
      </trkpt>
      <trkpt lat="46.55849" lon="5.24297">
        <ele>213.4</ele>
        <time>2022-07-05T06:22:19Z</time>
      </trkpt>
      <trkpt lat="46.55803" lon="5.24301">
        <ele>212.4</ele>
        <time>2022-07-05T06:22:24Z</time>
      </trkpt>
      <trkpt lat="46.55785" lon="5.24302">
        <ele>212</ele>
        <time>2022-07-05T06:22:26Z</time>
      </trkpt>
      <trkpt lat="46.55758" lon="5.24304">
        <ele>211</ele>
        <time>2022-07-05T06:22:29Z</time>
      </trkpt>
      <trkpt lat="46.55698" lon="5.2431">
        <ele>209.8</ele>
        <time>2022-07-05T06:22:36Z</time>
      </trkpt>
      <trkpt lat="46.55638" lon="5.24315">
        <ele>209</ele>
        <time>2022-07-05T06:22:43Z</time>
      </trkpt>
      <trkpt lat="46.55629" lon="5.24315">
        <ele>209</ele>
        <time>2022-07-05T06:22:44Z</time>
      </trkpt>
      <trkpt lat="46.55613" lon="5.24316">
        <ele>208.8</ele>
        <time>2022-07-05T06:22:46Z</time>
      </trkpt>
      <trkpt lat="46.55564" lon="5.2432">
        <ele>208.8</ele>
        <time>2022-07-05T06:22:52Z</time>
      </trkpt>
      <trkpt lat="46.55519" lon="5.24323">
        <ele>208.8</ele>
        <time>2022-07-05T06:22:58Z</time>
      </trkpt>
      <trkpt lat="46.55469" lon="5.24326">
        <ele>209</ele>
        <time>2022-07-05T06:23:05Z</time>
      </trkpt>
      <trkpt lat="46.55429" lon="5.24328">
        <ele>209.6</ele>
        <time>2022-07-05T06:23:11Z</time>
      </trkpt>
      <trkpt lat="46.55423" lon="5.24329">
        <ele>209.6</ele>
        <time>2022-07-05T06:23:12Z</time>
      </trkpt>
      <trkpt lat="46.55385" lon="5.24332">
        <ele>210.2</ele>
        <time>2022-07-05T06:23:18Z</time>
      </trkpt>
      <trkpt lat="46.55365" lon="5.24333">
        <ele>210.4</ele>
        <time>2022-07-05T06:23:21Z</time>
      </trkpt>
      <trkpt lat="46.55345" lon="5.24335">
        <ele>210.6</ele>
        <time>2022-07-05T06:23:24Z</time>
      </trkpt>
      <trkpt lat="46.55296" lon="5.24339">
        <ele>211</ele>
        <time>2022-07-05T06:23:31Z</time>
      </trkpt>
      <trkpt lat="46.5524" lon="5.24342">
        <ele>210.6</ele>
        <time>2022-07-05T06:23:39Z</time>
      </trkpt>
      <trkpt lat="46.55233" lon="5.24343">
        <ele>210.6</ele>
        <time>2022-07-05T06:23:40Z</time>
      </trkpt>
      <trkpt lat="46.55181" lon="5.24346">
        <ele>210.6</ele>
        <time>2022-07-05T06:23:48Z</time>
      </trkpt>
      <trkpt lat="46.55131" lon="5.24357">
        <ele>211.4</ele>
        <time>2022-07-05T06:23:56Z</time>
      </trkpt>
      <trkpt lat="46.5512" lon="5.24362">
        <ele>211.6</ele>
        <time>2022-07-05T06:23:58Z</time>
      </trkpt>
      <trkpt lat="46.55109" lon="5.24368">
        <ele>211.6</ele>
        <time>2022-07-05T06:24:00Z</time>
      </trkpt>
      <trkpt lat="46.55077" lon="5.24388">
        <ele>212.4</ele>
        <time>2022-07-05T06:24:06Z</time>
      </trkpt>
      <trkpt lat="46.55072" lon="5.24391">
        <ele>212.4</ele>
        <time>2022-07-05T06:24:07Z</time>
      </trkpt>
      <trkpt lat="46.55066" lon="5.24394">
        <ele>212.6</ele>
        <time>2022-07-05T06:24:08Z</time>
      </trkpt>
      <trkpt lat="46.55027" lon="5.24418">
        <ele>213.8</ele>
        <time>2022-07-05T06:24:15Z</time>
      </trkpt>
      <trkpt lat="46.55021" lon="5.24422">
        <ele>213.8</ele>
        <time>2022-07-05T06:24:16Z</time>
      </trkpt>
      <trkpt lat="46.54967" lon="5.24456">
        <ele>214.6</ele>
        <time>2022-07-05T06:24:25Z</time>
      </trkpt>
      <trkpt lat="46.54929" lon="5.2448">
        <ele>214.6</ele>
        <time>2022-07-05T06:24:31Z</time>
      </trkpt>
      <trkpt lat="46.54879" lon="5.24513">
        <ele>214.2</ele>
        <time>2022-07-05T06:24:39Z</time>
      </trkpt>
      <trkpt lat="46.54872" lon="5.24517">
        <ele>214.2</ele>
        <time>2022-07-05T06:24:40Z</time>
      </trkpt>
      <trkpt lat="46.54842" lon="5.24534">
        <ele>214</ele>
        <time>2022-07-05T06:24:44Z</time>
      </trkpt>
      <trkpt lat="46.54789" lon="5.24566">
        <ele>213.2</ele>
        <time>2022-07-05T06:24:51Z</time>
      </trkpt>
      <trkpt lat="46.54772" lon="5.24574">
        <ele>212.6</ele>
        <time>2022-07-05T06:24:53Z</time>
      </trkpt>
      <trkpt lat="46.54746" lon="5.24582">
        <ele>211.8</ele>
        <time>2022-07-05T06:24:56Z</time>
      </trkpt>
      <trkpt lat="46.54729" lon="5.24583">
        <ele>211.6</ele>
        <time>2022-07-05T06:24:58Z</time>
      </trkpt>
      <trkpt lat="46.54704" lon="5.24579">
        <ele>210.6</ele>
        <time>2022-07-05T06:25:01Z</time>
      </trkpt>
      <trkpt lat="46.54695" lon="5.24577">
        <ele>210.4</ele>
        <time>2022-07-05T06:25:02Z</time>
      </trkpt>
      <trkpt lat="46.54652" lon="5.24567">
        <ele>209.4</ele>
        <time>2022-07-05T06:25:07Z</time>
      </trkpt>
      <trkpt lat="46.54617" lon="5.24559">
        <ele>208.6</ele>
        <time>2022-07-05T06:25:11Z</time>
      </trkpt>
      <trkpt lat="46.54599" lon="5.24555">
        <ele>208.4</ele>
        <time>2022-07-05T06:25:13Z</time>
      </trkpt>
      <trkpt lat="46.54562" lon="5.24547">
        <ele>207</ele>
        <time>2022-07-05T06:25:17Z</time>
      </trkpt>
      <trkpt lat="46.54526" lon="5.24539">
        <ele>206</ele>
        <time>2022-07-05T06:25:21Z</time>
      </trkpt>
      <trkpt lat="46.54517" lon="5.24537">
        <ele>205.8</ele>
        <time>2022-07-05T06:25:22Z</time>
      </trkpt>
      <trkpt lat="46.54472" lon="5.24527">
        <ele>204.8</ele>
        <time>2022-07-05T06:25:27Z</time>
      </trkpt>
      <trkpt lat="46.54418" lon="5.24516">
        <ele>204</ele>
        <time>2022-07-05T06:25:33Z</time>
      </trkpt>
      <trkpt lat="46.54375" lon="5.24507">
        <ele>203.6</ele>
        <time>2022-07-05T06:25:38Z</time>
      </trkpt>
      <trkpt lat="46.54333" lon="5.24499">
        <ele>203.2</ele>
        <time>2022-07-05T06:25:43Z</time>
      </trkpt>
      <trkpt lat="46.54292" lon="5.2449">
        <ele>202.6</ele>
        <time>2022-07-05T06:25:48Z</time>
      </trkpt>
      <trkpt lat="46.5425" lon="5.24483">
        <ele>202.2</ele>
        <time>2022-07-05T06:25:53Z</time>
      </trkpt>
      <trkpt lat="46.54193" lon="5.24472">
        <ele>201.6</ele>
        <time>2022-07-05T06:26:00Z</time>
      </trkpt>
      <trkpt lat="46.54184" lon="5.2447">
        <ele>201.6</ele>
        <time>2022-07-05T06:26:01Z</time>
      </trkpt>
      <trkpt lat="46.54176" lon="5.24469">
        <ele>201.4</ele>
        <time>2022-07-05T06:26:02Z</time>
      </trkpt>
      <trkpt lat="46.54119" lon="5.24458">
        <ele>200.6</ele>
        <time>2022-07-05T06:26:09Z</time>
      </trkpt>
      <trkpt lat="46.54112" lon="5.24456">
        <ele>200.6</ele>
        <time>2022-07-05T06:26:10Z</time>
      </trkpt>
      <trkpt lat="46.54104" lon="5.24455">
        <ele>200.6</ele>
        <time>2022-07-05T06:26:11Z</time>
      </trkpt>
      <trkpt lat="46.54046" lon="5.24444">
        <ele>200.6</ele>
        <time>2022-07-05T06:26:19Z</time>
      </trkpt>
      <trkpt lat="46.54014" lon="5.24438">
        <ele>201.4</ele>
        <time>2022-07-05T06:26:24Z</time>
      </trkpt>
      <trkpt lat="46.54003" lon="5.24436">
        <ele>201.6</ele>
        <time>2022-07-05T06:26:26Z</time>
      </trkpt>
      <trkpt lat="46.53985" lon="5.24433">
        <ele>202.2</ele>
        <time>2022-07-05T06:26:29Z</time>
      </trkpt>
      <trkpt lat="46.53968" lon="5.24429">
        <ele>202.8</ele>
        <time>2022-07-05T06:26:32Z</time>
      </trkpt>
      <trkpt lat="46.53941" lon="5.24422">
        <ele>203.6</ele>
        <time>2022-07-05T06:26:37Z</time>
      </trkpt>
      <trkpt lat="46.5393" lon="5.2442">
        <ele>203.8</ele>
        <time>2022-07-05T06:26:39Z</time>
      </trkpt>
      <trkpt lat="46.53898" lon="5.24414">
        <ele>205</ele>
        <time>2022-07-05T06:26:45Z</time>
      </trkpt>
      <trkpt lat="46.53893" lon="5.24413">
        <ele>205.2</ele>
        <time>2022-07-05T06:26:46Z</time>
      </trkpt>
      <trkpt lat="46.53871" lon="5.2441">
        <ele>206</ele>
        <time>2022-07-05T06:26:50Z</time>
      </trkpt>
      <trkpt lat="46.53838" lon="5.24404">
        <ele>206.8</ele>
        <time>2022-07-05T06:26:56Z</time>
      </trkpt>
      <trkpt lat="46.53805" lon="5.24399">
        <ele>208</ele>
        <time>2022-07-05T06:27:02Z</time>
      </trkpt>
      <trkpt lat="46.53799" lon="5.24397">
        <ele>208.4</ele>
        <time>2022-07-05T06:27:03Z</time>
      </trkpt>
      <trkpt lat="46.53765" lon="5.24392">
        <ele>209.2</ele>
        <time>2022-07-05T06:27:09Z</time>
      </trkpt>
      <trkpt lat="46.53754" lon="5.2439">
        <ele>209.4</ele>
        <time>2022-07-05T06:27:11Z</time>
      </trkpt>
      <trkpt lat="46.53708" lon="5.24381">
        <ele>210.2</ele>
        <time>2022-07-05T06:27:19Z</time>
      </trkpt>
      <trkpt lat="46.5369" lon="5.24378">
        <ele>210.4</ele>
        <time>2022-07-05T06:27:22Z</time>
      </trkpt>
      <trkpt lat="46.53635" lon="5.24369">
        <ele>210.8</ele>
        <time>2022-07-05T06:27:31Z</time>
      </trkpt>
      <trkpt lat="46.53582" lon="5.24361">
        <ele>211</ele>
        <time>2022-07-05T06:27:39Z</time>
      </trkpt>
      <trkpt lat="46.53576" lon="5.24359">
        <ele>211</ele>
        <time>2022-07-05T06:27:40Z</time>
      </trkpt>
      <trkpt lat="46.53549" lon="5.24354">
        <ele>211.4</ele>
        <time>2022-07-05T06:27:44Z</time>
      </trkpt>
      <trkpt lat="46.53542" lon="5.24353">
        <ele>211.4</ele>
        <time>2022-07-05T06:27:45Z</time>
      </trkpt>
      <trkpt lat="46.53483" lon="5.24341">
        <ele>212</ele>
        <time>2022-07-05T06:27:54Z</time>
      </trkpt>
      <trkpt lat="46.53423" lon="5.2433">
        <ele>212.2</ele>
        <time>2022-07-05T06:28:03Z</time>
      </trkpt>
      <trkpt lat="46.53416" lon="5.24329">
        <ele>212.2</ele>
        <time>2022-07-05T06:28:04Z</time>
      </trkpt>
      <trkpt lat="46.53357" lon="5.24318">
        <ele>212.2</ele>
        <time>2022-07-05T06:28:13Z</time>
      </trkpt>
      <trkpt lat="46.53337" lon="5.24315">
        <ele>212.4</ele>
        <time>2022-07-05T06:28:16Z</time>
      </trkpt>
      <trkpt lat="46.53284" lon="5.24305">
        <ele>212.6</ele>
        <time>2022-07-05T06:28:24Z</time>
      </trkpt>
      <trkpt lat="46.53224" lon="5.24293">
        <ele>213</ele>
        <time>2022-07-05T06:28:33Z</time>
      </trkpt>
      <trkpt lat="46.53217" lon="5.24291">
        <ele>213</ele>
        <time>2022-07-05T06:28:34Z</time>
      </trkpt>
      <trkpt lat="46.53157" lon="5.24278">
        <ele>213</ele>
        <time>2022-07-05T06:28:43Z</time>
      </trkpt>
      <trkpt lat="46.53137" lon="5.24273">
        <ele>213</ele>
        <time>2022-07-05T06:28:46Z</time>
      </trkpt>
      <trkpt lat="46.53084" lon="5.24261">
        <ele>213.2</ele>
        <time>2022-07-05T06:28:54Z</time>
      </trkpt>
      <trkpt lat="46.53077" lon="5.2426">
        <ele>213.4</ele>
        <time>2022-07-05T06:28:55Z</time>
      </trkpt>
      <trkpt lat="46.53064" lon="5.24256">
        <ele>213.4</ele>
        <time>2022-07-05T06:28:57Z</time>
      </trkpt>
      <trkpt lat="46.5301" lon="5.24244">
        <ele>213.8</ele>
        <time>2022-07-05T06:29:05Z</time>
      </trkpt>
      <trkpt lat="46.52956" lon="5.24231">
        <ele>213.6</ele>
        <time>2022-07-05T06:29:13Z</time>
      </trkpt>
      <trkpt lat="46.52929" lon="5.24224">
        <ele>213.6</ele>
        <time>2022-07-05T06:29:17Z</time>
      </trkpt>
      <trkpt lat="46.52874" lon="5.24212">
        <ele>213.8</ele>
        <time>2022-07-05T06:29:25Z</time>
      </trkpt>
      <trkpt lat="46.52868" lon="5.2421">
        <ele>213.8</ele>
        <time>2022-07-05T06:29:26Z</time>
      </trkpt>
      <trkpt lat="46.52815" lon="5.24199">
        <ele>214</ele>
        <time>2022-07-05T06:29:34Z</time>
      </trkpt>
      <trkpt lat="46.52782" lon="5.24191">
        <ele>214.6</ele>
        <time>2022-07-05T06:29:39Z</time>
      </trkpt>
      <trkpt lat="46.52736" lon="5.2418">
        <ele>214.8</ele>
        <time>2022-07-05T06:29:46Z</time>
      </trkpt>
      <trkpt lat="46.52682" lon="5.24167">
        <ele>215</ele>
        <time>2022-07-05T06:29:54Z</time>
      </trkpt>
      <trkpt lat="46.52675" lon="5.24165">
        <ele>215</ele>
        <time>2022-07-05T06:29:55Z</time>
      </trkpt>
      <trkpt lat="46.52661" lon="5.24162">
        <ele>215</ele>
        <time>2022-07-05T06:29:57Z</time>
      </trkpt>
      <trkpt lat="46.52607" lon="5.24149">
        <ele>215</ele>
        <time>2022-07-05T06:30:05Z</time>
      </trkpt>
      <trkpt lat="46.52601" lon="5.24147">
        <ele>215</ele>
        <time>2022-07-05T06:30:06Z</time>
      </trkpt>
      <trkpt lat="46.52547" lon="5.24135">
        <ele>215.4</ele>
        <time>2022-07-05T06:30:15Z</time>
      </trkpt>
      <trkpt lat="46.52526" lon="5.2413">
        <ele>215.4</ele>
        <time>2022-07-05T06:30:18Z</time>
      </trkpt>
      <trkpt lat="46.52467" lon="5.24117">
        <ele>215.4</ele>
        <time>2022-07-05T06:30:26Z</time>
      </trkpt>
      <trkpt lat="46.52413" lon="5.24103">
        <ele>215.2</ele>
        <time>2022-07-05T06:30:33Z</time>
      </trkpt>
      <trkpt lat="46.52396" lon="5.24099">
        <ele>215</ele>
        <time>2022-07-05T06:30:35Z</time>
      </trkpt>
      <trkpt lat="46.52341" lon="5.2409">
        <ele>214.6</ele>
        <time>2022-07-05T06:30:42Z</time>
      </trkpt>
      <trkpt lat="46.52301" lon="5.24094">
        <ele>214.6</ele>
        <time>2022-07-05T06:30:47Z</time>
      </trkpt>
      <trkpt lat="46.52246" lon="5.24103">
        <ele>214.6</ele>
        <time>2022-07-05T06:30:54Z</time>
      </trkpt>
      <trkpt lat="46.52231" lon="5.24106">
        <ele>214.4</ele>
        <time>2022-07-05T06:30:56Z</time>
      </trkpt>
      <trkpt lat="46.52177" lon="5.24114">
        <ele>213.8</ele>
        <time>2022-07-05T06:31:03Z</time>
      </trkpt>
      <trkpt lat="46.52169" lon="5.24115">
        <ele>213.8</ele>
        <time>2022-07-05T06:31:04Z</time>
      </trkpt>
      <trkpt lat="46.52153" lon="5.24118">
        <ele>213.4</ele>
        <time>2022-07-05T06:31:06Z</time>
      </trkpt>
      <trkpt lat="46.52096" lon="5.24127">
        <ele>212.6</ele>
        <time>2022-07-05T06:31:13Z</time>
      </trkpt>
      <trkpt lat="46.5208" lon="5.24129">
        <ele>212.2</ele>
        <time>2022-07-05T06:31:15Z</time>
      </trkpt>
      <trkpt lat="46.52071" lon="5.2413">
        <ele>212</ele>
        <time>2022-07-05T06:31:16Z</time>
      </trkpt>
      <trkpt lat="46.52045" lon="5.24134">
        <ele>211.2</ele>
        <time>2022-07-05T06:31:19Z</time>
      </trkpt>
      <trkpt lat="46.51985" lon="5.24145">
        <ele>210</ele>
        <time>2022-07-05T06:31:26Z</time>
      </trkpt>
      <trkpt lat="46.5193" lon="5.24155">
        <ele>209</ele>
        <time>2022-07-05T06:31:32Z</time>
      </trkpt>
      <trkpt lat="46.51902" lon="5.24159">
        <ele>208.2</ele>
        <time>2022-07-05T06:31:35Z</time>
      </trkpt>
      <trkpt lat="46.51884" lon="5.24162">
        <ele>207.8</ele>
        <time>2022-07-05T06:31:37Z</time>
      </trkpt>
      <trkpt lat="46.51834" lon="5.24171">
        <ele>207.2</ele>
        <time>2022-07-05T06:31:43Z</time>
      </trkpt>
      <trkpt lat="46.51775" lon="5.2418">
        <ele>208</ele>
        <time>2022-07-05T06:31:51Z</time>
      </trkpt>
      <trkpt lat="46.5173" lon="5.24188">
        <ele>208.6</ele>
        <time>2022-07-05T06:31:58Z</time>
      </trkpt>
      <trkpt lat="46.51699" lon="5.24196">
        <ele>209</ele>
        <time>2022-07-05T06:32:03Z</time>
      </trkpt>
      <trkpt lat="46.5168" lon="5.24203">
        <ele>209.2</ele>
        <time>2022-07-05T06:32:06Z</time>
      </trkpt>
      <trkpt lat="46.51625" lon="5.24224">
        <ele>209.4</ele>
        <time>2022-07-05T06:32:14Z</time>
      </trkpt>
      <trkpt lat="46.51617" lon="5.24228">
        <ele>209.2</ele>
        <time>2022-07-05T06:32:15Z</time>
      </trkpt>
      <trkpt lat="46.51558" lon="5.24252">
        <ele>208.2</ele>
        <time>2022-07-05T06:32:22Z</time>
      </trkpt>
      <trkpt lat="46.51541" lon="5.24258">
        <ele>207.8</ele>
        <time>2022-07-05T06:32:24Z</time>
      </trkpt>
      <trkpt lat="46.51496" lon="5.24276">
        <ele>206.4</ele>
        <time>2022-07-05T06:32:29Z</time>
      </trkpt>
      <trkpt lat="46.51478" lon="5.24283">
        <ele>206.2</ele>
        <time>2022-07-05T06:32:31Z</time>
      </trkpt>
      <trkpt lat="46.51441" lon="5.24298">
        <ele>205</ele>
        <time>2022-07-05T06:32:35Z</time>
      </trkpt>
      <trkpt lat="46.51412" lon="5.2431">
        <ele>204</ele>
        <time>2022-07-05T06:32:38Z</time>
      </trkpt>
      <trkpt lat="46.51384" lon="5.24321">
        <ele>202.8</ele>
        <time>2022-07-05T06:32:41Z</time>
      </trkpt>
      <trkpt lat="46.51364" lon="5.24329">
        <ele>202</ele>
        <time>2022-07-05T06:32:43Z</time>
      </trkpt>
      <trkpt lat="46.51355" lon="5.24333">
        <ele>201.8</ele>
        <time>2022-07-05T06:32:44Z</time>
      </trkpt>
      <trkpt lat="46.51325" lon="5.24345">
        <ele>200.6</ele>
        <time>2022-07-05T06:32:47Z</time>
      </trkpt>
      <trkpt lat="46.51277" lon="5.24363">
        <ele>199.2</ele>
        <time>2022-07-05T06:32:52Z</time>
      </trkpt>
      <trkpt lat="46.51248" lon="5.24374">
        <ele>198.6</ele>
        <time>2022-07-05T06:32:55Z</time>
      </trkpt>
      <trkpt lat="46.51238" lon="5.24378">
        <ele>197.8</ele>
        <time>2022-07-05T06:32:56Z</time>
      </trkpt>
      <trkpt lat="46.51182" lon="5.24399">
        <ele>197</ele>
        <time>2022-07-05T06:33:02Z</time>
      </trkpt>
      <trkpt lat="46.51173" lon="5.24403">
        <ele>196.8</ele>
        <time>2022-07-05T06:33:03Z</time>
      </trkpt>
      <trkpt lat="46.51164" lon="5.24406">
        <ele>196.8</ele>
        <time>2022-07-05T06:33:04Z</time>
      </trkpt>
      <trkpt lat="46.51105" lon="5.2443">
        <ele>196.2</ele>
        <time>2022-07-05T06:33:11Z</time>
      </trkpt>
      <trkpt lat="46.51088" lon="5.24436">
        <ele>196.2</ele>
        <time>2022-07-05T06:33:13Z</time>
      </trkpt>
      <trkpt lat="46.51033" lon="5.24457">
        <ele>196.2</ele>
        <time>2022-07-05T06:33:20Z</time>
      </trkpt>
      <trkpt lat="46.51017" lon="5.24463">
        <ele>196.2</ele>
        <time>2022-07-05T06:33:22Z</time>
      </trkpt>
      <trkpt lat="46.50958" lon="5.24485">
        <ele>196.4</ele>
        <time>2022-07-05T06:33:30Z</time>
      </trkpt>
      <trkpt lat="46.50901" lon="5.24508">
        <ele>196.8</ele>
        <time>2022-07-05T06:33:38Z</time>
      </trkpt>
      <trkpt lat="46.50895" lon="5.2451">
        <ele>196.8</ele>
        <time>2022-07-05T06:33:39Z</time>
      </trkpt>
      <trkpt lat="46.5084" lon="5.24532">
        <ele>197.2</ele>
        <time>2022-07-05T06:33:47Z</time>
      </trkpt>
      <trkpt lat="46.50813" lon="5.24542">
        <ele>197.6</ele>
        <time>2022-07-05T06:33:51Z</time>
      </trkpt>
      <trkpt lat="46.50781" lon="5.24555">
        <ele>198</ele>
        <time>2022-07-05T06:33:56Z</time>
      </trkpt>
      <trkpt lat="46.50748" lon="5.24567">
        <ele>198.6</ele>
        <time>2022-07-05T06:34:01Z</time>
      </trkpt>
      <trkpt lat="46.50736" lon="5.24572">
        <ele>199</ele>
        <time>2022-07-05T06:34:03Z</time>
      </trkpt>
      <trkpt lat="46.50699" lon="5.24582">
        <ele>199.8</ele>
        <time>2022-07-05T06:34:09Z</time>
      </trkpt>
      <trkpt lat="46.50681" lon="5.24586">
        <ele>200</ele>
        <time>2022-07-05T06:34:12Z</time>
      </trkpt>
      <trkpt lat="46.50652" lon="5.24589">
        <ele>200.8</ele>
        <time>2022-07-05T06:34:17Z</time>
      </trkpt>
      <trkpt lat="46.5064" lon="5.2459">
        <ele>201.4</ele>
        <time>2022-07-05T06:34:19Z</time>
      </trkpt>
      <trkpt lat="46.50598" lon="5.24595">
        <ele>202.4</ele>
        <time>2022-07-05T06:34:26Z</time>
      </trkpt>
      <trkpt lat="46.50586" lon="5.24596">
        <ele>202.6</ele>
        <time>2022-07-05T06:34:28Z</time>
      </trkpt>
      <trkpt lat="46.50529" lon="5.24603">
        <ele>203.2</ele>
        <time>2022-07-05T06:34:37Z</time>
      </trkpt>
      <trkpt lat="46.50515" lon="5.24604">
        <ele>203.2</ele>
        <time>2022-07-05T06:34:39Z</time>
      </trkpt>
      <trkpt lat="46.50464" lon="5.24599">
        <ele>203</ele>
        <time>2022-07-05T06:34:46Z</time>
      </trkpt>
      <trkpt lat="46.50419" lon="5.24578">
        <ele>202.4</ele>
        <time>2022-07-05T06:34:52Z</time>
      </trkpt>
      <trkpt lat="46.50369" lon="5.24542">
        <ele>202</ele>
        <time>2022-07-05T06:34:59Z</time>
      </trkpt>
      <trkpt lat="46.5032" lon="5.24507">
        <ele>201.6</ele>
        <time>2022-07-05T06:35:06Z</time>
      </trkpt>
      <trkpt lat="46.50299" lon="5.24491">
        <ele>201.4</ele>
        <time>2022-07-05T06:35:09Z</time>
      </trkpt>
      <trkpt lat="46.50292" lon="5.24486">
        <ele>201.4</ele>
        <time>2022-07-05T06:35:10Z</time>
      </trkpt>
      <trkpt lat="46.50243" lon="5.2445">
        <ele>201</ele>
        <time>2022-07-05T06:35:17Z</time>
      </trkpt>
      <trkpt lat="46.50222" lon="5.24435">
        <ele>200.4</ele>
        <time>2022-07-05T06:35:20Z</time>
      </trkpt>
      <trkpt lat="46.50215" lon="5.2443">
        <ele>200.2</ele>
        <time>2022-07-05T06:35:21Z</time>
      </trkpt>
      <trkpt lat="46.50164" lon="5.24392">
        <ele>199.2</ele>
        <time>2022-07-05T06:35:28Z</time>
      </trkpt>
      <trkpt lat="46.50113" lon="5.2436">
        <ele>198.4</ele>
        <time>2022-07-05T06:35:35Z</time>
      </trkpt>
      <trkpt lat="46.50106" lon="5.24356">
        <ele>198.4</ele>
        <time>2022-07-05T06:35:36Z</time>
      </trkpt>
      <trkpt lat="46.50054" lon="5.24327">
        <ele>198.4</ele>
        <time>2022-07-05T06:35:44Z</time>
      </trkpt>
      <trkpt lat="46.50047" lon="5.24323">
        <ele>198.4</ele>
        <time>2022-07-05T06:35:45Z</time>
      </trkpt>
      <trkpt lat="46.49993" lon="5.24291">
        <ele>198.4</ele>
        <time>2022-07-05T06:35:53Z</time>
      </trkpt>
      <trkpt lat="46.49965" lon="5.24276">
        <ele>198.2</ele>
        <time>2022-07-05T06:35:57Z</time>
      </trkpt>
      <trkpt lat="46.49931" lon="5.24257">
        <ele>197.6</ele>
        <time>2022-07-05T06:36:02Z</time>
      </trkpt>
      <trkpt lat="46.49886" lon="5.24232">
        <ele>197.6</ele>
        <time>2022-07-05T06:36:09Z</time>
      </trkpt>
      <trkpt lat="46.49841" lon="5.24206">
        <ele>198.8</ele>
        <time>2022-07-05T06:36:17Z</time>
      </trkpt>
      <trkpt lat="46.4982" lon="5.24193">
        <ele>199.4</ele>
        <time>2022-07-05T06:36:21Z</time>
      </trkpt>
      <trkpt lat="46.49787" lon="5.24173">
        <ele>200.4</ele>
        <time>2022-07-05T06:36:27Z</time>
      </trkpt>
      <trkpt lat="46.49767" lon="5.24161">
        <ele>201.2</ele>
        <time>2022-07-05T06:36:31Z</time>
      </trkpt>
      <trkpt lat="46.49742" lon="5.24146">
        <ele>202.4</ele>
        <time>2022-07-05T06:36:36Z</time>
      </trkpt>
      <trkpt lat="46.49732" lon="5.2414">
        <ele>202.6</ele>
        <time>2022-07-05T06:36:38Z</time>
      </trkpt>
      <trkpt lat="46.49708" lon="5.24125">
        <ele>203.4</ele>
        <time>2022-07-05T06:36:43Z</time>
      </trkpt>
      <trkpt lat="46.49689" lon="5.24115">
        <ele>204.4</ele>
        <time>2022-07-05T06:36:47Z</time>
      </trkpt>
      <trkpt lat="46.49679" lon="5.2411">
        <ele>204.8</ele>
        <time>2022-07-05T06:36:49Z</time>
      </trkpt>
      <trkpt lat="46.49649" lon="5.24099">
        <ele>205.8</ele>
        <time>2022-07-05T06:36:55Z</time>
      </trkpt>
      <trkpt lat="46.49616" lon="5.24093">
        <ele>206.8</ele>
        <time>2022-07-05T06:37:02Z</time>
      </trkpt>
      <trkpt lat="46.49606" lon="5.24093">
        <ele>207.2</ele>
        <time>2022-07-05T06:37:04Z</time>
      </trkpt>
      <trkpt lat="46.49586" lon="5.24094">
        <ele>208</ele>
        <time>2022-07-05T06:37:08Z</time>
      </trkpt>
      <trkpt lat="46.49571" lon="5.24097">
        <ele>208.4</ele>
        <time>2022-07-05T06:37:11Z</time>
      </trkpt>
      <trkpt lat="46.49551" lon="5.24103">
        <ele>209.2</ele>
        <time>2022-07-05T06:37:15Z</time>
      </trkpt>
      <trkpt lat="46.49522" lon="5.24117">
        <ele>210.4</ele>
        <time>2022-07-05T06:37:21Z</time>
      </trkpt>
      <trkpt lat="46.49485" lon="5.24139">
        <ele>211.6</ele>
        <time>2022-07-05T06:37:29Z</time>
      </trkpt>
      <trkpt lat="46.49472" lon="5.24148">
        <ele>212</ele>
        <time>2022-07-05T06:37:32Z</time>
      </trkpt>
      <trkpt lat="46.49445" lon="5.24167">
        <ele>212.8</ele>
        <time>2022-07-05T06:37:38Z</time>
      </trkpt>
      <trkpt lat="46.49418" lon="5.24185">
        <ele>214</ele>
        <time>2022-07-05T06:37:44Z</time>
      </trkpt>
      <trkpt lat="46.49367" lon="5.2422">
        <ele>214.8</ele>
        <time>2022-07-05T06:37:54Z</time>
      </trkpt>
      <trkpt lat="46.4932" lon="5.24251">
        <ele>215</ele>
        <time>2022-07-05T06:38:02Z</time>
      </trkpt>
      <trkpt lat="46.49302" lon="5.24264">
        <ele>215</ele>
        <time>2022-07-05T06:38:05Z</time>
      </trkpt>
      <trkpt lat="46.49272" lon="5.24284">
        <ele>215.2</ele>
        <time>2022-07-05T06:38:10Z</time>
      </trkpt>
      <trkpt lat="46.49227" lon="5.24314">
        <ele>215.4</ele>
        <time>2022-07-05T06:38:17Z</time>
      </trkpt>
      <trkpt lat="46.49183" lon="5.24345">
        <ele>215.6</ele>
        <time>2022-07-05T06:38:24Z</time>
      </trkpt>
      <trkpt lat="46.49133" lon="5.24378">
        <ele>215.8</ele>
        <time>2022-07-05T06:38:32Z</time>
      </trkpt>
      <trkpt lat="46.49126" lon="5.24382">
        <ele>215.8</ele>
        <time>2022-07-05T06:38:33Z</time>
      </trkpt>
      <trkpt lat="46.49091" lon="5.24407">
        <ele>216</ele>
        <time>2022-07-05T06:38:39Z</time>
      </trkpt>
      <trkpt lat="46.49084" lon="5.2441">
        <ele>216</ele>
        <time>2022-07-05T06:38:40Z</time>
      </trkpt>
      <trkpt lat="46.49043" lon="5.24438">
        <ele>216</ele>
        <time>2022-07-05T06:38:47Z</time>
      </trkpt>
      <trkpt lat="46.49002" lon="5.24465">
        <ele>216.2</ele>
        <time>2022-07-05T06:38:54Z</time>
      </trkpt>
      <trkpt lat="46.48996" lon="5.24469">
        <ele>216.4</ele>
        <time>2022-07-05T06:38:55Z</time>
      </trkpt>
      <trkpt lat="46.4895" lon="5.24502">
        <ele>216.8</ele>
        <time>2022-07-05T06:39:03Z</time>
      </trkpt>
      <trkpt lat="46.48939" lon="5.24509">
        <ele>216.8</ele>
        <time>2022-07-05T06:39:05Z</time>
      </trkpt>
      <trkpt lat="46.48922" lon="5.2452">
        <ele>217.4</ele>
        <time>2022-07-05T06:39:08Z</time>
      </trkpt>
      <trkpt lat="46.48882" lon="5.24547">
        <ele>218.2</ele>
        <time>2022-07-05T06:39:15Z</time>
      </trkpt>
      <trkpt lat="46.48854" lon="5.24566">
        <ele>218.8</ele>
        <time>2022-07-05T06:39:20Z</time>
      </trkpt>
      <trkpt lat="46.48832" lon="5.24582">
        <ele>219.2</ele>
        <time>2022-07-05T06:39:24Z</time>
      </trkpt>
      <trkpt lat="46.48815" lon="5.24593">
        <ele>219.6</ele>
        <time>2022-07-05T06:39:27Z</time>
      </trkpt>
      <trkpt lat="46.48788" lon="5.24611">
        <ele>220.2</ele>
        <time>2022-07-05T06:39:32Z</time>
      </trkpt>
      <trkpt lat="46.48764" lon="5.24624">
        <ele>220.6</ele>
        <time>2022-07-05T06:39:36Z</time>
      </trkpt>
      <trkpt lat="46.48757" lon="5.24626">
        <ele>220.6</ele>
        <time>2022-07-05T06:39:37Z</time>
      </trkpt>
      <trkpt lat="46.48735" lon="5.24626">
        <ele>220.4</ele>
        <time>2022-07-05T06:39:40Z</time>
      </trkpt>
      <trkpt lat="46.48698" lon="5.24614">
        <ele>220.4</ele>
        <time>2022-07-05T06:39:45Z</time>
      </trkpt>
      <trkpt lat="46.48642" lon="5.24584">
        <ele>219.8</ele>
        <time>2022-07-05T06:39:53Z</time>
      </trkpt>
      <trkpt lat="46.48606" lon="5.24563">
        <ele>220.4</ele>
        <time>2022-07-05T06:39:59Z</time>
      </trkpt>
      <trkpt lat="46.48572" lon="5.24535">
        <ele>220.8</ele>
        <time>2022-07-05T06:40:05Z</time>
      </trkpt>
      <trkpt lat="46.4854" lon="5.24496">
        <ele>221</ele>
        <time>2022-07-05T06:40:11Z</time>
      </trkpt>
      <trkpt lat="46.48509" lon="5.24459">
        <ele>220.8</ele>
        <time>2022-07-05T06:40:16Z</time>
      </trkpt>
      <trkpt lat="46.48463" lon="5.24404">
        <ele>219.6</ele>
        <time>2022-07-05T06:40:23Z</time>
      </trkpt>
      <trkpt lat="46.48456" lon="5.24396">
        <ele>219.2</ele>
        <time>2022-07-05T06:40:24Z</time>
      </trkpt>
      <trkpt lat="46.48418" lon="5.24358">
        <ele>218.6</ele>
        <time>2022-07-05T06:40:30Z</time>
      </trkpt>
      <trkpt lat="46.48399" lon="5.24345">
        <ele>218.6</ele>
        <time>2022-07-05T06:40:33Z</time>
      </trkpt>
      <trkpt lat="46.48386" lon="5.24339">
        <ele>218.6</ele>
        <time>2022-07-05T06:40:35Z</time>
      </trkpt>
      <trkpt lat="46.48357" lon="5.24327">
        <ele>219</ele>
        <time>2022-07-05T06:40:40Z</time>
      </trkpt>
      <trkpt lat="46.48351" lon="5.24324">
        <ele>219</ele>
        <time>2022-07-05T06:40:41Z</time>
      </trkpt>
      <trkpt lat="46.48347" lon="5.2432">
        <ele>219.6</ele>
        <time>2022-07-05T06:40:42Z</time>
      </trkpt>
      <trkpt lat="46.4833" lon="5.243">
        <ele>220.4</ele>
        <time>2022-07-05T06:40:46Z</time>
      </trkpt>
      <trkpt lat="46.48321" lon="5.24287">
        <ele>220.8</ele>
        <time>2022-07-05T06:40:48Z</time>
      </trkpt>
      <trkpt lat="46.48316" lon="5.24282">
        <ele>221.4</ele>
        <time>2022-07-05T06:40:49Z</time>
      </trkpt>
      <trkpt lat="46.48311" lon="5.24277">
        <ele>221.6</ele>
        <time>2022-07-05T06:40:50Z</time>
      </trkpt>
      <trkpt lat="46.48305" lon="5.24273">
        <ele>221.8</ele>
        <time>2022-07-05T06:40:51Z</time>
      </trkpt>
      <trkpt lat="46.48294" lon="5.24268">
        <ele>222</ele>
        <time>2022-07-05T06:40:53Z</time>
      </trkpt>
      <trkpt lat="46.4827" lon="5.2426">
        <ele>222.2</ele>
        <time>2022-07-05T06:40:57Z</time>
      </trkpt>
      <trkpt lat="46.48264" lon="5.24258">
        <ele>222.4</ele>
        <time>2022-07-05T06:40:58Z</time>
      </trkpt>
      <trkpt lat="46.48227" lon="5.24249">
        <ele>223.2</ele>
        <time>2022-07-05T06:41:04Z</time>
      </trkpt>
      <trkpt lat="46.48221" lon="5.24248">
        <ele>223.4</ele>
        <time>2022-07-05T06:41:05Z</time>
      </trkpt>
      <trkpt lat="46.48214" lon="5.24247">
        <ele>223.6</ele>
        <time>2022-07-05T06:41:06Z</time>
      </trkpt>
      <trkpt lat="46.48202" lon="5.2425">
        <ele>223.8</ele>
        <time>2022-07-05T06:41:08Z</time>
      </trkpt>
      <trkpt lat="46.48189" lon="5.24257">
        <ele>223.8</ele>
        <time>2022-07-05T06:41:10Z</time>
      </trkpt>
      <trkpt lat="46.48178" lon="5.24268">
        <ele>223.8</ele>
        <time>2022-07-05T06:41:12Z</time>
      </trkpt>
      <trkpt lat="46.48133" lon="5.24325">
        <ele>222.8</ele>
        <time>2022-07-05T06:41:21Z</time>
      </trkpt>
      <trkpt lat="46.48128" lon="5.24332">
        <ele>222.6</ele>
        <time>2022-07-05T06:41:22Z</time>
      </trkpt>
      <trkpt lat="46.48089" lon="5.24377">
        <ele>221.4</ele>
        <time>2022-07-05T06:41:29Z</time>
      </trkpt>
      <trkpt lat="46.48083" lon="5.24383">
        <ele>221.4</ele>
        <time>2022-07-05T06:41:30Z</time>
      </trkpt>
      <trkpt lat="46.48033" lon="5.24421">
        <ele>221.2</ele>
        <time>2022-07-05T06:41:38Z</time>
      </trkpt>
      <trkpt lat="46.47983" lon="5.24454">
        <ele>221.6</ele>
        <time>2022-07-05T06:41:46Z</time>
      </trkpt>
      <trkpt lat="46.47977" lon="5.24458">
        <ele>221.6</ele>
        <time>2022-07-05T06:41:47Z</time>
      </trkpt>
      <trkpt lat="46.47924" lon="5.24492">
        <ele>222</ele>
        <time>2022-07-05T06:41:56Z</time>
      </trkpt>
      <trkpt lat="46.47917" lon="5.24494">
        <ele>222</ele>
        <time>2022-07-05T06:41:57Z</time>
      </trkpt>
      <trkpt lat="46.47898" lon="5.24497">
        <ele>222.4</ele>
        <time>2022-07-05T06:42:00Z</time>
      </trkpt>
      <trkpt lat="46.47879" lon="5.24496">
        <ele>223</ele>
        <time>2022-07-05T06:42:03Z</time>
      </trkpt>
      <trkpt lat="46.47821" lon="5.24495">
        <ele>223.2</ele>
        <time>2022-07-05T06:42:11Z</time>
      </trkpt>
      <trkpt lat="46.47768" lon="5.24501">
        <ele>222.6</ele>
        <time>2022-07-05T06:42:18Z</time>
      </trkpt>
      <trkpt lat="46.47714" lon="5.24516">
        <ele>221.4</ele>
        <time>2022-07-05T06:42:25Z</time>
      </trkpt>
      <trkpt lat="46.47707" lon="5.24519">
        <ele>221.2</ele>
        <time>2022-07-05T06:42:26Z</time>
      </trkpt>
      <trkpt lat="46.47651" lon="5.24546">
        <ele>221</ele>
        <time>2022-07-05T06:42:34Z</time>
      </trkpt>
      <trkpt lat="46.47595" lon="5.24578">
        <ele>221</ele>
        <time>2022-07-05T06:42:42Z</time>
      </trkpt>
      <trkpt lat="46.47581" lon="5.24587">
        <ele>221</ele>
        <time>2022-07-05T06:42:44Z</time>
      </trkpt>
      <trkpt lat="46.47528" lon="5.24617">
        <ele>220.4</ele>
        <time>2022-07-05T06:42:51Z</time>
      </trkpt>
      <trkpt lat="46.47481" lon="5.24635">
        <ele>219.8</ele>
        <time>2022-07-05T06:42:57Z</time>
      </trkpt>
      <trkpt lat="46.47432" lon="5.24639">
        <ele>219.4</ele>
        <time>2022-07-05T06:43:03Z</time>
      </trkpt>
      <trkpt lat="46.474" lon="5.24642">
        <ele>219.2</ele>
        <time>2022-07-05T06:43:07Z</time>
      </trkpt>
      <trkpt lat="46.47367" lon="5.24645">
        <ele>218.8</ele>
        <time>2022-07-05T06:43:11Z</time>
      </trkpt>
      <trkpt lat="46.47317" lon="5.2465">
        <ele>218.2</ele>
        <time>2022-07-05T06:43:17Z</time>
      </trkpt>
      <trkpt lat="46.47299" lon="5.24651">
        <ele>218</ele>
        <time>2022-07-05T06:43:19Z</time>
      </trkpt>
      <trkpt lat="46.47246" lon="5.24652">
        <ele>217</ele>
        <time>2022-07-05T06:43:25Z</time>
      </trkpt>
      <trkpt lat="46.47219" lon="5.2465">
        <ele>216</ele>
        <time>2022-07-05T06:43:28Z</time>
      </trkpt>
      <trkpt lat="46.47184" lon="5.24648">
        <ele>214.6</ele>
        <time>2022-07-05T06:43:32Z</time>
      </trkpt>
      <trkpt lat="46.47166" lon="5.24645">
        <ele>214</ele>
        <time>2022-07-05T06:43:34Z</time>
      </trkpt>
      <trkpt lat="46.47157" lon="5.24643">
        <ele>213.6</ele>
        <time>2022-07-05T06:43:35Z</time>
      </trkpt>
      <trkpt lat="46.47148" lon="5.24639">
        <ele>213.6</ele>
        <time>2022-07-05T06:43:36Z</time>
      </trkpt>
      <trkpt lat="46.47114" lon="5.24625">
        <ele>212.6</ele>
        <time>2022-07-05T06:43:40Z</time>
      </trkpt>
      <trkpt lat="46.47105" lon="5.24626">
        <ele>212.4</ele>
        <time>2022-07-05T06:43:41Z</time>
      </trkpt>
      <trkpt lat="46.47098" lon="5.2463">
        <ele>211.6</ele>
        <time>2022-07-05T06:43:42Z</time>
      </trkpt>
      <trkpt lat="46.47091" lon="5.24636">
        <ele>211.4</ele>
        <time>2022-07-05T06:43:43Z</time>
      </trkpt>
      <trkpt lat="46.47087" lon="5.24646">
        <ele>211</ele>
        <time>2022-07-05T06:43:44Z</time>
      </trkpt>
      <trkpt lat="46.47077" lon="5.24678">
        <ele>210</ele>
        <time>2022-07-05T06:43:47Z</time>
      </trkpt>
      <trkpt lat="46.47065" lon="5.2471">
        <ele>209.2</ele>
        <time>2022-07-05T06:43:50Z</time>
      </trkpt>
      <trkpt lat="46.47048" lon="5.24742">
        <ele>208.8</ele>
        <time>2022-07-05T06:43:53Z</time>
      </trkpt>
      <trkpt lat="46.47034" lon="5.24765">
        <ele>208.8</ele>
        <time>2022-07-05T06:43:55Z</time>
      </trkpt>
      <trkpt lat="46.47018" lon="5.24785">
        <ele>208.4</ele>
        <time>2022-07-05T06:43:57Z</time>
      </trkpt>
      <trkpt lat="46.47" lon="5.24802">
        <ele>207.8</ele>
        <time>2022-07-05T06:43:59Z</time>
      </trkpt>
      <trkpt lat="46.46972" lon="5.24827">
        <ele>206.8</ele>
        <time>2022-07-05T06:44:02Z</time>
      </trkpt>
      <trkpt lat="46.46955" lon="5.24842">
        <ele>205.6</ele>
        <time>2022-07-05T06:44:04Z</time>
      </trkpt>
      <trkpt lat="46.46946" lon="5.24849">
        <ele>205.2</ele>
        <time>2022-07-05T06:44:05Z</time>
      </trkpt>
      <trkpt lat="46.4693" lon="5.24862">
        <ele>204.2</ele>
        <time>2022-07-05T06:44:07Z</time>
      </trkpt>
      <trkpt lat="46.46908" lon="5.24879">
        <ele>203.8</ele>
        <time>2022-07-05T06:44:10Z</time>
      </trkpt>
      <trkpt lat="46.46869" lon="5.24912">
        <ele>204.4</ele>
        <time>2022-07-05T06:44:16Z</time>
      </trkpt>
      <trkpt lat="46.46862" lon="5.24917">
        <ele>204.6</ele>
        <time>2022-07-05T06:44:17Z</time>
      </trkpt>
      <trkpt lat="46.46832" lon="5.24942">
        <ele>205.4</ele>
        <time>2022-07-05T06:44:22Z</time>
      </trkpt>
      <trkpt lat="46.4682" lon="5.24951">
        <ele>205.6</ele>
        <time>2022-07-05T06:44:24Z</time>
      </trkpt>
      <trkpt lat="46.46793" lon="5.24973">
        <ele>206.6</ele>
        <time>2022-07-05T06:44:29Z</time>
      </trkpt>
      <trkpt lat="46.46788" lon="5.24978">
        <ele>206.6</ele>
        <time>2022-07-05T06:44:30Z</time>
      </trkpt>
      <trkpt lat="46.46779" lon="5.24985">
        <ele>206.8</ele>
        <time>2022-07-05T06:44:32Z</time>
      </trkpt>
      <trkpt lat="46.46765" lon="5.24995">
        <ele>207.6</ele>
        <time>2022-07-05T06:44:35Z</time>
      </trkpt>
      <trkpt lat="46.46756" lon="5.25002">
        <ele>208.4</ele>
        <time>2022-07-05T06:44:37Z</time>
      </trkpt>
      <trkpt lat="46.4675" lon="5.25005">
        <ele>208.8</ele>
        <time>2022-07-05T06:44:38Z</time>
      </trkpt>
      <trkpt lat="46.46741" lon="5.25012">
        <ele>209</ele>
        <time>2022-07-05T06:44:40Z</time>
      </trkpt>
      <trkpt lat="46.46721" lon="5.25029">
        <ele>209.4</ele>
        <time>2022-07-05T06:44:44Z</time>
      </trkpt>
      <trkpt lat="46.46708" lon="5.25038">
        <ele>209.6</ele>
        <time>2022-07-05T06:44:46Z</time>
      </trkpt>
      <trkpt lat="46.46664" lon="5.25074">
        <ele>209.6</ele>
        <time>2022-07-05T06:44:53Z</time>
      </trkpt>
      <trkpt lat="46.46636" lon="5.25098">
        <ele>209.8</ele>
        <time>2022-07-05T06:44:58Z</time>
      </trkpt>
      <trkpt lat="46.46631" lon="5.25102">
        <ele>209.8</ele>
        <time>2022-07-05T06:44:59Z</time>
      </trkpt>
      <trkpt lat="46.46601" lon="5.25126">
        <ele>210.8</ele>
        <time>2022-07-05T06:45:05Z</time>
      </trkpt>
      <trkpt lat="46.4659" lon="5.25135">
        <ele>211</ele>
        <time>2022-07-05T06:45:07Z</time>
      </trkpt>
      <trkpt lat="46.46585" lon="5.25139">
        <ele>211.2</ele>
        <time>2022-07-05T06:45:08Z</time>
      </trkpt>
      <trkpt lat="46.46564" lon="5.25156">
        <ele>211.4</ele>
        <time>2022-07-05T06:45:12Z</time>
      </trkpt>
      <trkpt lat="46.46535" lon="5.25178">
        <ele>212</ele>
        <time>2022-07-05T06:45:17Z</time>
      </trkpt>
      <trkpt lat="46.46524" lon="5.25187">
        <ele>212</ele>
        <time>2022-07-05T06:45:19Z</time>
      </trkpt>
      <trkpt lat="46.4649" lon="5.25215">
        <ele>212.2</ele>
        <time>2022-07-05T06:45:25Z</time>
      </trkpt>
      <trkpt lat="46.46453" lon="5.25243">
        <ele>213</ele>
        <time>2022-07-05T06:45:32Z</time>
      </trkpt>
      <trkpt lat="46.46448" lon="5.25248">
        <ele>213</ele>
        <time>2022-07-05T06:45:33Z</time>
      </trkpt>
      <trkpt lat="46.46415" lon="5.25275">
        <ele>214.2</ele>
        <time>2022-07-05T06:45:40Z</time>
      </trkpt>
      <trkpt lat="46.4641" lon="5.2528">
        <ele>214.2</ele>
        <time>2022-07-05T06:45:41Z</time>
      </trkpt>
      <trkpt lat="46.46386" lon="5.25311">
        <ele>215.2</ele>
        <time>2022-07-05T06:45:47Z</time>
      </trkpt>
      <trkpt lat="46.46382" lon="5.25317">
        <ele>215.2</ele>
        <time>2022-07-05T06:45:48Z</time>
      </trkpt>
      <trkpt lat="46.46359" lon="5.25356">
        <ele>216.2</ele>
        <time>2022-07-05T06:45:54Z</time>
      </trkpt>
      <trkpt lat="46.46351" lon="5.2537">
        <ele>216.4</ele>
        <time>2022-07-05T06:45:56Z</time>
      </trkpt>
      <trkpt lat="46.46322" lon="5.25419">
        <ele>217.4</ele>
        <time>2022-07-05T06:46:03Z</time>
      </trkpt>
      <trkpt lat="46.46317" lon="5.25428">
        <ele>217.4</ele>
        <time>2022-07-05T06:46:04Z</time>
      </trkpt>
      <trkpt lat="46.46282" lon="5.25489">
        <ele>218.2</ele>
        <time>2022-07-05T06:46:13Z</time>
      </trkpt>
      <trkpt lat="46.46278" lon="5.25497">
        <ele>218.4</ele>
        <time>2022-07-05T06:46:14Z</time>
      </trkpt>
      <trkpt lat="46.46274" lon="5.25504">
        <ele>218.6</ele>
        <time>2022-07-05T06:46:15Z</time>
      </trkpt>
      <trkpt lat="46.4625" lon="5.2556">
        <ele>219.4</ele>
        <time>2022-07-05T06:46:22Z</time>
      </trkpt>
      <trkpt lat="46.46246" lon="5.25576">
        <ele>219.6</ele>
        <time>2022-07-05T06:46:24Z</time>
      </trkpt>
      <trkpt lat="46.46233" lon="5.25628">
        <ele>220</ele>
        <time>2022-07-05T06:46:30Z</time>
      </trkpt>
      <trkpt lat="46.46226" lon="5.25679">
        <ele>220.2</ele>
        <time>2022-07-05T06:46:35Z</time>
      </trkpt>
      <trkpt lat="46.46226" lon="5.25691">
        <ele>220.2</ele>
        <time>2022-07-05T06:46:36Z</time>
      </trkpt>
      <trkpt lat="46.46232" lon="5.25738">
        <ele>219.6</ele>
        <time>2022-07-05T06:46:40Z</time>
      </trkpt>
      <trkpt lat="46.46242" lon="5.25789">
        <ele>218.2</ele>
        <time>2022-07-05T06:46:44Z</time>
      </trkpt>
      <trkpt lat="46.46247" lon="5.25811">
        <ele>218</ele>
        <time>2022-07-05T06:46:46Z</time>
      </trkpt>
      <trkpt lat="46.46252" lon="5.25856">
        <ele>218</ele>
        <time>2022-07-05T06:46:51Z</time>
      </trkpt>
      <trkpt lat="46.46247" lon="5.25888">
        <ele>218.8</ele>
        <time>2022-07-05T06:46:55Z</time>
      </trkpt>
      <trkpt lat="46.46242" lon="5.25902">
        <ele>219.2</ele>
        <time>2022-07-05T06:46:57Z</time>
      </trkpt>
      <trkpt lat="46.46235" lon="5.25921">
        <ele>220.4</ele>
        <time>2022-07-05T06:47:00Z</time>
      </trkpt>
      <trkpt lat="46.46232" lon="5.25929">
        <ele>220.8</ele>
        <time>2022-07-05T06:47:01Z</time>
      </trkpt>
      <trkpt lat="46.46229" lon="5.25941">
        <ele>221.6</ele>
        <time>2022-07-05T06:47:03Z</time>
      </trkpt>
      <trkpt lat="46.4622" lon="5.25968">
        <ele>223.2</ele>
        <time>2022-07-05T06:47:07Z</time>
      </trkpt>
      <trkpt lat="46.46213" lon="5.25994">
        <ele>224.2</ele>
        <time>2022-07-05T06:47:11Z</time>
      </trkpt>
      <trkpt lat="46.46211" lon="5.26">
        <ele>224.6</ele>
        <time>2022-07-05T06:47:12Z</time>
      </trkpt>
      <trkpt lat="46.46209" lon="5.26013">
        <ele>225.4</ele>
        <time>2022-07-05T06:47:14Z</time>
      </trkpt>
      <trkpt lat="46.46203" lon="5.26059">
        <ele>226.2</ele>
        <time>2022-07-05T06:47:20Z</time>
      </trkpt>
      <trkpt lat="46.46201" lon="5.26075">
        <ele>226.8</ele>
        <time>2022-07-05T06:47:22Z</time>
      </trkpt>
      <trkpt lat="46.46198" lon="5.26118">
        <ele>227</ele>
        <time>2022-07-05T06:47:27Z</time>
      </trkpt>
      <trkpt lat="46.46197" lon="5.26126">
        <ele>227</ele>
        <time>2022-07-05T06:47:28Z</time>
      </trkpt>
      <trkpt lat="46.46192" lon="5.26181">
        <ele>226.8</ele>
        <time>2022-07-05T06:47:34Z</time>
      </trkpt>
      <trkpt lat="46.46187" lon="5.26241">
        <ele>226.2</ele>
        <time>2022-07-05T06:47:40Z</time>
      </trkpt>
      <trkpt lat="46.46186" lon="5.26252">
        <ele>226.2</ele>
        <time>2022-07-05T06:47:41Z</time>
      </trkpt>
      <trkpt lat="46.46184" lon="5.26272">
        <ele>225.6</ele>
        <time>2022-07-05T06:47:43Z</time>
      </trkpt>
      <trkpt lat="46.4618" lon="5.26323">
        <ele>224.6</ele>
        <time>2022-07-05T06:47:47Z</time>
      </trkpt>
      <trkpt lat="46.46176" lon="5.26367">
        <ele>223.6</ele>
        <time>2022-07-05T06:47:50Z</time>
      </trkpt>
      <trkpt lat="46.46171" lon="5.26411">
        <ele>222.2</ele>
        <time>2022-07-05T06:47:53Z</time>
      </trkpt>
      <trkpt lat="46.4617" lon="5.26426">
        <ele>221.6</ele>
        <time>2022-07-05T06:47:54Z</time>
      </trkpt>
      <trkpt lat="46.46167" lon="5.26453">
        <ele>220.8</ele>
        <time>2022-07-05T06:47:56Z</time>
      </trkpt>
      <trkpt lat="46.46162" lon="5.26502">
        <ele>219.6</ele>
        <time>2022-07-05T06:47:59Z</time>
      </trkpt>
      <trkpt lat="46.4616" lon="5.2653">
        <ele>217.8</ele>
        <time>2022-07-05T06:48:01Z</time>
      </trkpt>
      <trkpt lat="46.46157" lon="5.26562">
        <ele>216.6</ele>
        <time>2022-07-05T06:48:03Z</time>
      </trkpt>
      <trkpt lat="46.46151" lon="5.26628">
        <ele>214.8</ele>
        <time>2022-07-05T06:48:07Z</time>
      </trkpt>
      <trkpt lat="46.4615" lon="5.26657">
        <ele>213.6</ele>
        <time>2022-07-05T06:48:09Z</time>
      </trkpt>
      <trkpt lat="46.46149" lon="5.26676">
        <ele>212.8</ele>
        <time>2022-07-05T06:48:10Z</time>
      </trkpt>
      <trkpt lat="46.46148" lon="5.26689">
        <ele>212.4</ele>
        <time>2022-07-05T06:48:11Z</time>
      </trkpt>
      <trkpt lat="46.46147" lon="5.26721">
        <ele>211.2</ele>
        <time>2022-07-05T06:48:13Z</time>
      </trkpt>
      <trkpt lat="46.46147" lon="5.26753">
        <ele>209.4</ele>
        <time>2022-07-05T06:48:15Z</time>
      </trkpt>
      <trkpt lat="46.46146" lon="5.26783">
        <ele>208.2</ele>
        <time>2022-07-05T06:48:17Z</time>
      </trkpt>
      <trkpt lat="46.46145" lon="5.26831">
        <ele>207.2</ele>
        <time>2022-07-05T06:48:20Z</time>
      </trkpt>
      <trkpt lat="46.46145" lon="5.26846">
        <ele>206.6</ele>
        <time>2022-07-05T06:48:21Z</time>
      </trkpt>
      <trkpt lat="46.46142" lon="5.26918">
        <ele>205</ele>
        <time>2022-07-05T06:48:26Z</time>
      </trkpt>
      <trkpt lat="46.46142" lon="5.26945">
        <ele>204.4</ele>
        <time>2022-07-05T06:48:28Z</time>
      </trkpt>
      <trkpt lat="46.4614" lon="5.27007">
        <ele>204</ele>
        <time>2022-07-05T06:48:33Z</time>
      </trkpt>
      <trkpt lat="46.4614" lon="5.27016">
        <ele>204</ele>
        <time>2022-07-05T06:48:34Z</time>
      </trkpt>
      <trkpt lat="46.46138" lon="5.27083">
        <ele>204.2</ele>
        <time>2022-07-05T06:48:40Z</time>
      </trkpt>
      <trkpt lat="46.46135" lon="5.27164">
        <ele>204.2</ele>
        <time>2022-07-05T06:48:47Z</time>
      </trkpt>
      <trkpt lat="46.46134" lon="5.27224">
        <ele>203.6</ele>
        <time>2022-07-05T06:48:52Z</time>
      </trkpt>
      <trkpt lat="46.46133" lon="5.27247">
        <ele>203</ele>
        <time>2022-07-05T06:48:54Z</time>
      </trkpt>
      <trkpt lat="46.46131" lon="5.27326">
        <ele>202.2</ele>
        <time>2022-07-05T06:49:01Z</time>
      </trkpt>
      <trkpt lat="46.4613" lon="5.2736">
        <ele>202.2</ele>
        <time>2022-07-05T06:49:04Z</time>
      </trkpt>
      <trkpt lat="46.46128" lon="5.27433">
        <ele>202.2</ele>
        <time>2022-07-05T06:49:11Z</time>
      </trkpt>
      <trkpt lat="46.46126" lon="5.27517">
        <ele>202</ele>
        <time>2022-07-05T06:49:19Z</time>
      </trkpt>
      <trkpt lat="46.46125" lon="5.27539">
        <ele>201.8</ele>
        <time>2022-07-05T06:49:21Z</time>
      </trkpt>
      <trkpt lat="46.46123" lon="5.27622">
        <ele>202.2</ele>
        <time>2022-07-05T06:49:29Z</time>
      </trkpt>
      <trkpt lat="46.46123" lon="5.27632">
        <ele>202.2</ele>
        <time>2022-07-05T06:49:30Z</time>
      </trkpt>
      <trkpt lat="46.46121" lon="5.277">
        <ele>202.2</ele>
        <time>2022-07-05T06:49:37Z</time>
      </trkpt>
      <trkpt lat="46.4612" lon="5.27744">
        <ele>203</ele>
        <time>2022-07-05T06:49:42Z</time>
      </trkpt>
      <trkpt lat="46.4612" lon="5.27752">
        <ele>203</ele>
        <time>2022-07-05T06:49:43Z</time>
      </trkpt>
      <trkpt lat="46.46119" lon="5.27816">
        <ele>204</ele>
        <time>2022-07-05T06:49:51Z</time>
      </trkpt>
      <trkpt lat="46.46119" lon="5.27824">
        <ele>204.2</ele>
        <time>2022-07-05T06:49:52Z</time>
      </trkpt>
      <trkpt lat="46.46121" lon="5.27868">
        <ele>205.4</ele>
        <time>2022-07-05T06:49:58Z</time>
      </trkpt>
      <trkpt lat="46.46122" lon="5.27911">
        <ele>206.4</ele>
        <time>2022-07-05T06:50:04Z</time>
      </trkpt>
      <trkpt lat="46.46123" lon="5.27929">
        <ele>207.4</ele>
        <time>2022-07-05T06:50:07Z</time>
      </trkpt>
      <trkpt lat="46.46128" lon="5.27947">
        <ele>208.6</ele>
        <time>2022-07-05T06:50:10Z</time>
      </trkpt>
      <trkpt lat="46.46133" lon="5.27959">
        <ele>209</ele>
        <time>2022-07-05T06:50:12Z</time>
      </trkpt>
      <trkpt lat="46.46139" lon="5.27967">
        <ele>209.8</ele>
        <time>2022-07-05T06:50:14Z</time>
      </trkpt>
      <trkpt lat="46.46148" lon="5.27977">
        <ele>211</ele>
        <time>2022-07-05T06:50:17Z</time>
      </trkpt>
      <trkpt lat="46.46161" lon="5.27988">
        <ele>212.2</ele>
        <time>2022-07-05T06:50:21Z</time>
      </trkpt>
      <trkpt lat="46.46167" lon="5.27994">
        <ele>213</ele>
        <time>2022-07-05T06:50:23Z</time>
      </trkpt>
      <trkpt lat="46.46171" lon="5.27996">
        <ele>213.2</ele>
        <time>2022-07-05T06:50:24Z</time>
      </trkpt>
      <trkpt lat="46.46178" lon="5.28">
        <ele>214.4</ele>
        <time>2022-07-05T06:50:26Z</time>
      </trkpt>
      <trkpt lat="46.46189" lon="5.28008">
        <ele>215.4</ele>
        <time>2022-07-05T06:50:29Z</time>
      </trkpt>
      <trkpt lat="46.46192" lon="5.28012">
        <ele>215.8</ele>
        <time>2022-07-05T06:50:30Z</time>
      </trkpt>
      <trkpt lat="46.46193" lon="5.28022">
        <ele>216.6</ele>
        <time>2022-07-05T06:50:32Z</time>
      </trkpt>
      <trkpt lat="46.46192" lon="5.28029">
        <ele>216.8</ele>
        <time>2022-07-05T06:50:33Z</time>
      </trkpt>
      <trkpt lat="46.46189" lon="5.28081">
        <ele>217.2</ele>
        <time>2022-07-05T06:50:39Z</time>
      </trkpt>
      <trkpt lat="46.46182" lon="5.28147">
        <ele>217</ele>
        <time>2022-07-05T06:50:47Z</time>
      </trkpt>
      <trkpt lat="46.46173" lon="5.28202">
        <ele>217.2</ele>
        <time>2022-07-05T06:50:54Z</time>
      </trkpt>
      <trkpt lat="46.46165" lon="5.28252">
        <ele>217.2</ele>
        <time>2022-07-05T06:50:59Z</time>
      </trkpt>
      <trkpt lat="46.46165" lon="5.28263">
        <ele>217.2</ele>
        <time>2022-07-05T06:51:00Z</time>
      </trkpt>
      <trkpt lat="46.46165" lon="5.28285">
        <ele>217</ele>
        <time>2022-07-05T06:51:02Z</time>
      </trkpt>
      <trkpt lat="46.46168" lon="5.2831">
        <ele>216.2</ele>
        <time>2022-07-05T06:51:04Z</time>
      </trkpt>
      <trkpt lat="46.46173" lon="5.28343">
        <ele>215.2</ele>
        <time>2022-07-05T06:51:07Z</time>
      </trkpt>
      <trkpt lat="46.46177" lon="5.28366">
        <ele>214.4</ele>
        <time>2022-07-05T06:51:09Z</time>
      </trkpt>
      <trkpt lat="46.46178" lon="5.28378">
        <ele>214</ele>
        <time>2022-07-05T06:51:10Z</time>
      </trkpt>
      <trkpt lat="46.46185" lon="5.28423">
        <ele>213</ele>
        <time>2022-07-05T06:51:14Z</time>
      </trkpt>
      <trkpt lat="46.46188" lon="5.28444">
        <ele>212.8</ele>
        <time>2022-07-05T06:51:16Z</time>
      </trkpt>
      <trkpt lat="46.46195" lon="5.28487">
        <ele>212.8</ele>
        <time>2022-07-05T06:51:21Z</time>
      </trkpt>
      <trkpt lat="46.462" lon="5.28531">
        <ele>213.8</ele>
        <time>2022-07-05T06:51:27Z</time>
      </trkpt>
      <trkpt lat="46.46201" lon="5.28538">
        <ele>214.4</ele>
        <time>2022-07-05T06:51:28Z</time>
      </trkpt>
      <trkpt lat="46.46206" lon="5.28571">
        <ele>215.4</ele>
        <time>2022-07-05T06:51:33Z</time>
      </trkpt>
      <trkpt lat="46.46207" lon="5.28578">
        <ele>215.8</ele>
        <time>2022-07-05T06:51:34Z</time>
      </trkpt>
      <trkpt lat="46.46209" lon="5.28598">
        <ele>216.6</ele>
        <time>2022-07-05T06:51:37Z</time>
      </trkpt>
      <trkpt lat="46.46213" lon="5.28623">
        <ele>217.6</ele>
        <time>2022-07-05T06:51:41Z</time>
      </trkpt>
      <trkpt lat="46.46214" lon="5.28627">
        <ele>217.8</ele>
        <time>2022-07-05T06:51:42Z</time>
      </trkpt>
      <trkpt lat="46.46217" lon="5.2865">
        <ele>219.2</ele>
        <time>2022-07-05T06:51:46Z</time>
      </trkpt>
      <trkpt lat="46.46221" lon="5.28671">
        <ele>220.4</ele>
        <time>2022-07-05T06:51:50Z</time>
      </trkpt>
      <trkpt lat="46.4623" lon="5.28691">
        <ele>221.4</ele>
        <time>2022-07-05T06:51:54Z</time>
      </trkpt>
      <trkpt lat="46.46234" lon="5.28695">
        <ele>221.6</ele>
        <time>2022-07-05T06:51:55Z</time>
      </trkpt>
      <trkpt lat="46.46245" lon="5.28705">
        <ele>222.6</ele>
        <time>2022-07-05T06:51:58Z</time>
      </trkpt>
      <trkpt lat="46.46256" lon="5.28714">
        <ele>223.2</ele>
        <time>2022-07-05T06:52:01Z</time>
      </trkpt>
      <trkpt lat="46.46267" lon="5.28723">
        <ele>223.8</ele>
        <time>2022-07-05T06:52:04Z</time>
      </trkpt>
      <trkpt lat="46.46287" lon="5.28737">
        <ele>225</ele>
        <time>2022-07-05T06:52:09Z</time>
      </trkpt>
      <trkpt lat="46.46292" lon="5.28741">
        <ele>225.2</ele>
        <time>2022-07-05T06:52:10Z</time>
      </trkpt>
      <trkpt lat="46.46317" lon="5.28757">
        <ele>226.2</ele>
        <time>2022-07-05T06:52:16Z</time>
      </trkpt>
      <trkpt lat="46.4633" lon="5.28766">
        <ele>226.6</ele>
        <time>2022-07-05T06:52:19Z</time>
      </trkpt>
      <trkpt lat="46.46346" lon="5.28778">
        <ele>227.2</ele>
        <time>2022-07-05T06:52:23Z</time>
      </trkpt>
      <trkpt lat="46.46372" lon="5.28798">
        <ele>228.4</ele>
        <time>2022-07-05T06:52:29Z</time>
      </trkpt>
      <trkpt lat="46.46384" lon="5.28812">
        <ele>228.8</ele>
        <time>2022-07-05T06:52:32Z</time>
      </trkpt>
      <trkpt lat="46.46395" lon="5.28827">
        <ele>229.2</ele>
        <time>2022-07-05T06:52:35Z</time>
      </trkpt>
      <trkpt lat="46.46402" lon="5.28839">
        <ele>229.6</ele>
        <time>2022-07-05T06:52:37Z</time>
      </trkpt>
      <trkpt lat="46.46404" lon="5.28845">
        <ele>229.6</ele>
        <time>2022-07-05T06:52:38Z</time>
      </trkpt>
      <trkpt lat="46.46424" lon="5.28913">
        <ele>230.2</ele>
        <time>2022-07-05T06:52:47Z</time>
      </trkpt>
      <trkpt lat="46.46434" lon="5.2896">
        <ele>230.6</ele>
        <time>2022-07-05T06:52:53Z</time>
      </trkpt>
      <trkpt lat="46.46437" lon="5.28976">
        <ele>230.6</ele>
        <time>2022-07-05T06:52:55Z</time>
      </trkpt>
      <trkpt lat="46.4644" lon="5.28993">
        <ele>230.6</ele>
        <time>2022-07-05T06:52:57Z</time>
      </trkpt>
      <trkpt lat="46.46448" lon="5.29031">
        <ele>231.6</ele>
        <time>2022-07-05T06:53:02Z</time>
      </trkpt>
      <trkpt lat="46.4646" lon="5.2909">
        <ele>231.8</ele>
        <time>2022-07-05T06:53:09Z</time>
      </trkpt>
      <trkpt lat="46.46476" lon="5.29162">
        <ele>232</ele>
        <time>2022-07-05T06:53:17Z</time>
      </trkpt>
      <trkpt lat="46.46493" lon="5.29241">
        <ele>231.6</ele>
        <time>2022-07-05T06:53:25Z</time>
      </trkpt>
      <trkpt lat="46.46495" lon="5.29251">
        <ele>231.6</ele>
        <time>2022-07-05T06:53:26Z</time>
      </trkpt>
      <trkpt lat="46.46509" lon="5.29316">
        <ele>230.8</ele>
        <time>2022-07-05T06:53:32Z</time>
      </trkpt>
      <trkpt lat="46.46516" lon="5.29349">
        <ele>230.4</ele>
        <time>2022-07-05T06:53:35Z</time>
      </trkpt>
      <trkpt lat="46.46528" lon="5.294">
        <ele>230.2</ele>
        <time>2022-07-05T06:53:40Z</time>
      </trkpt>
      <trkpt lat="46.46543" lon="5.29472">
        <ele>230</ele>
        <time>2022-07-05T06:53:47Z</time>
      </trkpt>
      <trkpt lat="46.4656" lon="5.29545">
        <ele>229.6</ele>
        <time>2022-07-05T06:53:54Z</time>
      </trkpt>
      <trkpt lat="46.46566" lon="5.2957">
        <ele>229.4</ele>
        <time>2022-07-05T06:53:57Z</time>
      </trkpt>
      <trkpt lat="46.46569" lon="5.29578">
        <ele>229.4</ele>
        <time>2022-07-05T06:53:58Z</time>
      </trkpt>
      <trkpt lat="46.46578" lon="5.29605">
        <ele>229.6</ele>
        <time>2022-07-05T06:54:01Z</time>
      </trkpt>
      <trkpt lat="46.46583" lon="5.29624">
        <ele>229.8</ele>
        <time>2022-07-05T06:54:03Z</time>
      </trkpt>
      <trkpt lat="46.46603" lon="5.29699">
        <ele>230.8</ele>
        <time>2022-07-05T06:54:11Z</time>
      </trkpt>
      <trkpt lat="46.46607" lon="5.29718">
        <ele>231</ele>
        <time>2022-07-05T06:54:13Z</time>
      </trkpt>
      <trkpt lat="46.46619" lon="5.29761">
        <ele>231.4</ele>
        <time>2022-07-05T06:54:18Z</time>
      </trkpt>
      <trkpt lat="46.46623" lon="5.29777">
        <ele>231.8</ele>
        <time>2022-07-05T06:54:20Z</time>
      </trkpt>
      <trkpt lat="46.46634" lon="5.29819">
        <ele>232.6</ele>
        <time>2022-07-05T06:54:25Z</time>
      </trkpt>
      <trkpt lat="46.46638" lon="5.29829">
        <ele>232.6</ele>
        <time>2022-07-05T06:54:26Z</time>
      </trkpt>
      <trkpt lat="46.46649" lon="5.29865">
        <ele>233.2</ele>
        <time>2022-07-05T06:54:30Z</time>
      </trkpt>
      <trkpt lat="46.46652" lon="5.29877">
        <ele>233.2</ele>
        <time>2022-07-05T06:54:31Z</time>
      </trkpt>
      <trkpt lat="46.46668" lon="5.29943">
        <ele>233.4</ele>
        <time>2022-07-05T06:54:37Z</time>
      </trkpt>
      <trkpt lat="46.46686" lon="5.30004">
        <ele>232.4</ele>
        <time>2022-07-05T06:54:43Z</time>
      </trkpt>
      <trkpt lat="46.46704" lon="5.30068">
        <ele>231.8</ele>
        <time>2022-07-05T06:54:49Z</time>
      </trkpt>
      <trkpt lat="46.46709" lon="5.30089">
        <ele>231.4</ele>
        <time>2022-07-05T06:54:51Z</time>
      </trkpt>
      <trkpt lat="46.46725" lon="5.3016">
        <ele>230.8</ele>
        <time>2022-07-05T06:54:58Z</time>
      </trkpt>
      <trkpt lat="46.46738" lon="5.30205">
        <ele>230.8</ele>
        <time>2022-07-05T06:55:03Z</time>
      </trkpt>
      <trkpt lat="46.46744" lon="5.3022">
        <ele>231</ele>
        <time>2022-07-05T06:55:05Z</time>
      </trkpt>
      <trkpt lat="46.46748" lon="5.30227">
        <ele>231</ele>
        <time>2022-07-05T06:55:06Z</time>
      </trkpt>
      <trkpt lat="46.46768" lon="5.30251">
        <ele>231.2</ele>
        <time>2022-07-05T06:55:10Z</time>
      </trkpt>
      <trkpt lat="46.46814" lon="5.30306">
        <ele>231.2</ele>
        <time>2022-07-05T06:55:19Z</time>
      </trkpt>
      <trkpt lat="46.4682" lon="5.30312">
        <ele>231.2</ele>
        <time>2022-07-05T06:55:20Z</time>
      </trkpt>
      <trkpt lat="46.46831" lon="5.30325">
        <ele>231.4</ele>
        <time>2022-07-05T06:55:22Z</time>
      </trkpt>
      <trkpt lat="46.46862" lon="5.30362">
        <ele>231.4</ele>
        <time>2022-07-05T06:55:28Z</time>
      </trkpt>
      <trkpt lat="46.46891" lon="5.30383">
        <ele>231.4</ele>
        <time>2022-07-05T06:55:33Z</time>
      </trkpt>
      <trkpt lat="46.46945" lon="5.30404">
        <ele>231</ele>
        <time>2022-07-05T06:55:41Z</time>
      </trkpt>
      <trkpt lat="46.46982" lon="5.3043">
        <ele>231</ele>
        <time>2022-07-05T06:55:47Z</time>
      </trkpt>
      <trkpt lat="46.47025" lon="5.30468">
        <ele>231.2</ele>
        <time>2022-07-05T06:55:55Z</time>
      </trkpt>
      <trkpt lat="46.47073" lon="5.3051">
        <ele>231.6</ele>
        <time>2022-07-05T06:56:04Z</time>
      </trkpt>
      <trkpt lat="46.47118" lon="5.30542">
        <ele>231.8</ele>
        <time>2022-07-05T06:56:12Z</time>
      </trkpt>
      <trkpt lat="46.47169" lon="5.30561">
        <ele>232.2</ele>
        <time>2022-07-05T06:56:20Z</time>
      </trkpt>
      <trkpt lat="46.47175" lon="5.30562">
        <ele>232</ele>
        <time>2022-07-05T06:56:21Z</time>
      </trkpt>
      <trkpt lat="46.47202" lon="5.30559">
        <ele>231.6</ele>
        <time>2022-07-05T06:56:25Z</time>
      </trkpt>
      <trkpt lat="46.47223" lon="5.3056">
        <ele>231.4</ele>
        <time>2022-07-05T06:56:28Z</time>
      </trkpt>
      <trkpt lat="46.47237" lon="5.30565">
        <ele>231.4</ele>
        <time>2022-07-05T06:56:30Z</time>
      </trkpt>
      <trkpt lat="46.47271" lon="5.30593">
        <ele>231</ele>
        <time>2022-07-05T06:56:36Z</time>
      </trkpt>
      <trkpt lat="46.47305" lon="5.30639">
        <ele>231</ele>
        <time>2022-07-05T06:56:43Z</time>
      </trkpt>
      <trkpt lat="46.47312" lon="5.30655">
        <ele>231.2</ele>
        <time>2022-07-05T06:56:45Z</time>
      </trkpt>
      <trkpt lat="46.47314" lon="5.30662">
        <ele>231.4</ele>
        <time>2022-07-05T06:56:46Z</time>
      </trkpt>
      <trkpt lat="46.47314" lon="5.30671">
        <ele>231.4</ele>
        <time>2022-07-05T06:56:47Z</time>
      </trkpt>
      <trkpt lat="46.47315" lon="5.30702">
        <ele>231.4</ele>
        <time>2022-07-05T06:56:50Z</time>
      </trkpt>
      <trkpt lat="46.47318" lon="5.30758">
        <ele>231</ele>
        <time>2022-07-05T06:56:55Z</time>
      </trkpt>
      <trkpt lat="46.47325" lon="5.3084">
        <ele>230.4</ele>
        <time>2022-07-05T06:57:02Z</time>
      </trkpt>
      <trkpt lat="46.47327" lon="5.30859">
        <ele>230.2</ele>
        <time>2022-07-05T06:57:04Z</time>
      </trkpt>
      <trkpt lat="46.4733" lon="5.3087">
        <ele>230.2</ele>
        <time>2022-07-05T06:57:05Z</time>
      </trkpt>
      <trkpt lat="46.47334" lon="5.30886">
        <ele>230.2</ele>
        <time>2022-07-05T06:57:07Z</time>
      </trkpt>
      <trkpt lat="46.47337" lon="5.30894">
        <ele>230.2</ele>
        <time>2022-07-05T06:57:08Z</time>
      </trkpt>
      <trkpt lat="46.47342" lon="5.30898">
        <ele>230.6</ele>
        <time>2022-07-05T06:57:09Z</time>
      </trkpt>
      <trkpt lat="46.47349" lon="5.30898">
        <ele>230.4</ele>
        <time>2022-07-05T06:57:10Z</time>
      </trkpt>
      <trkpt lat="46.47356" lon="5.30897">
        <ele>230.4</ele>
        <time>2022-07-05T06:57:11Z</time>
      </trkpt>
      <trkpt lat="46.47383" lon="5.30888">
        <ele>230.6</ele>
        <time>2022-07-05T06:57:15Z</time>
      </trkpt>
      <trkpt lat="46.47431" lon="5.30863">
        <ele>230.6</ele>
        <time>2022-07-05T06:57:22Z</time>
      </trkpt>
      <trkpt lat="46.47469" lon="5.30843">
        <ele>230.8</ele>
        <time>2022-07-05T06:57:28Z</time>
      </trkpt>
      <trkpt lat="46.47511" lon="5.30821">
        <ele>230.6</ele>
        <time>2022-07-05T06:57:35Z</time>
      </trkpt>
      <trkpt lat="46.47557" lon="5.30806">
        <ele>231.2</ele>
        <time>2022-07-05T06:57:43Z</time>
      </trkpt>
      <trkpt lat="46.47612" lon="5.30797">
        <ele>231.8</ele>
        <time>2022-07-05T06:57:52Z</time>
      </trkpt>
      <trkpt lat="46.47669" lon="5.3079">
        <ele>231.6</ele>
        <time>2022-07-05T06:58:01Z</time>
      </trkpt>
      <trkpt lat="46.47675" lon="5.30789">
        <ele>231.6</ele>
        <time>2022-07-05T06:58:02Z</time>
      </trkpt>
      <trkpt lat="46.47733" lon="5.3078">
        <ele>231.6</ele>
        <time>2022-07-05T06:58:11Z</time>
      </trkpt>
      <trkpt lat="46.47758" lon="5.30776">
        <ele>231.4</ele>
        <time>2022-07-05T06:58:15Z</time>
      </trkpt>
      <trkpt lat="46.47816" lon="5.30772">
        <ele>230.8</ele>
        <time>2022-07-05T06:58:24Z</time>
      </trkpt>
      <trkpt lat="46.47827" lon="5.30773">
        <ele>230.8</ele>
        <time>2022-07-05T06:58:26Z</time>
      </trkpt>
      <trkpt lat="46.47837" lon="5.30778">
        <ele>231</ele>
        <time>2022-07-05T06:58:28Z</time>
      </trkpt>
      <trkpt lat="46.47843" lon="5.30787">
        <ele>231.2</ele>
        <time>2022-07-05T06:58:30Z</time>
      </trkpt>
      <trkpt lat="46.47845" lon="5.30792">
        <ele>231.4</ele>
        <time>2022-07-05T06:58:31Z</time>
      </trkpt>
      <trkpt lat="46.47847" lon="5.30797">
        <ele>232.2</ele>
        <time>2022-07-05T06:58:34Z</time>
      </trkpt>
      <trkpt lat="46.47847" lon="5.30797">
        <ele>232.8</ele>
        <time>2022-07-05T06:58:36Z</time>
      </trkpt>
      <trkpt lat="46.47853" lon="5.308">
        <ele>233.6</ele>
        <time>2022-07-05T06:58:44Z</time>
      </trkpt>
      <trkpt lat="46.47858" lon="5.308">
        <ele>233.6</ele>
        <time>2022-07-05T06:58:45Z</time>
      </trkpt>
      <trkpt lat="46.47863" lon="5.308">
        <ele>233.4</ele>
        <time>2022-07-05T06:58:46Z</time>
      </trkpt>
      <trkpt lat="46.47882" lon="5.30804">
        <ele>233</ele>
        <time>2022-07-05T06:58:49Z</time>
      </trkpt>
      <trkpt lat="46.47904" lon="5.30811">
        <ele>232.4</ele>
        <time>2022-07-05T06:58:52Z</time>
      </trkpt>
      <trkpt lat="46.4793" lon="5.30818">
        <ele>231.6</ele>
        <time>2022-07-05T06:58:55Z</time>
      </trkpt>
      <trkpt lat="46.47939" lon="5.30819">
        <ele>231.4</ele>
        <time>2022-07-05T06:58:56Z</time>
      </trkpt>
      <trkpt lat="46.47957" lon="5.30818">
        <ele>230.8</ele>
        <time>2022-07-05T06:58:58Z</time>
      </trkpt>
      <trkpt lat="46.47966" lon="5.30816">
        <ele>230.4</ele>
        <time>2022-07-05T06:58:59Z</time>
      </trkpt>
      <trkpt lat="46.47975" lon="5.30813">
        <ele>229.8</ele>
        <time>2022-07-05T06:59:00Z</time>
      </trkpt>
      <trkpt lat="46.47999" lon="5.308">
        <ele>228.8</ele>
        <time>2022-07-05T06:59:03Z</time>
      </trkpt>
      <trkpt lat="46.48006" lon="5.30796">
        <ele>228.6</ele>
        <time>2022-07-05T06:59:04Z</time>
      </trkpt>
      <trkpt lat="46.48044" lon="5.30776">
        <ele>228.6</ele>
        <time>2022-07-05T06:59:10Z</time>
      </trkpt>
      <trkpt lat="46.48084" lon="5.30754">
        <ele>229.2</ele>
        <time>2022-07-05T06:59:17Z</time>
      </trkpt>
      <trkpt lat="46.48118" lon="5.30735">
        <ele>229.8</ele>
        <time>2022-07-05T06:59:23Z</time>
      </trkpt>
      <trkpt lat="46.48126" lon="5.30731">
        <ele>229.8</ele>
        <time>2022-07-05T06:59:24Z</time>
      </trkpt>
      <trkpt lat="46.48132" lon="5.30727">
        <ele>229.8</ele>
        <time>2022-07-05T06:59:25Z</time>
      </trkpt>
      <trkpt lat="46.48184" lon="5.30698">
        <ele>229.2</ele>
        <time>2022-07-05T06:59:33Z</time>
      </trkpt>
      <trkpt lat="46.48206" lon="5.30689">
        <ele>228.8</ele>
        <time>2022-07-05T06:59:36Z</time>
      </trkpt>
      <trkpt lat="46.48215" lon="5.30687">
        <ele>228.6</ele>
        <time>2022-07-05T06:59:37Z</time>
      </trkpt>
      <trkpt lat="46.48223" lon="5.30686">
        <ele>228.6</ele>
        <time>2022-07-05T06:59:38Z</time>
      </trkpt>
      <trkpt lat="46.4824" lon="5.30687">
        <ele>227.6</ele>
        <time>2022-07-05T06:59:40Z</time>
      </trkpt>
      <trkpt lat="46.48264" lon="5.30693">
        <ele>227</ele>
        <time>2022-07-05T06:59:43Z</time>
      </trkpt>
      <trkpt lat="46.48289" lon="5.30698">
        <ele>226.4</ele>
        <time>2022-07-05T06:59:46Z</time>
      </trkpt>
      <trkpt lat="46.48305" lon="5.30698">
        <ele>226.2</ele>
        <time>2022-07-05T06:59:48Z</time>
      </trkpt>
      <trkpt lat="46.48334" lon="5.30687">
        <ele>225.8</ele>
        <time>2022-07-05T06:59:52Z</time>
      </trkpt>
      <trkpt lat="46.48365" lon="5.30659">
        <ele>225.6</ele>
        <time>2022-07-05T06:59:57Z</time>
      </trkpt>
      <trkpt lat="46.48413" lon="5.30613">
        <ele>226</ele>
        <time>2022-07-05T07:00:05Z</time>
      </trkpt>
      <trkpt lat="46.48419" lon="5.30608">
        <ele>226</ele>
        <time>2022-07-05T07:00:06Z</time>
      </trkpt>
      <trkpt lat="46.48457" lon="5.30572">
        <ele>226.6</ele>
        <time>2022-07-05T07:00:13Z</time>
      </trkpt>
      <trkpt lat="46.48504" lon="5.30526">
        <ele>227.2</ele>
        <time>2022-07-05T07:00:22Z</time>
      </trkpt>
      <trkpt lat="46.48509" lon="5.30521">
        <ele>227.2</ele>
        <time>2022-07-05T07:00:23Z</time>
      </trkpt>
      <trkpt lat="46.48541" lon="5.305">
        <ele>227.4</ele>
        <time>2022-07-05T07:00:29Z</time>
      </trkpt>
      <trkpt lat="46.48553" lon="5.30496">
        <ele>227.4</ele>
        <time>2022-07-05T07:00:31Z</time>
      </trkpt>
      <trkpt lat="46.48559" lon="5.30498">
        <ele>227.4</ele>
        <time>2022-07-05T07:00:32Z</time>
      </trkpt>
      <trkpt lat="46.48561" lon="5.30503">
        <ele>227.4</ele>
        <time>2022-07-05T07:00:33Z</time>
      </trkpt>
      <trkpt lat="46.48561" lon="5.30512">
        <ele>227.4</ele>
        <time>2022-07-05T07:00:34Z</time>
      </trkpt>
      <trkpt lat="46.4856" lon="5.3052">
        <ele>227.4</ele>
        <time>2022-07-05T07:00:35Z</time>
      </trkpt>
      <trkpt lat="46.48556" lon="5.30556">
        <ele>227</ele>
        <time>2022-07-05T07:00:39Z</time>
      </trkpt>
      <trkpt lat="46.48547" lon="5.30624">
        <ele>226.4</ele>
        <time>2022-07-05T07:00:45Z</time>
      </trkpt>
      <trkpt lat="46.48542" lon="5.30652">
        <ele>226</ele>
        <time>2022-07-05T07:00:47Z</time>
      </trkpt>
      <trkpt lat="46.48543" lon="5.30677">
        <ele>225.4</ele>
        <time>2022-07-05T07:00:49Z</time>
      </trkpt>
      <trkpt lat="46.4855" lon="5.30715">
        <ele>224.6</ele>
        <time>2022-07-05T07:00:52Z</time>
      </trkpt>
      <trkpt lat="46.48554" lon="5.30724">
        <ele>224</ele>
        <time>2022-07-05T07:00:53Z</time>
      </trkpt>
      <trkpt lat="46.48559" lon="5.30735">
        <ele>223.4</ele>
        <time>2022-07-05T07:00:54Z</time>
      </trkpt>
      <trkpt lat="46.48565" lon="5.30745">
        <ele>223.2</ele>
        <time>2022-07-05T07:00:55Z</time>
      </trkpt>
      <trkpt lat="46.48572" lon="5.30753">
        <ele>222.4</ele>
        <time>2022-07-05T07:00:56Z</time>
      </trkpt>
      <trkpt lat="46.48596" lon="5.30775">
        <ele>221.2</ele>
        <time>2022-07-05T07:00:59Z</time>
      </trkpt>
      <trkpt lat="46.4862" lon="5.30794">
        <ele>220.2</ele>
        <time>2022-07-05T07:01:02Z</time>
      </trkpt>
      <trkpt lat="46.48628" lon="5.308">
        <ele>220</ele>
        <time>2022-07-05T07:01:03Z</time>
      </trkpt>
      <trkpt lat="46.48659" lon="5.30821">
        <ele>219.4</ele>
        <time>2022-07-05T07:01:07Z</time>
      </trkpt>
      <trkpt lat="46.48701" lon="5.30846">
        <ele>219.2</ele>
        <time>2022-07-05T07:01:13Z</time>
      </trkpt>
      <trkpt lat="46.48713" lon="5.30859">
        <ele>219.8</ele>
        <time>2022-07-05T07:01:15Z</time>
      </trkpt>
      <trkpt lat="46.48717" lon="5.30865">
        <ele>220</ele>
        <time>2022-07-05T07:01:16Z</time>
      </trkpt>
      <trkpt lat="46.48721" lon="5.30873">
        <ele>220.2</ele>
        <time>2022-07-05T07:01:17Z</time>
      </trkpt>
      <trkpt lat="46.48722" lon="5.30893">
        <ele>220.6</ele>
        <time>2022-07-05T07:01:19Z</time>
      </trkpt>
      <trkpt lat="46.48715" lon="5.3091">
        <ele>221</ele>
        <time>2022-07-05T07:01:21Z</time>
      </trkpt>
      <trkpt lat="46.48711" lon="5.30915">
        <ele>221</ele>
        <time>2022-07-05T07:01:22Z</time>
      </trkpt>
      <trkpt lat="46.48705" lon="5.30922">
        <ele>221</ele>
        <time>2022-07-05T07:01:23Z</time>
      </trkpt>
      <trkpt lat="46.48689" lon="5.30948">
        <ele>221.4</ele>
        <time>2022-07-05T07:01:27Z</time>
      </trkpt>
      <trkpt lat="46.48679" lon="5.3097">
        <ele>222.2</ele>
        <time>2022-07-05T07:01:30Z</time>
      </trkpt>
      <trkpt lat="46.48657" lon="5.31014">
        <ele>223.2</ele>
        <time>2022-07-05T07:01:36Z</time>
      </trkpt>
      <trkpt lat="46.48653" lon="5.31023">
        <ele>223.4</ele>
        <time>2022-07-05T07:01:37Z</time>
      </trkpt>
      <trkpt lat="46.48636" lon="5.31058">
        <ele>223.4</ele>
        <time>2022-07-05T07:01:41Z</time>
      </trkpt>
      <trkpt lat="46.48612" lon="5.31108">
        <ele>222.8</ele>
        <time>2022-07-05T07:01:46Z</time>
      </trkpt>
      <trkpt lat="46.48597" lon="5.31138">
        <ele>222.2</ele>
        <time>2022-07-05T07:01:49Z</time>
      </trkpt>
      <trkpt lat="46.48572" lon="5.31189">
        <ele>221.4</ele>
        <time>2022-07-05T07:01:54Z</time>
      </trkpt>
      <trkpt lat="46.48562" lon="5.31208">
        <ele>220.6</ele>
        <time>2022-07-05T07:01:56Z</time>
      </trkpt>
      <trkpt lat="46.48553" lon="5.31231">
        <ele>220.2</ele>
        <time>2022-07-05T07:01:58Z</time>
      </trkpt>
      <trkpt lat="46.48549" lon="5.31256">
        <ele>219.8</ele>
        <time>2022-07-05T07:02:00Z</time>
      </trkpt>
      <trkpt lat="46.4855" lon="5.31271">
        <ele>219.6</ele>
        <time>2022-07-05T07:02:01Z</time>
      </trkpt>
      <trkpt lat="46.48553" lon="5.31306">
        <ele>219.2</ele>
        <time>2022-07-05T07:02:04Z</time>
      </trkpt>
      <trkpt lat="46.48556" lon="5.31341">
        <ele>218.2</ele>
        <time>2022-07-05T07:02:07Z</time>
      </trkpt>
      <trkpt lat="46.48558" lon="5.31353">
        <ele>218</ele>
        <time>2022-07-05T07:02:08Z</time>
      </trkpt>
      <trkpt lat="46.48562" lon="5.31364">
        <ele>217.8</ele>
        <time>2022-07-05T07:02:09Z</time>
      </trkpt>
      <trkpt lat="46.48573" lon="5.31384">
        <ele>217.4</ele>
        <time>2022-07-05T07:02:11Z</time>
      </trkpt>
      <trkpt lat="46.48579" lon="5.31392">
        <ele>217</ele>
        <time>2022-07-05T07:02:12Z</time>
      </trkpt>
      <trkpt lat="46.48595" lon="5.3141">
        <ele>216.2</ele>
        <time>2022-07-05T07:02:14Z</time>
      </trkpt>
      <trkpt lat="46.48601" lon="5.3142">
        <ele>215.8</ele>
        <time>2022-07-05T07:02:15Z</time>
      </trkpt>
      <trkpt lat="46.48606" lon="5.31433">
        <ele>215.6</ele>
        <time>2022-07-05T07:02:16Z</time>
      </trkpt>
      <trkpt lat="46.48609" lon="5.31459">
        <ele>214.8</ele>
        <time>2022-07-05T07:02:18Z</time>
      </trkpt>
      <trkpt lat="46.4861" lon="5.31486">
        <ele>213.8</ele>
        <time>2022-07-05T07:02:20Z</time>
      </trkpt>
      <trkpt lat="46.48612" lon="5.31498">
        <ele>213.4</ele>
        <time>2022-07-05T07:02:21Z</time>
      </trkpt>
      <trkpt lat="46.48616" lon="5.3151">
        <ele>213</ele>
        <time>2022-07-05T07:02:22Z</time>
      </trkpt>
      <trkpt lat="46.48635" lon="5.31546">
        <ele>212.4</ele>
        <time>2022-07-05T07:02:26Z</time>
      </trkpt>
      <trkpt lat="46.48664" lon="5.31584">
        <ele>212</ele>
        <time>2022-07-05T07:02:31Z</time>
      </trkpt>
      <trkpt lat="46.48681" lon="5.31607">
        <ele>212</ele>
        <time>2022-07-05T07:02:34Z</time>
      </trkpt>
      <trkpt lat="46.48692" lon="5.31621">
        <ele>212.2</ele>
        <time>2022-07-05T07:02:36Z</time>
      </trkpt>
      <trkpt lat="46.48727" lon="5.31668">
        <ele>212.2</ele>
        <time>2022-07-05T07:02:42Z</time>
      </trkpt>
      <trkpt lat="46.48752" lon="5.31697">
        <ele>212.2</ele>
        <time>2022-07-05T07:02:46Z</time>
      </trkpt>
      <trkpt lat="46.48764" lon="5.31714">
        <ele>212.2</ele>
        <time>2022-07-05T07:02:48Z</time>
      </trkpt>
      <trkpt lat="46.4877" lon="5.31725">
        <ele>212.2</ele>
        <time>2022-07-05T07:02:49Z</time>
      </trkpt>
      <trkpt lat="46.48778" lon="5.31748">
        <ele>212.2</ele>
        <time>2022-07-05T07:02:51Z</time>
      </trkpt>
      <trkpt lat="46.48779" lon="5.31807">
        <ele>211.4</ele>
        <time>2022-07-05T07:02:56Z</time>
      </trkpt>
      <trkpt lat="46.4878" lon="5.31818">
        <ele>211.2</ele>
        <time>2022-07-05T07:02:57Z</time>
      </trkpt>
      <trkpt lat="46.48785" lon="5.31839">
        <ele>211.2</ele>
        <time>2022-07-05T07:02:59Z</time>
      </trkpt>
      <trkpt lat="46.48797" lon="5.31854">
        <ele>211</ele>
        <time>2022-07-05T07:03:01Z</time>
      </trkpt>
      <trkpt lat="46.48804" lon="5.31858">
        <ele>211</ele>
        <time>2022-07-05T07:03:02Z</time>
      </trkpt>
      <trkpt lat="46.48819" lon="5.31865">
        <ele>210.8</ele>
        <time>2022-07-05T07:03:04Z</time>
      </trkpt>
      <trkpt lat="46.4883" lon="5.31879">
        <ele>210.8</ele>
        <time>2022-07-05T07:03:06Z</time>
      </trkpt>
      <trkpt lat="46.48836" lon="5.31899">
        <ele>210.6</ele>
        <time>2022-07-05T07:03:08Z</time>
      </trkpt>
      <trkpt lat="46.48838" lon="5.31909">
        <ele>210.4</ele>
        <time>2022-07-05T07:03:09Z</time>
      </trkpt>
      <trkpt lat="46.48844" lon="5.31975">
        <ele>210.8</ele>
        <time>2022-07-05T07:03:16Z</time>
      </trkpt>
      <trkpt lat="46.48843" lon="5.32003">
        <ele>211.2</ele>
        <time>2022-07-05T07:03:19Z</time>
      </trkpt>
      <trkpt lat="46.4884" lon="5.3203">
        <ele>211.4</ele>
        <time>2022-07-05T07:03:22Z</time>
      </trkpt>
      <trkpt lat="46.48827" lon="5.32101">
        <ele>212.2</ele>
        <time>2022-07-05T07:03:30Z</time>
      </trkpt>
      <trkpt lat="46.48822" lon="5.32164">
        <ele>213.2</ele>
        <time>2022-07-05T07:03:37Z</time>
      </trkpt>
      <trkpt lat="46.48823" lon="5.32172">
        <ele>213.4</ele>
        <time>2022-07-05T07:03:38Z</time>
      </trkpt>
      <trkpt lat="46.48825" lon="5.32197">
        <ele>213.8</ele>
        <time>2022-07-05T07:03:41Z</time>
      </trkpt>
      <trkpt lat="46.48832" lon="5.32229">
        <ele>214.6</ele>
        <time>2022-07-05T07:03:45Z</time>
      </trkpt>
      <trkpt lat="46.48837" lon="5.32243">
        <ele>215</ele>
        <time>2022-07-05T07:03:47Z</time>
      </trkpt>
      <trkpt lat="46.48848" lon="5.32262">
        <ele>215.4</ele>
        <time>2022-07-05T07:03:50Z</time>
      </trkpt>
      <trkpt lat="46.4887" lon="5.32292">
        <ele>215.4</ele>
        <time>2022-07-05T07:03:54Z</time>
      </trkpt>
      <trkpt lat="46.48901" lon="5.3234">
        <ele>213.6</ele>
        <time>2022-07-05T07:03:59Z</time>
      </trkpt>
      <trkpt lat="46.48906" lon="5.32352">
        <ele>213.2</ele>
        <time>2022-07-05T07:04:00Z</time>
      </trkpt>
      <trkpt lat="46.48911" lon="5.32364">
        <ele>212.4</ele>
        <time>2022-07-05T07:04:01Z</time>
      </trkpt>
      <trkpt lat="46.48915" lon="5.32375">
        <ele>212</ele>
        <time>2022-07-05T07:04:02Z</time>
      </trkpt>
      <trkpt lat="46.48922" lon="5.32399">
        <ele>211</ele>
        <time>2022-07-05T07:04:04Z</time>
      </trkpt>
      <trkpt lat="46.48925" lon="5.3241">
        <ele>210.6</ele>
        <time>2022-07-05T07:04:05Z</time>
      </trkpt>
      <trkpt lat="46.48936" lon="5.32445">
        <ele>209.8</ele>
        <time>2022-07-05T07:04:08Z</time>
      </trkpt>
      <trkpt lat="46.48947" lon="5.32478">
        <ele>209.4</ele>
        <time>2022-07-05T07:04:11Z</time>
      </trkpt>
      <trkpt lat="46.48956" lon="5.32512">
        <ele>209.4</ele>
        <time>2022-07-05T07:04:14Z</time>
      </trkpt>
      <trkpt lat="46.48958" lon="5.32524">
        <ele>209.2</ele>
        <time>2022-07-05T07:04:15Z</time>
      </trkpt>
      <trkpt lat="46.48956" lon="5.32546">
        <ele>209.2</ele>
        <time>2022-07-05T07:04:17Z</time>
      </trkpt>
      <trkpt lat="46.4895" lon="5.32565">
        <ele>209.2</ele>
        <time>2022-07-05T07:04:19Z</time>
      </trkpt>
      <trkpt lat="46.48945" lon="5.32572">
        <ele>209.2</ele>
        <time>2022-07-05T07:04:20Z</time>
      </trkpt>
      <trkpt lat="46.48921" lon="5.32606">
        <ele>209.6</ele>
        <time>2022-07-05T07:04:25Z</time>
      </trkpt>
      <trkpt lat="46.48918" lon="5.32614">
        <ele>209.8</ele>
        <time>2022-07-05T07:04:26Z</time>
      </trkpt>
      <trkpt lat="46.48917" lon="5.32622">
        <ele>209.8</ele>
        <time>2022-07-05T07:04:27Z</time>
      </trkpt>
      <trkpt lat="46.48917" lon="5.32639">
        <ele>210.2</ele>
        <time>2022-07-05T07:04:29Z</time>
      </trkpt>
      <trkpt lat="46.4892" lon="5.32653">
        <ele>210.6</ele>
        <time>2022-07-05T07:04:31Z</time>
      </trkpt>
      <trkpt lat="46.48926" lon="5.32664">
        <ele>211</ele>
        <time>2022-07-05T07:04:33Z</time>
      </trkpt>
      <trkpt lat="46.48932" lon="5.32674">
        <ele>211.8</ele>
        <time>2022-07-05T07:04:35Z</time>
      </trkpt>
      <trkpt lat="46.48941" lon="5.32687">
        <ele>213</ele>
        <time>2022-07-05T07:04:38Z</time>
      </trkpt>
      <trkpt lat="46.48947" lon="5.32695">
        <ele>213.6</ele>
        <time>2022-07-05T07:04:40Z</time>
      </trkpt>
      <trkpt lat="46.48952" lon="5.32705">
        <ele>214.2</ele>
        <time>2022-07-05T07:04:42Z</time>
      </trkpt>
      <trkpt lat="46.48963" lon="5.32713">
        <ele>215</ele>
        <time>2022-07-05T07:04:45Z</time>
      </trkpt>
      <trkpt lat="46.48966" lon="5.32714">
        <ele>215.2</ele>
        <time>2022-07-05T07:04:46Z</time>
      </trkpt>
      <trkpt lat="46.48982" lon="5.32715">
        <ele>216.2</ele>
        <time>2022-07-05T07:04:50Z</time>
      </trkpt>
      <trkpt lat="46.48999" lon="5.32714">
        <ele>217.4</ele>
        <time>2022-07-05T07:04:54Z</time>
      </trkpt>
      <trkpt lat="46.49019" lon="5.32711">
        <ele>218.6</ele>
        <time>2022-07-05T07:04:59Z</time>
      </trkpt>
      <trkpt lat="46.49026" lon="5.32709">
        <ele>219</ele>
        <time>2022-07-05T07:05:01Z</time>
      </trkpt>
      <trkpt lat="46.49043" lon="5.32708">
        <ele>219.8</ele>
        <time>2022-07-05T07:05:05Z</time>
      </trkpt>
      <trkpt lat="46.49063" lon="5.32705">
        <ele>221</ele>
        <time>2022-07-05T07:05:10Z</time>
      </trkpt>
      <trkpt lat="46.49085" lon="5.327">
        <ele>222</ele>
        <time>2022-07-05T07:05:16Z</time>
      </trkpt>
      <trkpt lat="46.49096" lon="5.32698">
        <ele>222.8</ele>
        <time>2022-07-05T07:05:19Z</time>
      </trkpt>
      <trkpt lat="46.49107" lon="5.32698">
        <ele>223.2</ele>
        <time>2022-07-05T07:05:22Z</time>
      </trkpt>
      <trkpt lat="46.49115" lon="5.32701">
        <ele>223.4</ele>
        <time>2022-07-05T07:05:24Z</time>
      </trkpt>
      <trkpt lat="46.4913" lon="5.32723">
        <ele>224</ele>
        <time>2022-07-05T07:05:29Z</time>
      </trkpt>
      <trkpt lat="46.49132" lon="5.32729">
        <ele>224</ele>
        <time>2022-07-05T07:05:30Z</time>
      </trkpt>
      <trkpt lat="46.49134" lon="5.32735">
        <ele>224.2</ele>
        <time>2022-07-05T07:05:31Z</time>
      </trkpt>
      <trkpt lat="46.49139" lon="5.32762">
        <ele>224.8</ele>
        <time>2022-07-05T07:05:35Z</time>
      </trkpt>
      <trkpt lat="46.49145" lon="5.32809">
        <ele>225.2</ele>
        <time>2022-07-05T07:05:41Z</time>
      </trkpt>
      <trkpt lat="46.49144" lon="5.32819">
        <ele>225.2</ele>
        <time>2022-07-05T07:05:42Z</time>
      </trkpt>
      <trkpt lat="46.49142" lon="5.32838">
        <ele>225.2</ele>
        <time>2022-07-05T07:05:44Z</time>
      </trkpt>
      <trkpt lat="46.4914" lon="5.32846">
        <ele>225.2</ele>
        <time>2022-07-05T07:05:45Z</time>
      </trkpt>
      <trkpt lat="46.4913" lon="5.32885">
        <ele>225.2</ele>
        <time>2022-07-05T07:05:49Z</time>
      </trkpt>
      <trkpt lat="46.49129" lon="5.32893">
        <ele>225</ele>
        <time>2022-07-05T07:05:50Z</time>
      </trkpt>
      <trkpt lat="46.49126" lon="5.32912">
        <ele>225</ele>
        <time>2022-07-05T07:05:52Z</time>
      </trkpt>
      <trkpt lat="46.49126" lon="5.32951">
        <ele>224.8</ele>
        <time>2022-07-05T07:05:56Z</time>
      </trkpt>
      <trkpt lat="46.49132" lon="5.33015">
        <ele>225.2</ele>
        <time>2022-07-05T07:06:03Z</time>
      </trkpt>
      <trkpt lat="46.49142" lon="5.33064">
        <ele>226.2</ele>
        <time>2022-07-05T07:06:09Z</time>
      </trkpt>
      <trkpt lat="46.49144" lon="5.33072">
        <ele>226.6</ele>
        <time>2022-07-05T07:06:10Z</time>
      </trkpt>
      <trkpt lat="46.49148" lon="5.33087">
        <ele>226.8</ele>
        <time>2022-07-05T07:06:12Z</time>
      </trkpt>
      <trkpt lat="46.49156" lon="5.33112">
        <ele>226.8</ele>
        <time>2022-07-05T07:06:15Z</time>
      </trkpt>
      <trkpt lat="46.49163" lon="5.33127">
        <ele>227</ele>
        <time>2022-07-05T07:06:17Z</time>
      </trkpt>
      <trkpt lat="46.49174" lon="5.33139">
        <ele>226.8</ele>
        <time>2022-07-05T07:06:19Z</time>
      </trkpt>
      <trkpt lat="46.49213" lon="5.33173">
        <ele>226.6</ele>
        <time>2022-07-05T07:06:26Z</time>
      </trkpt>
      <trkpt lat="46.4924" lon="5.33194">
        <ele>227</ele>
        <time>2022-07-05T07:06:31Z</time>
      </trkpt>
      <trkpt lat="46.49244" lon="5.33199">
        <ele>227</ele>
        <time>2022-07-05T07:06:32Z</time>
      </trkpt>
      <trkpt lat="46.49249" lon="5.33204">
        <ele>227.4</ele>
        <time>2022-07-05T07:06:33Z</time>
      </trkpt>
      <trkpt lat="46.49258" lon="5.33225">
        <ele>227.8</ele>
        <time>2022-07-05T07:06:36Z</time>
      </trkpt>
      <trkpt lat="46.49271" lon="5.3327">
        <ele>228.2</ele>
        <time>2022-07-05T07:06:42Z</time>
      </trkpt>
      <trkpt lat="46.49272" lon="5.33278">
        <ele>228.4</ele>
        <time>2022-07-05T07:06:43Z</time>
      </trkpt>
      <trkpt lat="46.49285" lon="5.33341">
        <ele>228.6</ele>
        <time>2022-07-05T07:06:51Z</time>
      </trkpt>
      <trkpt lat="46.49292" lon="5.3338">
        <ele>229.2</ele>
        <time>2022-07-05T07:06:56Z</time>
      </trkpt>
      <trkpt lat="46.493" lon="5.33418">
        <ele>230</ele>
        <time>2022-07-05T07:07:01Z</time>
      </trkpt>
      <trkpt lat="46.49304" lon="5.33433">
        <ele>230.2</ele>
        <time>2022-07-05T07:07:03Z</time>
      </trkpt>
      <trkpt lat="46.4931" lon="5.33476">
        <ele>230.8</ele>
        <time>2022-07-05T07:07:08Z</time>
      </trkpt>
      <trkpt lat="46.49318" lon="5.3354">
        <ele>231.2</ele>
        <time>2022-07-05T07:07:15Z</time>
      </trkpt>
      <trkpt lat="46.49318" lon="5.3355">
        <ele>231.2</ele>
        <time>2022-07-05T07:07:16Z</time>
      </trkpt>
      <trkpt lat="46.49315" lon="5.3357">
        <ele>230.8</ele>
        <time>2022-07-05T07:07:18Z</time>
      </trkpt>
      <trkpt lat="46.49313" lon="5.3358">
        <ele>230.8</ele>
        <time>2022-07-05T07:07:19Z</time>
      </trkpt>
      <trkpt lat="46.49304" lon="5.33641">
        <ele>230.6</ele>
        <time>2022-07-05T07:07:25Z</time>
      </trkpt>
      <trkpt lat="46.49302" lon="5.33711">
        <ele>230.8</ele>
        <time>2022-07-05T07:07:32Z</time>
      </trkpt>
      <trkpt lat="46.49295" lon="5.33769">
        <ele>231.4</ele>
        <time>2022-07-05T07:07:38Z</time>
      </trkpt>
      <trkpt lat="46.49281" lon="5.33842">
        <ele>232</ele>
        <time>2022-07-05T07:07:46Z</time>
      </trkpt>
      <trkpt lat="46.49268" lon="5.33907">
        <ele>232.2</ele>
        <time>2022-07-05T07:07:53Z</time>
      </trkpt>
      <trkpt lat="46.49262" lon="5.33935">
        <ele>232.4</ele>
        <time>2022-07-05T07:07:56Z</time>
      </trkpt>
      <trkpt lat="46.49248" lon="5.34012">
        <ele>232.8</ele>
        <time>2022-07-05T07:08:04Z</time>
      </trkpt>
      <trkpt lat="46.49233" lon="5.34093">
        <ele>232.8</ele>
        <time>2022-07-05T07:08:12Z</time>
      </trkpt>
      <trkpt lat="46.49219" lon="5.34166">
        <ele>232</ele>
        <time>2022-07-05T07:08:18Z</time>
      </trkpt>
      <trkpt lat="46.49214" lon="5.3419">
        <ele>230.8</ele>
        <time>2022-07-05T07:08:20Z</time>
      </trkpt>
      <trkpt lat="46.49203" lon="5.34248">
        <ele>230.2</ele>
        <time>2022-07-05T07:08:25Z</time>
      </trkpt>
      <trkpt lat="46.49189" lon="5.34321">
        <ele>230.2</ele>
        <time>2022-07-05T07:08:32Z</time>
      </trkpt>
      <trkpt lat="46.49179" lon="5.34368">
        <ele>230.6</ele>
        <time>2022-07-05T07:08:37Z</time>
      </trkpt>
      <trkpt lat="46.49165" lon="5.34441">
        <ele>230.6</ele>
        <time>2022-07-05T07:08:43Z</time>
      </trkpt>
      <trkpt lat="46.49151" lon="5.34521">
        <ele>230</ele>
        <time>2022-07-05T07:08:50Z</time>
      </trkpt>
      <trkpt lat="46.4914" lon="5.34577">
        <ele>230.4</ele>
        <time>2022-07-05T07:08:56Z</time>
      </trkpt>
      <trkpt lat="46.49135" lon="5.34606">
        <ele>230.6</ele>
        <time>2022-07-05T07:08:59Z</time>
      </trkpt>
      <trkpt lat="46.49131" lon="5.34627">
        <ele>230.6</ele>
        <time>2022-07-05T07:09:01Z</time>
      </trkpt>
      <trkpt lat="46.49117" lon="5.34696">
        <ele>230.2</ele>
        <time>2022-07-05T07:09:07Z</time>
      </trkpt>
      <trkpt lat="46.49104" lon="5.3476">
        <ele>230</ele>
        <time>2022-07-05T07:09:13Z</time>
      </trkpt>
      <trkpt lat="46.49093" lon="5.34817">
        <ele>230.6</ele>
        <time>2022-07-05T07:09:19Z</time>
      </trkpt>
      <trkpt lat="46.49082" lon="5.34872">
        <ele>231.2</ele>
        <time>2022-07-05T07:09:25Z</time>
      </trkpt>
      <trkpt lat="46.49079" lon="5.34889">
        <ele>231.6</ele>
        <time>2022-07-05T07:09:27Z</time>
      </trkpt>
      <trkpt lat="46.49073" lon="5.34921">
        <ele>232</ele>
        <time>2022-07-05T07:09:31Z</time>
      </trkpt>
      <trkpt lat="46.49067" lon="5.34953">
        <ele>232.6</ele>
        <time>2022-07-05T07:09:35Z</time>
      </trkpt>
      <trkpt lat="46.49064" lon="5.34968">
        <ele>232.8</ele>
        <time>2022-07-05T07:09:37Z</time>
      </trkpt>
      <trkpt lat="46.49055" lon="5.35017">
        <ele>233.6</ele>
        <time>2022-07-05T07:09:43Z</time>
      </trkpt>
      <trkpt lat="46.49053" lon="5.35025">
        <ele>233.6</ele>
        <time>2022-07-05T07:09:44Z</time>
      </trkpt>
      <trkpt lat="46.49043" lon="5.35065">
        <ele>234.2</ele>
        <time>2022-07-05T07:09:49Z</time>
      </trkpt>
      <trkpt lat="46.49034" lon="5.35106">
        <ele>234.6</ele>
        <time>2022-07-05T07:09:54Z</time>
      </trkpt>
      <trkpt lat="46.49029" lon="5.35124">
        <ele>235</ele>
        <time>2022-07-05T07:09:56Z</time>
      </trkpt>
      <trkpt lat="46.49025" lon="5.35133">
        <ele>235</ele>
        <time>2022-07-05T07:09:57Z</time>
      </trkpt>
      <trkpt lat="46.49003" lon="5.35183">
        <ele>235.6</ele>
        <time>2022-07-05T07:10:03Z</time>
      </trkpt>
      <trkpt lat="46.48979" lon="5.35241">
        <ele>235.6</ele>
        <time>2022-07-05T07:10:09Z</time>
      </trkpt>
      <trkpt lat="46.48949" lon="5.35309">
        <ele>234.8</ele>
        <time>2022-07-05T07:10:16Z</time>
      </trkpt>
      <trkpt lat="46.4894" lon="5.35329">
        <ele>234.6</ele>
        <time>2022-07-05T07:10:18Z</time>
      </trkpt>
      <trkpt lat="46.48907" lon="5.35403">
        <ele>234</ele>
        <time>2022-07-05T07:10:26Z</time>
      </trkpt>
      <trkpt lat="46.48903" lon="5.35412">
        <ele>234</ele>
        <time>2022-07-05T07:10:27Z</time>
      </trkpt>
      <trkpt lat="46.48884" lon="5.35454">
        <ele>234.2</ele>
        <time>2022-07-05T07:10:32Z</time>
      </trkpt>
      <trkpt lat="46.48859" lon="5.35512">
        <ele>234.8</ele>
        <time>2022-07-05T07:10:39Z</time>
      </trkpt>
      <trkpt lat="46.4883" lon="5.35578">
        <ele>235.2</ele>
        <time>2022-07-05T07:10:47Z</time>
      </trkpt>
      <trkpt lat="46.48798" lon="5.35648">
        <ele>235.4</ele>
        <time>2022-07-05T07:10:55Z</time>
      </trkpt>
      <trkpt lat="46.48766" lon="5.35719">
        <ele>235.4</ele>
        <time>2022-07-05T07:11:03Z</time>
      </trkpt>
      <trkpt lat="46.48762" lon="5.35728">
        <ele>235.2</ele>
        <time>2022-07-05T07:11:04Z</time>
      </trkpt>
      <trkpt lat="46.48732" lon="5.35798">
        <ele>235.2</ele>
        <time>2022-07-05T07:11:12Z</time>
      </trkpt>
      <trkpt lat="46.48719" lon="5.35831">
        <ele>235.2</ele>
        <time>2022-07-05T07:11:16Z</time>
      </trkpt>
      <trkpt lat="46.487" lon="5.3587">
        <ele>235.4</ele>
        <time>2022-07-05T07:11:21Z</time>
      </trkpt>
      <trkpt lat="46.48691" lon="5.35896">
        <ele>235.8</ele>
        <time>2022-07-05T07:11:24Z</time>
      </trkpt>
      <trkpt lat="46.48684" lon="5.35922">
        <ele>236.2</ele>
        <time>2022-07-05T07:11:27Z</time>
      </trkpt>
      <trkpt lat="46.48682" lon="5.35942">
        <ele>236.8</ele>
        <time>2022-07-05T07:11:29Z</time>
      </trkpt>
      <trkpt lat="46.48677" lon="5.3599">
        <ele>237.8</ele>
        <time>2022-07-05T07:11:34Z</time>
      </trkpt>
      <trkpt lat="46.48676" lon="5.35999">
        <ele>237.8</ele>
        <time>2022-07-05T07:11:35Z</time>
      </trkpt>
      <trkpt lat="46.48668" lon="5.3604">
        <ele>238</ele>
        <time>2022-07-05T07:11:39Z</time>
      </trkpt>
      <trkpt lat="46.48651" lon="5.36111">
        <ele>237.6</ele>
        <time>2022-07-05T07:11:45Z</time>
      </trkpt>
      <trkpt lat="46.48642" lon="5.36168">
        <ele>236.6</ele>
        <time>2022-07-05T07:11:50Z</time>
      </trkpt>
      <trkpt lat="46.48635" lon="5.36251">
        <ele>236.8</ele>
        <time>2022-07-05T07:11:58Z</time>
      </trkpt>
      <trkpt lat="46.48626" lon="5.36295">
        <ele>237.2</ele>
        <time>2022-07-05T07:12:03Z</time>
      </trkpt>
      <trkpt lat="46.4862" lon="5.36308">
        <ele>237.4</ele>
        <time>2022-07-05T07:12:05Z</time>
      </trkpt>
      <trkpt lat="46.48612" lon="5.36316">
        <ele>237.8</ele>
        <time>2022-07-05T07:12:07Z</time>
      </trkpt>
      <trkpt lat="46.48607" lon="5.36319">
        <ele>237.8</ele>
        <time>2022-07-05T07:12:08Z</time>
      </trkpt>
      <trkpt lat="46.48602" lon="5.3632">
        <ele>238</ele>
        <time>2022-07-05T07:12:09Z</time>
      </trkpt>
      <trkpt lat="46.48592" lon="5.36321">
        <ele>238.8</ele>
        <time>2022-07-05T07:12:11Z</time>
      </trkpt>
      <trkpt lat="46.48587" lon="5.36322">
        <ele>239</ele>
        <time>2022-07-05T07:12:12Z</time>
      </trkpt>
      <trkpt lat="46.48562" lon="5.36325">
        <ele>240</ele>
        <time>2022-07-05T07:12:17Z</time>
      </trkpt>
      <trkpt lat="46.48541" lon="5.36327">
        <ele>241</ele>
        <time>2022-07-05T07:12:21Z</time>
      </trkpt>
      <trkpt lat="46.48508" lon="5.36333">
        <ele>242.2</ele>
        <time>2022-07-05T07:12:27Z</time>
      </trkpt>
      <trkpt lat="46.48496" lon="5.36335">
        <ele>242.6</ele>
        <time>2022-07-05T07:12:29Z</time>
      </trkpt>
      <trkpt lat="46.48455" lon="5.36341">
        <ele>243.2</ele>
        <time>2022-07-05T07:12:36Z</time>
      </trkpt>
      <trkpt lat="46.48443" lon="5.36344">
        <ele>243.2</ele>
        <time>2022-07-05T07:12:38Z</time>
      </trkpt>
      <trkpt lat="46.48426" lon="5.36348">
        <ele>243.4</ele>
        <time>2022-07-05T07:12:41Z</time>
      </trkpt>
      <trkpt lat="46.48403" lon="5.36361">
        <ele>243.8</ele>
        <time>2022-07-05T07:12:45Z</time>
      </trkpt>
      <trkpt lat="46.48398" lon="5.36365">
        <ele>243.8</ele>
        <time>2022-07-05T07:12:46Z</time>
      </trkpt>
      <trkpt lat="46.48372" lon="5.36392">
        <ele>244</ele>
        <time>2022-07-05T07:12:51Z</time>
      </trkpt>
      <trkpt lat="46.48339" lon="5.36429">
        <ele>244.2</ele>
        <time>2022-07-05T07:12:58Z</time>
      </trkpt>
      <trkpt lat="46.4832" lon="5.36449">
        <ele>244.6</ele>
        <time>2022-07-05T07:13:02Z</time>
      </trkpt>
      <trkpt lat="46.48303" lon="5.36468">
        <ele>245.4</ele>
        <time>2022-07-05T07:13:06Z</time>
      </trkpt>
      <trkpt lat="46.48273" lon="5.36502">
        <ele>246.4</ele>
        <time>2022-07-05T07:13:13Z</time>
      </trkpt>
      <trkpt lat="46.48264" lon="5.36512">
        <ele>246.6</ele>
        <time>2022-07-05T07:13:15Z</time>
      </trkpt>
      <trkpt lat="46.48243" lon="5.36536">
        <ele>247.6</ele>
        <time>2022-07-05T07:13:20Z</time>
      </trkpt>
      <trkpt lat="46.48225" lon="5.36554">
        <ele>248.4</ele>
        <time>2022-07-05T07:13:24Z</time>
      </trkpt>
      <trkpt lat="46.48214" lon="5.36558">
        <ele>248.6</ele>
        <time>2022-07-05T07:13:26Z</time>
      </trkpt>
      <trkpt lat="46.48208" lon="5.36557">
        <ele>248.8</ele>
        <time>2022-07-05T07:13:27Z</time>
      </trkpt>
      <trkpt lat="46.48203" lon="5.36557">
        <ele>248.8</ele>
        <time>2022-07-05T07:13:28Z</time>
      </trkpt>
      <trkpt lat="46.48193" lon="5.36563">
        <ele>249</ele>
        <time>2022-07-05T07:13:30Z</time>
      </trkpt>
      <trkpt lat="46.48186" lon="5.36575">
        <ele>249.2</ele>
        <time>2022-07-05T07:13:32Z</time>
      </trkpt>
      <trkpt lat="46.48184" lon="5.36583">
        <ele>249.4</ele>
        <time>2022-07-05T07:13:33Z</time>
      </trkpt>
      <trkpt lat="46.48179" lon="5.36598">
        <ele>249.6</ele>
        <time>2022-07-05T07:13:35Z</time>
      </trkpt>
      <trkpt lat="46.48171" lon="5.3661">
        <ele>249.6</ele>
        <time>2022-07-05T07:13:37Z</time>
      </trkpt>
      <trkpt lat="46.48143" lon="5.3664">
        <ele>250.2</ele>
        <time>2022-07-05T07:13:43Z</time>
      </trkpt>
      <trkpt lat="46.48133" lon="5.36649">
        <ele>250.4</ele>
        <time>2022-07-05T07:13:45Z</time>
      </trkpt>
      <trkpt lat="46.4812" lon="5.36664">
        <ele>250.6</ele>
        <time>2022-07-05T07:13:48Z</time>
      </trkpt>
      <trkpt lat="46.48113" lon="5.36673">
        <ele>250.8</ele>
        <time>2022-07-05T07:13:50Z</time>
      </trkpt>
      <trkpt lat="46.48108" lon="5.36678">
        <ele>250.8</ele>
        <time>2022-07-05T07:13:51Z</time>
      </trkpt>
      <trkpt lat="46.48105" lon="5.36681">
        <ele>250.8</ele>
        <time>2022-07-05T07:13:52Z</time>
      </trkpt>
      <trkpt lat="46.48102" lon="5.36684">
        <ele>251</ele>
        <time>2022-07-05T07:13:53Z</time>
      </trkpt>
      <trkpt lat="46.48099" lon="5.36689">
        <ele>251</ele>
        <time>2022-07-05T07:13:54Z</time>
      </trkpt>
      <trkpt lat="46.48102" lon="5.367">
        <ele>251.4</ele>
        <time>2022-07-05T07:13:56Z</time>
      </trkpt>
      <trkpt lat="46.4812" lon="5.36714">
        <ele>251.8</ele>
        <time>2022-07-05T07:14:00Z</time>
      </trkpt>
      <trkpt lat="46.48129" lon="5.36721">
        <ele>252</ele>
        <time>2022-07-05T07:14:02Z</time>
      </trkpt>
      <trkpt lat="46.48145" lon="5.36735">
        <ele>253</ele>
        <time>2022-07-05T07:14:06Z</time>
      </trkpt>
      <trkpt lat="46.48164" lon="5.36751">
        <ele>254.2</ele>
        <time>2022-07-05T07:14:11Z</time>
      </trkpt>
      <trkpt lat="46.48179" lon="5.36764">
        <ele>255.2</ele>
        <time>2022-07-05T07:14:15Z</time>
      </trkpt>
      <trkpt lat="46.48182" lon="5.36767">
        <ele>255.4</ele>
        <time>2022-07-05T07:14:16Z</time>
      </trkpt>
      <trkpt lat="46.48197" lon="5.36778">
        <ele>256.6</ele>
        <time>2022-07-05T07:14:20Z</time>
      </trkpt>
      <trkpt lat="46.48211" lon="5.36789">
        <ele>257.8</ele>
        <time>2022-07-05T07:14:24Z</time>
      </trkpt>
      <trkpt lat="46.48214" lon="5.36792">
        <ele>258</ele>
        <time>2022-07-05T07:14:25Z</time>
      </trkpt>
      <trkpt lat="46.48234" lon="5.3681">
        <ele>259</ele>
        <time>2022-07-05T07:14:31Z</time>
      </trkpt>
      <trkpt lat="46.48245" lon="5.36818">
        <ele>259.8</ele>
        <time>2022-07-05T07:14:34Z</time>
      </trkpt>
      <trkpt lat="46.48248" lon="5.36821">
        <ele>260.2</ele>
        <time>2022-07-05T07:14:35Z</time>
      </trkpt>
      <trkpt lat="46.48264" lon="5.36837">
        <ele>261.4</ele>
        <time>2022-07-05T07:14:40Z</time>
      </trkpt>
    </trkseg>
  </trk>
</gpx>